[[{"header":{"parameterUnit":"m.s-1","parameterCategory":1,"la1":31.0,"la2":29.5877,"lo1":-88.7671,"lo2":-86.6584,"dy":0.0162,"dx":0.0185,"nx":115,"ny":88,"refTime":"2026-03-18T12:00:00:Z","depth":0,"parameterNumber":2,"parameterNumberName":"U-component_of_WINDS"},"data":[0.0,0.0,0.0,0.0,0.0,0.0,0.0,0.0,0.0,0.0,0.0,0.0,0.0,0.0,0.0,0.0,0.0,0.0,0.0,0.0,0.0,0.0,0.0,0.0,0.0,0.0,0.0,0.0,0.0,0.0,0.0,0.0,0.0,0.0,0.0,0.0,0.0,0.0,0.0,0.0,0.0,0.0,0.0,0.0,0.0,0.0,0.0,0.0,0.0,0.0,0.0,0.0,0.0,0.0,0.0,0.0,0.0,0.0,0.0,0.0,0.0,0.0,0.0,0.0,0.0,0.0,0.0,0.0,0.0,0.0,0.0,0.0,0.0,0.0,0.0,0.0,0.0,0.0,0.0,0.0,0.0,0.0,0.0,0.0,0.0,0.0,0.0,0.0,0.0,0.0,0.0,0.0,0.0,0.0,0.0,0.0,0.0,0.0,0.0,0.0,0.0,0.0,0.0,0.0,0.0,0.0,0.0,0.0,0.0,0.0,0.0,0.0,0.0,0.0,0.0,0.0,0.0,0.0,0.0,0.0,0.0,0.0,0.0,0.0,0.0,0.0,0.0,0.0,0.0,0.0,0.0,0.0,0.0,0.0,0.0,0.0,0.0,0.0,0.0,0.0,0.0,0.0,0.0,0.0,0.0,0.0,0.0,0.0,0.0,0.0,0.0,0.0,0.0,0.0,0.0,0.0,0.0,0.0,0.0,0.0,0.0,0.0,0.0,0.0,0.0,0.0,0.0,0.0,0.0,0.0,0.0,0.0,0.0,0.0,0.0,0.0,0.0,0.0,0.0,0.0,0.0,0.0,0.0,0.0,0.0,0.0,0.0,0.0,0.0,0.0,0.0,0.0,0.0,0.0,0.0,0.0,0.0,0.0,0.0,0.0,0.0,0.0,0.0,0.0,0.0,0.0,0.0,0.0,0.0,0.0,0.0,0.0,0.0,0.0,0.0,0.0,0.0,0.0,0.0,0.0,0.0,0.0,0.0,0.0,0.0,0.0,0.0,0.0,0.0,0.0,0.0,0.0,0.0,0.0,0.0,0.0,0.0,0.0,0.0,0.0,0.0,0.0,0.0,0.0,0.0,0.0,0.0,0.0,0.0,0.0,0.0,0.0,0.0,0.0,0.0,0.0,0.0,0.0,0.0,0.0,0.0,0.0,0.0,0.0,0.0,0.0,0.0,0.0,0.0,0.0,0.0,0.0,0.0,0.0,0.0,0.0,0.0,0.0,0.0,0.0,0.0,0.0,0.0,0.0,0.0,0.0,0.0,0.0,0.0,0.0,0.0,0.0,0.0,0.0,0.0,0.0,0.0,0.0,0.0,0.0,0.0,0.0,0.0,0.0,0.0,0.0,0.0,0.0,0.0,0.0,0.0,0.0,0.0,0.0,0.0,0.0,0.0,0.0,0.0,0.0,0.0,0.0,0.0,0.0,0.0,0.0,0.0,0.0,0.0,0.0,0.0,0.0,0.0,0.0,0.0,0.0,0.0,0.0,0.0,0.0,0.0,0.0,0.0,0.0,0.0,0.0,0.0,0.0,0.0,0.0,0.0,0.0,0.0,0.0,0.0,0.0,0.0,0.0,0.0,0.0,0.0,0.0,0.0,0.0,0.0,0.0,0.0,0.0,0.0,0.0,0.0,0.0,0.0,0.0,0.0,0.0,0.0,0.0,0.0,0.0,0.0,0.0,0.0,0.0,0.0,0.0,0.0,0.0,0.0,0.0,0.0,0.0,0.0,0.0,0.0,0.0,0.0,0.0,0.0,0.0,0.0,0.0,0.0,0.0,0.0,0.0,0.0,0.0,0.0,0.0,0.0,0.0,0.0,0.0,0.0,0.0,0.0,0.0,0.0,0.0,0.0,0.0,0.0,0.0,0.0,0.0,0.0,0.0,0.0,0.0,0.0,0.0,0.0,0.0,0.0,0.0,0.0,0.0,0.0,0.0,0.0,0.0,0.0,0.0,0.0,0.0,0.0,0.0,0.0,0.0,0.0,0.0,0.0,0.0,0.0,0.0,0.0,0.0,0.0,0.0,0.0,0.0,0.0,0.0,0.0,0.0,0.0,0.0,0.0,0.0,0.0,0.0,0.0,0.0,0.0,0.0,0.0,0.0,0.0,0.0,0.0,0.0,0.0,0.0,0.0,0.0,0.0,0.0,0.0,0.0,0.0,0.0,0.0,0.0,0.0,0.0,0.0,0.0,0.0,0.0,0.0,0.0,0.0,0.0,0.0,0.0,0.0,0.0,0.0,0.0,0.0,0.0,0.0,0.0,0.0,0.0,0.0,0.0,0.0,0.0,0.0,0.0,0.0,0.0,0.0,0.0,0.0,0.0,0.0,0.0,0.0,0.0,0.0,0.0,0.0,0.0,0.0,0.0,0.0,0.0,0.0,0.0,0.0,0.0,0.0,0.0,0.0,0.0,0.0,0.0,0.0,0.0,0.0,0.0,0.0,0.0,0.0,0.0,0.0,0.0,0.0,0.0,0.0,0.0,0.0,0.0,0.0,0.0,0.0,0.0,0.0,0.0,0.0,0.0,0.0,0.0,0.0,0.0,0.0,0.0,0.0,0.0,0.0,0.0,0.0,0.0,0.0,0.0,0.0,0.0,0.0,0.0,0.0,0.0,0.0,0.0,0.0,0.0,0.0,0.0,0.0,0.0,0.0,0.0,0.0,0.0,0.0,0.0,0.0,0.0,0.0,0.0,0.0,0.0,0.0,0.0,0.0,0.0,0.0,0.0,0.0,0.0,0.0,0.0,0.0,0.0,0.0,0.0,0.0,0.0,0.0,0.0,0.0,0.0,0.0,0.0,0.0,0.0,0.0,0.0,0.0,0.0,0.0,0.0,0.0,0.0,0.0,0.0,0.0,0.0,0.0,0.0,0.0,0.0,0.0,0.0,0.0,0.0,0.0,0.0,0.0,0.0,0.0,0.0,0.0,0.0,0.0,0.0,0.0,0.0,0.0,0.0,0.0,0.0,0.0,0.0,0.0,0.0,0.0,0.0,0.0,0.0,0.0,0.0,0.0,0.0,0.0,0.0,0.0,0.0,0.0,0.0,0.0,0.0,0.0,0.0,0.0,0.0,0.0,0.0,0.0,0.0,0.0,0.0,0.0,0.0,0.0,0.0,0.0,0.0,0.0,0.0,0.0,0.0,0.0,0.0,0.0,0.0,0.0,0.0,0.0,0.0,0.0,0.0,0.0,0.0,0.0,0.0,0.0,0.0,0.0,0.0,0.0,0.0,0.0,0.0,0.0,0.0,0.0,0.0,0.0,0.0,0.0,0.0,0.0,0.0,0.0,0.0,0.0,0.0,0.0,0.0,0.0,0.0,0.0,0.0,0.0,0.0,0.0,0.0,0.0,0.0,0.0,0.0,0.0,0.0,0.0,0.0,0.0,0.0,0.0,0.0,0.0,0.0,0.0,0.0,0.0,0.0,0.0,0.0,0.0,0.0,0.0,0.0,0.0,0.0,0.0,0.0,0.0,0.0,0.0,0.0,0.0,0.0,0.0,0.0,0.0,0.0,0.0,0.0,0.0,0.0,0.0,0.0,0.0,0.0,0.0,0.0,0.0,0.0,0.0,0.0,0.0,0.0,0.0,0.0,0.0,0.0,0.0,0.0,0.0,0.0,0.0,0.0,0.0,0.0,0.0,0.0,0.0,0.0,0.0,0.0,0.0,0.0,0.0,0.0,0.0,0.0,0.0,0.0,0.0,0.0,0.0,0.0,0.0,0.0,0.0,0.0,0.0,0.0,0.0,0.0,0.0,0.0,0.0,0.0,0.0,0.0,0.0,0.0,0.0,0.0,0.0,0.0,0.0,0.0,0.0,0.0,0.0,0.0,0.0,0.0,0.0,0.0,0.0,0.0,0.0,0.0,0.0,0.0,0.0,0.0,0.0,0.0,0.0,0.0,0.0,0.0,0.0,0.0,0.0,0.0,0.0,0.0,0.0,0.0,0.0,0.0,0.0,0.0,0.0,0.0,0.0,0.0,0.0,0.0,0.0,0.0,0.0,0.0,0.0,0.0,0.0,0.0,0.0,0.0,0.0,0.0,0.0,0.0,0.0,0.0,0.0,0.0,0.0,0.0,0.0,0.0,0.0,0.0,0.0,0.0,0.0,0.0,0.0,0.0,0.0,0.0,0.0,0.0,0.0,0.0,0.0,0.0,0.0,0.0,0.0,0.0,0.0,0.0,0.0,0.0,0.0,0.0,0.0,0.0,0.0,0.0,0.0,0.0,0.0,0.0,0.0,0.0,0.0,0.0,-0.1121,0.0,0.0,0.0,0.0,0.0,0.0,0.0,0.0,0.0,0.0,0.0,0.0,0.0,0.0,0.0,0.0,0.0,0.0,0.0,0.0,0.0,0.0,0.0,0.0,0.0,0.0,0.0,0.0,0.0,0.0,0.0,0.0,0.0,0.0,0.0,0.0,0.0,0.0,0.0,0.0,0.0,0.0,0.0,0.0,0.0,0.0,0.0,0.0,0.0,0.0,0.0,0.0,0.0,0.0,0.0,0.0,0.0,0.0,0.0,0.0,0.0,0.0,0.0,0.0,0.0,0.0,0.0,0.0,0.0,0.0,0.0,0.0,0.0,0.0,0.0,0.0,0.0,0.0,0.0,0.0,0.0,0.0,0.0,0.0,0.0,0.0,0.0,0.0,0.0,0.0,0.0,0.0,0.0,0.0,0.0,0.0,0.0,0.0,0.0,0.0,0.0,0.0,0.0,0.0,0.0,0.0,0.0,0.0,0.0,0.0,0.0349,0.0036,-0.0266,-0.0509,-0.0704,0.0,0.0,0.0,0.0,0.0,0.0,0.0,0.0,0.0,0.0,0.0,0.0,0.0,0.0,0.0,0.0,0.0,0.0,0.0,0.0,0.0,0.0,0.0,0.0,0.0,0.0,0.0,0.0,0.0,0.0,0.0,0.0,0.0,0.0,0.0,0.0,0.0,0.0,0.0,0.0,0.0,0.0,0.0,0.0,0.0,0.0,0.0,0.0,0.0,0.0,0.0,0.0,0.0,0.0,0.0,0.0,0.0,0.0,0.0,0.0,0.0,0.0,0.0,0.0,0.0,0.0,0.0,0.0,0.0,0.0,0.0,0.0,0.0,0.0,0.0,0.0,0.0,0.0,0.0,0.0,0.0,0.0,0.0,0.0,0.0,0.0,0.0,0.0,0.0,0.0,0.0,0.0,0.0,0.0,0.0,0.0,0.0,0.0,0.0,0.0,0.0,0.0,0.0,0.0,0.0,0.0,0.0,0.0,0.0,0.0,0.0,0.0,0.0173,-0.0012,-0.0256,0.0,0.0,0.0,0.0,0.0,0.0,0.0,0.0,0.0,0.0,0.0,0.0,0.0,0.0,0.0,0.0,0.0,0.0,0.0,0.0,0.0,0.0,0.0,0.0,0.0,0.0,0.0,0.0,0.0,0.0,0.0,0.0,0.0,0.0,0.0,0.0,0.0,0.0,0.0,0.0,0.0,0.0,0.0,0.0,0.0,0.0,0.0,0.0,0.0,0.0,0.0,0.0,0.0,0.0,0.0,0.0,0.0,0.0,0.0,0.0,0.0,0.0,0.0,0.0,0.0,0.0,0.0,0.0,0.0,0.0,0.0,0.0,0.0,0.0,0.0,0.0,0.0,0.0,0.0,0.0,0.0,0.0,0.0,0.0,0.0,0.0,0.0,0.0,0.0,0.0,0.0,0.0,0.0,0.0,0.0,0.0,0.0,0.0,0.0,0.0,0.0,0.0,0.0,0.0,0.0,0.0,0.0,0.0,0.0,0.0,0.083,0.0647,0.0472,0.0,0.0149,0.0,0.0,0.0,0.0,0.0,0.0,0.0,0.0,0.0,0.0,0.0,0.0,0.0,0.0,0.0,0.0,0.0,0.0,0.0,0.0,0.0,0.0,0.0,0.0,0.0,0.0,0.0,0.0,0.0,0.0,0.0,0.0,0.0,0.0,0.0,0.0,0.0,0.0,0.0,0.0,0.0,0.0,0.0,0.0,0.0,0.0,0.0,0.0,0.0,0.0,0.0,0.0,0.0,0.0,0.0,0.0,0.0,0.0,0.0,0.0,0.0,0.0,0.0,0.0,0.0,0.0,0.0,0.0,0.0,0.0,0.0,0.0,0.0,0.0,0.0,0.0,0.0,0.0,0.0,0.0,0.0,0.0,0.0,0.0,0.0,0.0,0.0,0.0,0.0,0.0,0.0,0.0,0.0,0.0,0.0,0.0,0.0,0.0,0.0,0.0,0.0,0.0,0.0,0.0,0.0,0.0,0.0,0.0,0.0,0.0,0.0,0.119,0.0796,0.0558,0.0,0.0,0.0,0.0,0.0,0.0,0.0,0.0,0.0,0.0,0.0,0.0,0.0,0.0,0.0,0.0,0.0,0.0,0.0,0.0,0.0,0.0,0.0,0.0,0.0,0.0,0.0,0.0,0.0,0.0,0.0,0.0,0.0,0.0,0.0,0.0,0.0,0.0,0.0,0.0,0.0,0.0,0.0,0.0,0.0,0.0,0.0,0.0,0.0,0.0,0.0,0.0,0.0,0.0,0.0,0.0,0.0,0.0,0.0,0.0,0.0,0.0,0.0,0.0,0.0,0.0,0.0,0.0,0.0,0.0,0.0,0.0,0.0,0.0,0.0,0.0,0.0,0.0,0.0,0.0,0.0,0.0,0.0,0.0,0.0,0.0,0.0,0.0,0.0,0.0,0.0,0.0,0.0,0.0,0.0,0.0,0.0,0.0,0.0,0.0,0.0,0.0,0.0,0.0,0.0,0.0,0.0,0.0,0.0,0.0,0.2326,0.0,0.1585,0.1116,0.0843,0.0803,0.0,0.0,0.0,0.0,0.0,0.0,0.0,0.0,0.0,0.0,0.0,0.0,0.0,0.0,0.0,0.0,0.0,0.0,0.0,0.0,0.0,0.0,0.0,0.0,0.0,0.0,0.0,0.0,0.0,0.0,0.0,0.0,0.0,0.0,0.0,0.0,0.0,0.0,0.0,0.0,0.0,0.0,0.0,0.0,0.0,0.0,0.0,0.0,0.0,0.0,0.0,0.0,0.0,0.0,0.0,0.0,0.0,0.0,0.0,0.0,0.0,0.0,0.0,0.0,0.0,0.0,0.0,0.0,0.0,0.0,0.0,0.0,0.0,0.0,0.0,0.0,0.0,0.0,0.0,0.0,0.0,0.0,0.0,0.0,0.0,0.0,0.0,0.0,0.0,0.0,0.0,0.0,0.0,0.0,0.0,0.0,0.0,0.0,0.0,0.0,0.0,0.0,0.0,0.0,0.0,0.0,0.0,0.0,0.0,0.2781,0.219,0.181,0.1444,0.1207,0.0,0.0,0.0,0.0,0.0,0.0,0.0,0.0,0.0,0.0,0.0,0.0,0.0,0.0,0.0,0.0,0.0,0.0,0.0,0.0,0.0,0.0,0.0,0.0,0.0,0.0,0.0,0.0,0.0,0.0,0.0,0.0,0.0,0.0,0.0,0.0,0.0,0.0,0.0,0.0,0.0,0.0,0.0,0.0,0.0,0.0,0.0,0.0,0.0,0.0,0.0,0.0,0.0,0.0,0.0,0.0,0.0,0.0,0.0,0.0,0.0,0.0,0.0,0.0,0.0,0.0,0.0,0.0,0.0,0.0,0.0,0.0,0.0,0.0,0.0,0.0,0.0,0.0,0.0,0.0,0.0,0.0,0.0,0.0,0.0,0.0,0.0,0.0,0.0,0.0,0.0,0.0,0.0,0.0,0.0,0.0,0.0,0.0,0.0,0.0,0.0,0.0,0.0,0.0,0.0,0.0,0.0,0.0,0.0,0.3325,0.263,0.2338,0.2403,0.1706,0.1375,0.0,0.0,0.0,0.0,0.0,0.0,0.0,0.0,0.0,0.0,0.0,0.0,0.0,0.0,0.0,0.0,0.0,0.0,0.0,0.0,0.0,0.0,0.0,0.0,0.0,0.0,0.0,0.0,0.0,0.0,0.0,0.0,0.0,0.0,0.0,0.0,0.0,0.0,0.0,0.0,0.0,0.0,0.0,0.0,0.0,0.0,0.0,0.0,0.0,0.0,0.0,0.0,0.0,0.0,0.0,0.0,0.0,0.0,0.0,0.0,0.0,0.0,0.0,0.0,0.0,0.0,0.0,0.0,0.0,0.0,0.0,0.0,0.0,0.0,0.0,0.0,0.0,0.0,0.0,0.0,0.0,0.0,0.0,0.0,0.0,0.0,0.0,0.0,0.0,0.0,0.0,0.0,0.0,0.0,0.0,0.0,0.0,0.0,0.0,0.0,0.0,0.0,0.0,0.0,0.0,0.0,0.0,0.0,0.0,0.3449,0.0,0.2889,0.0,0.2054,0.1636,0.0,0.0,0.0,0.0,0.0,0.0,0.0,0.0,0.0,0.0,0.0,0.0,0.0,0.0,0.0,0.0,0.0,0.0,0.0,0.0,0.0,0.0,0.0,0.0,0.0,0.0,0.0,0.0,0.0,0.0,0.0,0.0,0.0,0.0,0.0,0.0,0.0,0.0,0.0,0.0,0.0,0.0,0.0,0.0,0.0,0.0,0.0,0.0,0.0,0.0,0.0,0.0,0.0,0.0,0.0,0.0,0.0,0.0,0.0,0.0,0.0,0.0,0.0,0.0,0.0,0.0,0.0,0.0,0.0,0.0,0.0,0.0,0.0,0.0,0.0,0.0,0.0,0.0,0.0,0.0,0.0,0.0,0.0,0.0,0.0,0.0,0.0,0.0,0.0,0.0,0.0,0.0,0.0,0.0,0.0,0.0,0.0,0.0,0.0,0.0,0.0,0.0,0.0,0.0,0.0,0.0,0.0,0.0,0.4152,0.4009,0.422,0.3831,0.2841,0.253,0.1977,0.0,0.0,0.0,0.0,0.0,0.0,0.0,0.0,0.0,0.0,0.0,0.0,0.0,0.0,0.0,0.0,0.0,0.0,0.0,0.0,0.0,0.0,0.0,0.0,0.0,0.0,0.0,0.0,0.0,0.0,0.0,0.0,0.0,0.0,0.0,0.0,0.0,0.0,0.0,0.0,0.0,0.0,0.0,0.0,0.0,0.0,0.0,0.0,0.0,0.0,0.0,0.0,0.0,0.0,0.0,0.0,0.0,0.0,0.0,0.0,0.0,0.0,0.0,0.0,0.0,0.0,0.0,0.0,0.0,0.0,0.0,0.0,0.0,0.0,0.0,0.0,0.0,0.0,0.0,0.0,0.0,0.0,0.0,0.0,0.0,0.0,0.0,0.0,0.0,0.0,0.0,0.0,0.0,0.0,0.0,0.0,0.0,0.0,0.0,0.0,0.0,0.0,0.0,0.0,0.0,0.0,0.0,0.0,0.0,0.4157,0.4134,0.3989,0.3684,0.2759,0.2125,0.0,0.0,0.0,0.0,0.0,0.0,0.0,0.0,0.0,0.0,0.0,0.0,0.0,0.0,0.0,0.0,0.0,0.0,0.0,0.0,0.0,0.0,0.0,0.0,0.0,0.0,0.0,0.0,0.0,0.0,0.0,0.0,0.0,0.0,0.0,0.0,0.0,0.0,0.0,0.0,0.0,0.0,0.0,0.0,0.0,0.0,0.0,0.0,0.0,0.0,0.0,0.0,0.0,0.0,0.0,0.0,0.0,0.0,0.0,0.0,0.0,0.0,0.0,0.0,0.0,0.0,0.0,0.0,0.0,0.0,0.0,0.0,0.0,0.0,0.0,0.0,0.0,0.0,0.0,0.0,0.0,0.0,0.0,0.0,0.0,0.0,0.0,0.0,0.0,0.0,0.0,0.0,0.0,0.0,0.0,0.0,0.0,0.0,0.0,0.0,0.0,0.0,0.0,0.0,0.0,0.0,0.0,0.0,0.0,0.4987,0.4787,0.4531,0.4187,0.3299,0.2636,0.2206,0.0,0.0,0.0,0.0,0.0,0.0,0.0,0.0,0.0,0.0,0.0,0.0,0.0,0.0,0.0,0.0,0.0,0.0,0.0,0.0,0.0,0.0,0.0,0.0,0.0,0.0,0.0,0.0,0.0,0.0,0.0,0.0,0.0,0.0,0.0,0.0,0.0,0.0,0.0,0.0,0.0,0.0,0.0,0.0,0.0,0.0,0.0,0.0,0.0,0.0,0.0,0.0,0.0,0.0,0.0,0.0,0.0,0.0,0.0,0.0,0.0,0.0,0.0,0.0,0.0,0.0,0.0,0.0,0.0,0.0,0.0,0.0,0.0,0.0,0.0,0.0,0.0,0.0,0.0,0.0,0.0,0.0,0.0,0.0,0.0,0.0,0.0,0.0,0.0,0.0,0.0,0.0,0.0,0.0,0.0,0.0,0.0,0.0,0.0,0.0,0.0,0.0,0.0,0.0,0.0,0.0,0.0,0.0,0.6264,0.6023,0.5375,0.4366,0.4022,0.3357,0.0,0.0,0.0,0.0,0.0,0.0,0.0,0.0,0.0,0.0,0.0,0.0,0.0,0.0,0.0,0.0,0.0,0.0,0.0,0.0,0.0,0.0,0.0,0.0,0.0,0.0,0.0,0.0,0.0,0.0,0.0,0.0,0.0,0.0,0.0,0.0,0.0,0.0,0.0,0.0,0.0,0.0,0.0,0.0,0.0,0.0,0.0,0.0,0.0,0.0,0.0,0.0,0.0,0.0,0.0,0.0,0.0,0.0,0.0,0.0,0.0,0.0,0.0,0.0,0.0,0.0,0.0,0.0,0.0,0.0,0.0,0.0,0.0,0.0,0.0,0.0,0.0,0.0,0.0,0.0,0.0,0.0,0.0,0.0,0.0,0.0,0.0,0.0,0.0,0.0,0.0,0.0,0.0,0.0,0.0,0.0,0.0,0.0,0.0,0.0,0.0,0.0,0.0,0.0,0.0,0.0,0.0,0.0,0.0,0.5647,0.568,0.5322,0.4621,0.4047,0.3421,0.0,0.0,0.0,0.0,0.0,0.0,0.0,0.0,0.0,0.0,0.0,0.0,0.0,0.0,0.0,0.0,0.0,0.0,0.0,0.0,0.0,0.0,0.0,0.0,0.0,0.0,0.0,0.0,0.0,0.0,0.0,0.0,0.0,0.0,0.0,0.0,0.0,0.0,0.0,0.0,0.0,0.0,0.0,0.0,0.0,0.0,0.0,0.0,0.0,0.0,0.0,0.0,0.0,0.0,0.0,0.0,0.0,0.0,0.0,0.0,0.0,0.0,0.0,0.0,0.0,0.0,0.0,0.0,0.0,0.0,0.0,0.0,0.0,0.0,0.0,0.0,0.0,0.0,0.0,0.0,0.0,0.0,0.0,0.0,0.0,0.0,0.0,0.0,0.0,0.0,0.0,0.0,0.0,0.0,0.0,0.0,0.0,0.0,0.0,0.0,0.0,0.0,0.0,0.0,0.0,0.0,0.0,0.0,0.6219,0.6232,0.6052,0.5669,0.5006,0.4417,0.3911,0.0,0.0,0.0,0.0,0.0,0.0,0.0,0.0,0.0,0.0,0.0,0.0,0.0,0.0,0.0,0.0,0.0,0.0,0.0,0.0,0.0,0.0,0.0,0.0,0.0,0.0,0.0,0.0,0.0,0.0,0.0,0.0,0.0,0.0,0.0,0.0,0.0,0.0,0.0,0.0,0.0,0.0,0.0,0.0,0.0,0.0,0.0,0.0,0.0,0.0,0.0,0.0,0.0,0.0,0.0,0.0,0.0,0.0,0.0,0.0,0.0,0.0,0.0,0.0,0.0,0.0,0.0,0.0,0.0,0.0,0.0,0.0,0.0,0.0,0.0,0.0,0.0,0.0,0.0,0.0,0.0,0.0,0.0,0.0,0.0,0.0,0.0,0.0,0.0,0.0,0.0,0.0,0.0,0.0,0.0,0.0,0.0,0.0,0.0,0.0,0.0,0.0,0.0,0.0,0.0,0.0,0.0,0.0,0.722,0.7322,0.6875,0.6291,0.5587,0.5055,0.4579,0.0,0.0,0.0,0.0,0.0,0.0,0.0,0.0,0.0,0.0,0.0,0.0,0.0,0.0,0.0,0.0,0.0,0.0,0.0,0.0,0.0,0.0,0.0,0.0,0.0,0.0,0.0,0.0,0.0,0.0,0.0,0.0,0.0,0.0,0.0,0.0,0.0,0.0,0.0,0.0,0.0,0.0,0.0,0.0,0.0,0.0,0.0,0.0,0.0,0.0,0.0,0.0,0.0,0.0,0.0,0.0,0.0,0.0,0.0,0.0,0.0,0.0,0.0,0.0,0.0,0.0,0.0,0.0,0.0,0.0,0.0,0.0,0.0,0.0,0.0,0.0,0.0,0.0,0.0,0.0,0.0,0.0,0.0,0.0,0.0,0.0,0.0,0.0,0.0,0.0,0.0,0.0,0.0,0.0,0.0,0.0,0.0,0.0,0.0,0.0,0.0,0.0,0.0,0.0,0.0,0.0,0.0,0.0,0.7337,0.7016,0.7256,0.7169,0.6743,0.5772,0.4958,0.0,0.0,0.0,0.0,0.0,0.0,0.0,0.0,0.0,0.0,0.0,0.0,0.0,0.0,0.0,0.0,0.0,0.0,0.0,0.0,0.0,0.0,0.0,0.0,0.0,0.0,0.0,0.0,0.0,0.0,0.0,0.0,0.0,0.0,0.0,0.0,0.0,0.0,0.0,0.0,0.0,0.0,0.0,0.0,0.0,0.0,0.0,0.0,0.7212,0.0,0.0,0.0,0.0,0.0,0.0,0.0,0.0,0.0,0.0,0.0,0.0,0.0,0.0,0.0,0.0,0.0,0.0,0.0,0.0,0.0,0.0,0.0,0.0,0.0,0.0,0.0,0.0,0.0,0.0,0.0,0.0,0.0,0.0,0.0,0.0,0.0,0.0,0.0,0.0,0.0,0.0,0.0,0.0,0.0,0.0,0.0,0.0,0.0,0.0,0.0,0.0,0.0,0.0,0.0,0.0,0.0,0.0,0.0,0.7908,0.7354,0.7409,0.7349,0.7082,0.6506,0.5831,0.0,0.0,0.0,0.0,0.0,0.0,0.0,0.0,0.0,0.0,0.0,0.0,0.0,0.0,0.0,0.0,0.0,0.0,0.0,0.0,0.0,0.0,0.0,0.0,0.0,0.0,0.0,0.0,0.0,0.0,0.0,0.0,0.0,0.0,0.0,0.0,0.0,0.0,0.0,0.0,0.0,0.0,0.0,0.0,0.0,0.0,0.0,0.0,0.0,0.0,0.0,0.0,0.0,0.0,0.0,0.0,0.0,0.0,0.0,0.0,0.0,0.0,0.0,0.0,0.0,0.0,0.0,0.0,0.0,0.0,0.0,0.0,0.0,0.0,0.0,0.0,0.0,0.0,0.0,0.0,0.0,0.0,0.0,0.0,0.0,0.0,0.0,0.0,0.0,0.0,0.0,0.0,0.0,0.0,0.0,0.0,0.0,0.0,0.0,0.0,0.0,0.0,0.0,0.0,0.0,0.0,0.0,0.8175,0.8527,0.7849,0.7582,0.7383,0.7196,0.714,0.6712,0.5929,0.0,0.0,0.0,0.0,0.0,0.0,0.0,0.0,0.0,0.0,0.0,0.0,0.0,0.0,0.0,0.0,0.0,0.0,0.0,0.0,0.0,0.0,0.0,0.0,0.0,0.0,0.0,0.0,0.0,0.0,0.0,0.0,0.0,0.0,0.0,0.0,0.0,0.0,0.6489,0.6949,0.0,0.0,0.0,0.0,0.0,0.0,0.0,0.0,0.7913,0.0,0.0,0.0,0.0,0.0,0.0,0.0,0.0,0.0,0.0,0.0,0.0,0.0,0.0,0.0,0.0,0.0,0.0,0.0,0.0,0.0,0.0,0.0,0.0,0.0,0.0,0.0,0.0,0.0,0.0,0.0,0.0,0.0,0.0,0.0,0.0,0.0,0.0,0.0,0.0,0.0,0.0,0.0,0.0,0.0,0.0,0.0,0.0,0.0,0.0,0.0,0.0,0.0,0.0,0.0,0.0,0.7595,0.8776,0.8853,0.7856,0.8151,0.808,0.763,0.729,0.6855,0.6332,0.0,0.0,0.0,0.0,0.0,0.0,0.0,0.0,0.0,0.0,0.0,0.0,0.0,0.0,0.0,0.0,0.0,0.0,0.0,0.0,0.0,0.0,0.0,0.0,0.0,0.0,0.0,0.0,0.0,0.0,0.0,0.0,0.0,0.0,0.0,0.0,0.0,0.0,0.0,0.809,0.8516,0.0,0.0,0.0,0.0,0.0,0.0,0.0,0.0,0.8277,0.0,0.0,0.0,0.0,0.0,0.0,0.0,0.0,0.0,0.0,0.0,0.0,0.0,0.0,0.0,0.0,0.0,0.0,0.0,0.0,0.0,0.0,0.0,0.0,0.0,0.0,0.0,0.0,0.0,0.0,0.0,0.0,0.0,0.0,0.0,0.0,0.0,0.0,0.0,0.0,0.0,0.0,0.0,0.0,0.0,0.0,0.0,0.0,0.0,0.0,0.0,0.0,0.0,0.0,0.0,0.8306,0.8847,0.8853,0.8324,0.8155,0.7954,0.77,0.731,0.6881,0.0,0.0,0.0,0.0,0.0,0.0,0.0,0.0,0.0,0.0,0.0,0.0,0.0,0.0,0.0,0.0,0.0,0.0,0.0,0.0,0.0,0.0,0.0,0.0,0.0,0.0,0.0,0.0,0.0,0.0,0.0,0.0,0.0,0.0,0.0,0.0,0.0,0.0,0.0,0.0,0.9493,1.0144,0.9964,0.0,0.0,0.0,0.0,0.0,0.0,0.9422,0.8864,0.0,0.0,0.0,0.0,0.0,0.0,0.0,0.0,0.0,0.0,0.0,0.0,0.0,0.0,0.0,0.0,0.0,0.0,0.0,0.0,0.0,0.0,0.0,0.0,0.0,0.0,0.0,0.0,0.0,0.0,0.0,0.0,0.0,0.0,0.0,0.0,0.0,0.0,0.0,0.0,0.0,0.0,0.0,0.0,0.0,0.0,0.0,0.0,0.0,0.0,0.0,0.0,0.0,0.0,0.0,0.878,0.8982,0.8974,0.8798,0.8186,0.7815,0.7686,0.7213,0.6771,0.0,0.0,0.0,0.0,0.0,0.0,0.0,0.0,0.0,0.0,0.0,0.0,0.0,0.0,0.0,0.0,0.0,0.0,0.0,0.0,0.0,0.0,0.0,0.0,0.0,0.0,0.0,0.0,0.0,0.0,0.0,0.0,0.0,0.0,0.0,0.0,0.0,0.0,0.0,0.0,0.0,1.175,1.0975,1.1183,0.0,0.0,0.0,0.0,1.079,1.0557,0.0,0.0,0.0,0.0,0.0,0.0,0.0,0.0,0.0,0.0,0.0,0.0,0.0,0.0,0.0,0.0,0.0,0.0,0.0,0.0,0.0,0.0,0.0,0.0,0.0,0.0,0.0,0.0,0.0,0.0,0.0,0.0,0.0,0.0,0.0,0.0,0.0,0.0,0.0,0.0,0.0,0.0,0.0,0.0,0.0,0.0,0.0,0.0,0.0,0.0,0.0,0.0,0.0,0.0,0.0,0.0,0.8785,0.9603,0.962,0.8834,0.8559,0.8197,0.7708,0.6908,0.6465,0.0,0.0,0.0,0.0,0.0,0.0,0.0,0.0,0.0,0.0,0.0,0.0,0.0,0.0,0.0,0.0,0.0,0.0,0.0,0.0,0.0,0.0,0.0,0.0,0.0,0.0,0.0,0.0,0.0,0.0,0.0,0.0,0.0,0.0,0.0,0.0,0.0,0.0,0.0,0.0,0.0,1.2945,0.9889,1.1592,1.2594,0.0,0.0,1.2861,1.3144,1.3199,0.0,0.0,0.0,0.0,0.0,0.0,0.0,0.0,0.0,0.0,0.0,0.0,0.0,0.0,0.0,0.0,0.0,0.0,0.0,0.0,0.0,0.0,0.0,0.0,0.0,0.0,0.0,0.0,0.0,0.0,0.0,0.0,0.0,0.0,0.0,0.0,0.0,0.0,0.0,0.0,0.0,0.0,0.0,0.0,0.0,0.0,0.0,0.0,0.0,0.0,0.0,0.0,0.0,0.0,0.0,0.7921,0.9749,1.0096,0.9844,0.91,0.8709,0.8248,0.772,0.6862,0.64,0.0,0.0,0.0,0.0,0.0,0.0,0.0,0.0,0.0,0.0,0.0,0.0,0.0,0.0,0.0,0.0,0.0,0.0,0.0,0.0,0.0,0.0,0.0,0.0,0.0,0.0,0.0,0.0,0.0,0.0,0.0,0.0,0.0,0.0,0.0,0.0,0.0,0.0,0.0,0.0,0.0,0.0,1.1607,1.3027,0.0,0.0,0.0,1.4366,1.3637,0.0,0.0,0.0,0.0,0.0,0.0,0.0,0.0,0.0,0.0,0.0,0.0,0.0,0.0,0.0,0.0,0.0,0.0,0.0,0.0,0.0,0.0,0.0,0.0,0.0,0.0,0.0,0.0,0.0,0.0,0.0,0.0,0.0,0.0,0.0,0.0,0.0,0.0,0.0,0.0,0.0,0.0,0.0,0.0,0.0,0.0,0.0,0.0,0.0,0.0,0.0,0.0,0.0,0.0,0.0,0.0,0.0,1.0514,1.0198,0.978,0.9309,0.8841,0.829,0.7708,0.6855,0.0,0.0,0.0,0.0,0.0,0.0,0.0,0.0,0.0,0.0,0.0,0.0,0.0,0.0,0.0,0.0,0.0,0.0,0.0,0.0,0.0,0.0,0.0,0.0,0.0,0.0,0.0,0.0,0.0,0.0,0.0,0.0,0.0,0.0,0.0,0.0,0.0,0.0,0.0,0.0,0.0,0.0,1.3502,1.3304,1.446,1.5455,0.0,0.0,1.5794,1.4814,1.5355,1.4687,0.0,0.0,0.0,0.0,0.0,0.0,0.0,0.0,0.0,0.0,0.0,0.0,0.0,0.0,0.0,0.0,0.0,0.0,0.0,0.0,0.0,0.0,0.0,0.0,0.0,0.0,0.0,0.0,0.0,0.0,0.0,0.0,0.0,0.0,0.0,0.0,0.0,0.0,0.0,0.0,0.0,0.0,0.0,0.0,0.0,0.0,0.0,0.0,0.0,0.0,0.0,0.0,0.0,0.0,0.0,1.0381,0.9809,0.9415,0.9296,0.8969,0.8439,0.7708,0.6862,0.64,0.0,0.0,0.0,0.0,0.0,0.0,0.0,0.0,0.0,0.0,0.0,0.0,0.0,0.0,0.0,0.0,0.0,0.0,0.0,0.0,0.0,0.0,0.0,0.0,0.0,0.0,0.0,0.0,0.0,0.0,0.0,0.0,0.0,0.0,0.0,0.0,0.0,0.0,0.0,0.0,0.0,1.4602,1.385,1.5567,1.7521,0.0,0.0,1.7197,1.771,1.8345,1.7263,1.2776,0.0,0.0,0.0,0.0,0.0,0.0,0.0,0.0,0.0,0.0,0.0,0.0,0.0,0.0,0.0,0.0,0.0,0.0,0.0,0.0,0.0,0.0,0.0,0.0,0.0,0.0,0.0,0.0,0.0,0.0,0.0,0.0,0.0,0.0,0.0,0.0,0.0,0.0,0.0,0.0,0.0,0.0,0.0,0.0,0.0,0.0,0.0,0.0,0.0,0.0,0.0,0.0,0.0,0.8083,1.0444,0.9704,0.9271,0.9279,0.8989,0.846,0.772,0.7128,0.6699,0.0,0.0,0.0,0.0,0.0,0.0,0.0,0.0,0.0,0.0,0.0,0.0,0.0,0.0,0.0,0.0,0.0,0.0,0.0,0.0,0.0,0.0,0.0,0.0,0.0,0.0,0.0,0.0,0.6391,0.7397,0.786,0.0,0.0,0.0,0.0,0.0,0.0,0.0,0.0,0.0,0.0,1.4996,1.5033,1.7132,0.0,0.0,1.9818,1.962,1.8712,1.8522,1.7213,1.3421,1.2143,0.0,0.0,0.0,0.0,0.0,0.0,0.0,0.0,0.0,0.0,0.0,0.0,0.0,0.0,0.0,0.0,0.0,0.0,0.0,0.0,0.0,0.0,0.0,0.0,0.0,0.0,0.0,0.0,0.0,0.0,0.0,0.0,0.0,0.0,0.0,0.0,0.0,0.0,0.0,0.0,0.0,0.0,0.0,0.0,0.0,0.0,0.0,0.0,0.0,0.0,0.0,0.0,0.796,1.0272,0.9571,0.9233,0.9337,0.8989,0.8509,0.7911,0.7379,0.6895,0.0,0.0,0.0,0.0,0.0,0.0,0.0,0.0,0.0,0.0,0.0,0.0,0.0,0.0,0.0,0.0,0.0,0.0,0.0,0.0,0.0,0.0,0.0,0.0,0.0,0.0,0.0,0.0,0.7554,0.8161,0.7947,0.0,0.0,0.0,0.0,0.0,0.0,0.0,0.0,0.0,0.0,1.5634,1.582,1.824,2.0016,1.9844,2.0401,2.0304,1.8739,1.8304,1.7104,1.4045,0.0,0.0,0.0,0.0,0.0,0.0,0.0,0.0,0.0,0.0,0.0,0.0,0.0,0.0,0.0,0.0,0.0,0.0,0.0,0.0,0.0,0.0,0.0,0.0,0.0,0.0,0.0,0.0,0.0,0.0,0.4125,0.0,0.0,0.0,0.0,0.0,0.0,0.0,0.0,0.0,0.0,0.0,0.0,0.0,0.0,0.0,0.0,0.0,0.0,0.0,0.0,0.0,0.0,0.0,0.9888,0.9434,0.9281,0.9381,0.9012,0.8634,0.8262,0.7504,0.6875,0.6406,0.0,0.0,0.0,0.0,0.0,0.0,0.0,0.0,0.0,0.0,0.0,0.0,0.0,0.0,0.0,0.0,0.0,0.0,0.0,0.0,0.0,0.0,0.0,0.0,0.0,0.0,0.8649,0.8163,0.7929,0.0,0.0,0.0,0.0,0.0,0.0,0.0,0.0,0.0,0.0,1.6456,1.6667,1.5963,1.8741,2.0656,2.0168,1.9506,1.8653,1.7781,1.7971,1.7376,0.0,0.0,0.0,0.0,0.0,0.0,0.0,0.0,0.0,0.0,0.0,0.0,0.0,0.0,0.0,0.0,0.0,0.0,0.0,0.0,0.0,0.0,0.0,0.0,0.0,0.0,0.0,0.5513,0.5008,0.0,0.0,0.0,0.0,0.0,0.0,0.0,0.0,0.0,0.0,0.0,0.8188,0.8041,0.0,0.0,0.0,0.0,0.0,0.0,0.0,0.0,0.0,0.0,0.0,0.0,0.8332,1.0099,0.9398,0.9217,0.9632,0.9359,0.8917,0.8326,0.8039,0.7477,0.6547,0.0,0.0,0.0,0.0,0.0,0.0,0.0,0.0,0.0,0.0,0.0,0.0,0.0,0.0,0.0,0.0,0.0,0.0,0.0,0.0,0.0,0.0,0.0,0.0,0.0,0.9257,0.0,0.0,0.0,0.0,0.0,0.0,0.0,0.0,0.0,0.0,0.0,1.3557,1.6653,1.6578,1.6569,1.7528,1.867,1.9737,0.0,0.0,0.0,0.0,0.0,0.0,0.0,0.0,0.0,0.0,0.0,0.0,0.0,0.0,1.8338,1.5528,1.4863,1.4835,1.5049,0.0,0.0,0.0,0.0,0.0,0.0,0.0,0.0,0.0,0.0,0.0,0.0,0.0,0.0,0.0,0.0,0.5635,0.0,0.0,0.0,0.0,0.0,0.0,0.0,0.0,0.7836,0.8416,0.9242,0.9242,0.9473,0.0,0.9115,0.8399,0.0,0.0,0.0,0.0,0.0,0.0,0.0,0.0,0.8667,1.0042,0.9552,0.944,0.9792,0.9405,0.8971,0.8488,0.8102,0.7558,0.6916,0.6374,0.6115,0.0,0.0,0.0,0.0,0.0,0.0,0.0,0.0,0.0,0.0,0.0,0.0,0.0,0.0,0.0,0.0,0.0,0.0,0.0,0.0,0.0,0.0,0.0,0.8666,0.0,0.0,0.0,0.0,0.0,0.0,0.0,0.0,0.0,1.202,1.3155,1.49,1.7373,1.7116,1.7161,1.8357,0.0,0.0,0.0,0.0,0.0,0.0,0.0,1.7043,1.7125,1.7116,1.7495,1.8641,1.685,1.6787,2.1525,0.0,0.0,1.812,1.7403,1.7348,1.7574,1.759,1.7513,1.7503,1.7298,1.693,0.0,0.0,0.0,0.0,0.0,0.0,0.0,0.0,0.6315,0.599,0.0,0.6595,0.0,0.0,0.0,0.0,0.0,0.0,0.0,0.0,0.9276,0.9887,0.9864,0.9907,0.9916,0.9939,1.0049,1.0083,0.999,0.7753,0.0,0.0,0.0,0.0,0.0,0.0,0.882,0.9618,0.9786,0.9878,0.9868,0.9185,0.8792,0.8743,0.7701,0.7223,0.7375,0.7022,0.6661,0.635,0.6502,0.0,0.0,0.0,0.0,0.0,0.0,0.0,0.0,0.0,0.0,0.0,0.0,0.0,0.0,0.0,0.0,0.0,0.0,0.0,0.0,0.8543,0.0,0.0,0.0,0.0,0.0,0.0,0.0,0.0,0.0,0.0,1.6981,1.6671,1.6485,1.7565,0.0,0.0,0.0,0.0,1.768,1.7642,1.702,1.6425,1.6008,1.725,1.8254,1.8311,0.0,0.0,2.337,2.2513,2.2004,2.334,2.3466,2.3286,2.2365,2.0791,1.9973,2.0444,1.9216,1.8474,1.9397,1.922,1.8965,0.9563,0.0,0.0,0.0,0.0,0.8782,0.9205,0.96,0.9329,0.844,0.724,0.8021,0.0,0.0,0.0,0.0,0.0,0.0,0.8901,0.9132,0.9416,0.9672,0.9904,1.0151,1.0485,1.0902,1.0683,1.0676,1.0764,0.9635,0.8735,0.8121,0.0,0.0,0.0,0.0,0.9261,1.002,0.9725,0.965,0.9899,0.9462,0.8978,0.8439,0.7862,0.7553,0.7617,0.7376,0.7186,0.7098,0.704,0.0,0.0,0.0,0.0,0.0,0.0,0.0,0.0,0.0,0.0,0.0,0.0,0.0,0.0,0.0,0.0,0.0,0.0,0.0,0.9562,0.9691,0.9628,0.0,0.0,0.0,0.0,0.0,0.0,0.0,0.0,0.0,1.5049,1.6863,1.8068,0.0,0.0,1.8933,1.7765,1.8466,1.8757,1.7737,0.0,0.0,0.0,1.813,1.7924,1.8691,2.0208,2.1538,2.212,2.2682,2.3161,2.355,2.2857,2.2306,2.2542,2.2224,2.1762,2.1454,2.0952,2.069,2.1013,2.0626,2.0309,1.1155,1.0186,0.9444,0.9329,0.9678,1.0054,1.0356,1.0559,1.0345,0.967,0.8758,0.9293,1.0368,1.1705,0.9641,0.0,0.0,0.0,0.9525,0.9723,0.9922,1.0129,1.0313,1.0515,1.084,1.1267,1.1096,1.1135,1.1369,1.0784,1.0207,0.9577,0.0,0.0,0.93,0.9531,0.9768,1.0045,0.9895,0.9824,0.9893,0.9422,0.8814,0.8091,0.7824,0.7678,0.7678,0.7573,0.7586,0.7742,0.7505,0.7428,0.0,0.0,0.0,0.0,0.0,0.0,0.0,0.0,0.0,0.0,0.0,0.6292,0.0,0.0,0.0,0.0,0.9054,1.067,1.065,1.0363,0.0,0.0,0.0,0.0,0.0,0.0,0.0,1.2695,1.4813,1.5486,1.34,1.6985,1.9702,1.9327,1.9082,1.8853,1.879,0.0,1.8446,1.8463,1.8215,1.832,1.913,1.8823,1.8809,1.9878,2.065,2.1258,2.1636,2.274,2.3748,2.4149,2.3739,2.3203,2.3077,2.3053,2.2844,2.2213,2.1827,2.1725,2.1905,2.1507,2.1004,1.2397,1.2318,1.1573,1.1135,1.0876,1.0772,1.0548,1.0303,1.0147,1.0079,1.0162,1.0462,1.1047,1.1741,1.0545,0.0,0.0,1.003,1.0086,0.9972,1.0588,1.0829,1.0799,1.0841,1.0995,1.1233,1.1273,1.1431,1.169,1.1323,1.1121,1.1026,1.0647,1.0341,1.0128,1.0309,1.0201,0.9724,1.0082,1.012,0.9803,0.9161,0.8446,0.7715,0.7678,0.7678,0.7678,0.7678,0.7882,0.8255,0.7983,0.8112,0.8706,0.0,0.0,0.0,0.0,0.0,0.0,0.0,0.0,0.0,0.0,0.0,0.0,0.0,0.0,0.0,1.0521,0.0,1.2037,1.1012,0.0,0.0,0.0,1.2424,1.3294,1.4408,1.4763,1.3902,0.0,0.0,1.2783,0.0,2.1315,2.1784,1.9681,1.8775,2.0776,1.8755,1.765,1.9694,1.9406,1.8899,1.8913,1.9506,2.0484,2.1595,2.1813,2.1713,2.156,2.2346,2.371,2.4986,2.5449,2.5072,2.3717,2.3364,2.3243,2.2622,2.2016,2.176,2.2113,2.1836,2.1174,1.3242,1.3108,1.2931,1.2401,1.1675,1.22,1.2246,1.1997,1.176,1.1775,1.1922,1.1627,1.161,1.1749,1.1213,1.0939,1.0903,1.0768,1.0563,1.0307,1.0441,1.0392,1.0154,1.041,1.0537,1.0646,1.1089,1.125,1.1135,1.1473,1.1156,1.0324,1.0801,1.0668,0.9891,0.9358,0.9271,0.9621,0.9473,0.9305,0.9054,0.8874,0.8446,0.7708,0.7678,0.7678,0.7678,0.7678,0.7882,0.8283,0.8446,0.8598,0.8762,0.7411,0.0,0.0,0.0,0.0,0.0,0.0,0.0,0.0,0.0,0.7645,0.6529,0.0,1.0313,0.0,0.822,1.0321,1.3065,1.3981,0.0,0.0,1.3866,1.4654,1.5723,1.6982,1.7372,1.6352,1.8603,1.9669,1.803,2.0417,2.2523,2.3011,2.2024,2.1306,2.1505,2.1007,2.063,2.1137,2.1387,2.1348,2.0955,2.1034,2.1683,2.2996,2.2749,2.1915,2.05,2.0471,2.1365,2.3287,2.4696,2.4624,2.3098,2.2322,2.2203,2.2261,2.1917,2.1566,2.1693,2.1605,2.1343,1.3383,1.3213,1.3217,1.2759,1.2054,1.2597,1.2674,1.2407,1.1972,1.1957,1.2225,1.1624,1.1398,1.1381,1.1049,1.0915,1.0921,1.0609,1.0385,1.0246,1.0206,1.0078,0.9931,1.0097,1.0391,1.078,1.1088,1.1383,1.1612,1.1951,1.1781,1.1129,1.144,1.1229,1.0419,0.974,0.9412,0.9387,0.9664,0.9717,0.9462,0.9271,0.8687,0.7749,0.7525,0.7323,0.7142,0.7142,0.7343,0.783,0.8467,0.8958,0.9235,0.8514,0.7794,0.0,0.0,0.0,0.0,0.0,0.0,0.0,0.0,0.0,0.0,0.0,1.1276,0.0,1.0463,0.0,1.5277,1.6211,1.6241,1.5217,1.5766,1.6555,1.7497,1.8506,1.916,1.916,2.0806,2.1854,2.1485,2.2403,2.3212,2.355,2.3161,2.2812,2.2611,2.2549,2.2546,2.2546,2.2786,2.2887,2.2606,2.2565,2.2778,2.3478,2.334,2.272,2.1731,2.1534,2.2102,2.38,2.4824,2.508,2.3959,2.3496,2.3267,2.3077,2.268,2.2261,2.2207,2.2207,2.2132,1.3204,1.3004,1.2977,1.267,1.2266,1.242,1.233,1.2055,1.1525,1.1454,1.1672,1.1308,1.1095,1.0966,1.0653,1.0586,1.0666,1.0214,1.0073,1.0201,1.0138,1.0119,1.0119,1.0112,1.0531,1.1232,1.128,1.1681,1.2372,1.2456,1.2443,1.2271,1.2089,1.1672,1.1037,1.0703,1.0113,0.9245,1.0186,1.0542,1.0212,0.9743,0.8895,0.7687,0.7299,0.6914,0.6468,0.6536,0.6852,0.7438,0.8175,0.8926,0.9654,0.9573,0.8963,0.0,0.924,0.0,0.0,0.0,0.0,0.0,0.0,0.0,0.0,1.0685,1.1192,1.2229,1.4932,1.7007,1.7902,1.7959,1.7699,1.7047,1.7597,1.8298,1.8976,1.9548,2.0402,2.1615,2.2124,2.2662,2.337,2.3599,2.3569,2.358,2.358,2.349,2.355,2.3537,2.3542,2.3778,2.392,2.3985,2.4076,2.4002,2.3969,2.4066,2.4177,2.4119,2.4193,2.4193,2.452,2.5394,2.5508,2.5398,2.5453,2.5315,2.4938,2.4325,2.357,2.305,2.302,2.301,2.3095,1.3054,1.2986,1.2773,1.2631,1.2478,1.2041,1.1735,1.1459,1.1341,1.1227,1.1142,1.2028,1.2103,1.1485,1.1228,1.1347,1.1678,1.0954,1.0858,1.1313,1.1287,1.1274,1.1289,1.1289,1.1368,1.1518,1.1747,1.1813,1.1792,1.2271,1.2003,1.1087,1.1676,1.1391,1.0262,0.0,0.0,0.0,1.0385,1.0387,0.9739,0.9214,0.84,0.7267,0.729,0.0,0.6786,0.7358,0.7863,0.8237,0.7772,0.0,0.0,0.0,0.0,0.0,0.0,0.0,0.0,0.0,0.0,0.0,1.178,1.1884,1.1795,1.1663,1.2537,1.488,1.8725,2.0579,1.9437,1.9348,1.907,1.8463,1.9206,2.007,2.0716,2.0923,2.1338,2.2074,2.2433,2.2882,2.346,2.3599,2.3599,2.3599,2.3599,2.3599,2.361,2.3629,2.3988,2.4952,2.5188,2.5444,2.597,2.5533,2.5376,2.5779,2.5951,2.6174,2.6591,2.676,2.6802,2.7084,2.6229,2.555,2.5849,2.5203,2.4552,2.4322,2.3677,2.3095,2.3095,2.3095,2.3095,1.3485,0.0,1.293,1.2622,0.0,1.2042,1.1782,1.126,1.1248,1.1256,1.1287,1.1734,1.1874,1.1651,1.101,1.0845,1.1103,1.0892,1.0971,1.1263,1.1494,1.159,1.159,1.159,1.1733,1.1985,1.2132,1.227,1.2387,1.2688,1.2525,1.1946,1.237,1.2226,1.1593,1.2095,1.1852,1.0787,1.1184,1.1035,1.0324,0.9816,0.9212,0.8418,0.0,0.0,0.0,0.0,0.0,0.0,0.0,0.0,0.0,0.0,0.0,1.2291,1.3307,1.3478,1.2861,1.3113,1.3549,1.4164,1.4835,1.4276,1.213,1.3629,1.556,1.7537,1.9758,2.0649,1.9833,1.9708,1.9558,1.9267,1.9871,2.0578,2.1246,2.1352,2.1381,2.1653,2.2283,2.2942,2.352,2.3599,2.3599,2.364,2.401,2.429,2.429,2.4178,2.4586,2.5854,2.6093,2.6333,2.6931,2.6827,2.6608,2.6973,2.7049,2.719,2.7522,2.7585,2.7585,2.7534,2.6954,2.6454,2.6052,2.5412,2.4851,2.4738,2.3901,2.314,2.3095,2.3095,2.3095,1.3829,1.2347,1.2998,1.2588,1.1556,1.1965,1.177,1.1157,0.0,0.0,0.0,1.1341,1.1344,1.147,1.0646,1.0332,1.049,1.0718,1.0913,1.107,1.1463,1.169,1.176,1.1665,1.1913,1.2399,1.2324,1.2581,1.3061,1.3086,1.312,1.3189,1.3207,1.3207,1.3189,1.3051,1.2605,1.1891,1.2014,1.1696,1.0911,1.055,1.0118,0.9597,0.9303,0.9189,0.9249,0.9387,0.9573,0.9753,0.8852,0.849,0.8885,0.9893,1.1602,1.4086,1.5436,1.5627,1.4596,1.4992,1.5822,1.6995,1.7579,1.6443,1.3077,1.5815,1.8267,1.9588,1.9708,1.9717,1.9708,1.9708,1.9708,1.9717,2.0177,2.075,2.1353,2.1516,2.151,2.1519,2.2224,2.2942,2.349,2.3599,2.3599,2.3699,2.438,2.511,2.5219,2.5267,2.5555,2.6363,2.6644,2.6973,2.7435,2.7542,2.7547,2.7289,2.7433,2.7509,2.7318,2.742,2.7572,2.7585,2.7585,2.7097,2.6214,2.5618,2.5356,2.5217,2.409,2.313,2.3246,2.3271,2.3296,1.3368,1.254,1.2503,1.2408,1.2259,1.122,1.0858,1.0977,1.1437,1.1606,1.1605,1.1681,1.1251,1.0525,1.0771,1.1128,1.1546,1.1147,1.122,0.0,1.1741,1.1981,1.2355,1.1954,1.2027,1.2416,1.2073,1.2138,1.2561,1.2615,1.2791,1.3163,1.3207,1.3198,1.3138,1.241,1.213,1.238,1.2201,1.1584,1.0521,1.0302,0.9892,0.9236,0.9392,0.9481,0.9537,1.0177,1.0499,1.0552,1.1111,1.1365,1.1181,1.2128,1.375,1.5943,1.6947,1.734,1.7145,1.725,1.7601,1.8335,1.8514,1.8057,1.7049,1.7362,1.8267,1.9549,1.9708,1.9708,1.9708,1.9768,1.9798,1.9834,2.0596,2.1211,2.1405,2.1864,2.2355,2.2843,2.2788,2.2942,2.346,2.361,2.367,2.3759,2.459,2.535,2.6207,2.6854,2.6956,2.6794,2.7093,2.7465,2.7555,2.7585,2.7382,2.672,2.7242,2.7255,2.6241,2.6916,2.7534,2.7585,2.7585,2.7032,2.5823,2.5439,2.5202,2.4708,2.3802,2.3311,2.3738,2.3888,2.3904,1.3426,1.2616,1.2657,1.2356,1.18,1.1039,1.0973,1.136,1.1346,1.1468,1.1673,1.1484,1.0972,1.0332,1.0525,1.0774,1.0993,1.099,1.1141,1.1384,1.1662,1.1922,1.2104,1.2063,1.2063,1.209,1.1727,1.1873,1.2431,1.2523,1.2727,1.3172,1.3207,1.3077,1.2791,1.2401,1.2177,1.2117,1.2001,1.1546,1.0746,1.0405,1.036,1.0536,1.0698,1.1019,1.1526,1.1874,1.2046,1.2054,1.2463,1.2622,1.2496,1.2956,1.4177,1.6379,1.7938,1.8493,1.7863,1.8429,1.8912,1.9202,1.925,1.9121,1.8822,1.8783,1.9031,1.9648,1.9708,2.0014,2.0682,2.0775,2.0775,2.0786,2.1436,2.1988,2.2387,2.2659,2.3134,2.3701,2.3456,2.3302,2.3561,2.3898,2.4197,2.4399,2.5219,2.6177,2.7016,2.7375,2.7495,2.7255,2.7405,2.7555,2.7585,2.7585,2.7433,2.7139,2.7369,2.7318,2.668,2.7251,2.7509,2.7585,2.7615,2.6993,2.5701,2.5384,2.5172,2.4845,2.4124,2.3906,2.4264,2.4598,2.4673,1.3516,1.2429,1.2615,1.2023,1.0946,1.0928,1.1136,1.1403,1.1019,1.1075,1.1366,1.1019,1.0659,1.0322,1.0303,1.0322,1.0351,1.0668,1.0829,1.0877,1.1263,1.1523,1.1616,1.174,1.1713,1.1588,1.1245,1.1445,1.209,1.229,1.2585,1.299,1.2955,1.2703,1.2347,1.2207,1.2072,1.1968,1.1868,1.1542,1.1017,1.0534,1.0766,1.1717,1.1789,1.224,1.3129,1.3207,1.3257,1.3391,1.3391,1.3341,1.3223,1.3457,1.4453,1.6393,1.8052,1.8756,1.8268,1.8983,1.956,1.9699,1.9708,1.9708,1.9708,1.9708,1.9708,1.9708,1.9708,2.0246,2.1411,2.1988,2.2014,2.1804,2.2109,2.2558,2.3128,2.3293,2.358,2.4081,2.3858,2.358,2.3699,2.4197,2.4765,2.5357,2.6207,2.7003,2.7495,2.7585,2.7585,2.7585,2.7585,2.7585,2.7585,2.7585,2.7572,2.7585,2.7752,2.7714,2.7603,2.7547,2.7585,2.7675,2.8261,2.7788,2.6329,2.5812,2.5603,2.5146,2.4514,2.4371,2.4867,2.5326,2.5544,1.3322,1.2186,1.1913,1.1023,0.9951,1.065,1.0798,1.0496,1.038,1.039,1.0477,1.038,1.0351,1.0303,1.0303,1.0303,1.0303,1.0341,1.038,1.039,1.0419,1.0669,1.1028,1.0687,1.0677,1.0972,1.0629,1.0734,1.1235,1.1671,1.2122,1.2464,1.2126,1.1918,1.1831,1.1412,1.1579,1.241,1.2032,1.1533,1.1004,1.0546,1.0783,1.1767,1.1813,1.2258,1.3154,1.3207,1.3441,1.3937,1.4022,1.3786,1.3391,1.4161,1.5251,1.6385,1.6721,1.7347,1.8646,1.8911,1.9183,1.9645,1.9708,1.9708,1.9708,1.9708,1.9708,1.9828,1.9798,2.0294,2.1595,2.2677,2.2863,2.2003,2.2347,2.2715,2.2877,2.3245,2.3595,2.3666,2.3664,2.361,2.3759,2.4377,2.5173,2.6255,2.6914,2.7393,2.7555,2.7585,2.7585,2.7585,2.7585,2.7585,2.7585,2.7585,2.7645,2.7675,2.8111,2.8231,2.7991,2.7794,2.7645,2.85,2.9328,2.9449,2.7849,2.6868,2.6391,2.5339,2.4895,2.4917,2.5435,2.5929,2.6223,1.2248,1.1856,1.1417,1.0737,1.008,1.0433,1.0477,1.0312,1.0303,1.0303,1.0303,1.0303,1.0303,1.0303,1.0303,1.0303,1.0303,1.0303,1.0303,1.0303,1.0303,1.0419,1.0534,1.0399,1.0409,1.0563,1.039,1.0534,1.1019,1.1533,1.1913,1.2059,1.1886,1.1666,1.1366,1.1431,1.168,1.2045,1.1913,1.1818,1.1818,1.144,1.1399,1.1774,1.2068,1.2525,1.3201,1.3566,1.4013,1.4525,1.4585,1.4466,1.4221,1.4657,1.5387,1.6407,1.6805,1.7548,1.8807,1.8893,1.9118,1.9663,1.9708,1.9708,1.9708,1.9708,2.0268,2.1555,2.0627,2.0499,2.2505,2.3288,2.3363,2.2964,2.3084,2.3231,2.3231,2.3419,2.3599,2.3599,2.3599,2.386,2.45,2.5566,2.6524,2.7123,2.7465,2.7585,2.7585,2.7585,2.7585,2.7585,2.7585,2.7585,2.7615,2.7585,2.7764,2.8111,2.841,2.8487,2.9056,2.8889,2.8979,2.9654,2.9944,2.9825,2.8521,2.7031,2.6109,2.5418,2.5636,2.5879,2.6097,2.6323,2.6474,1.1486,1.1489,1.0967,1.0458,1.0076,1.0231,1.0303,1.0303,1.0303,1.0303,1.0303,1.0303,1.0303,1.0303,1.0303,1.0303,1.0303,1.0303,1.0303,1.0303,1.0303,1.0303,1.0303,1.0303,1.0303,1.0303,1.0312,1.0544,1.099,1.1366,1.1579,1.1579,1.1579,1.1328,1.0934,1.144,1.1799,1.184,1.2009,1.2339,1.2593,1.2366,1.2123,1.206,1.2463,1.2986,1.3504,1.4038,1.4551,1.5085,1.511,1.5185,1.5326,1.5336,1.5693,1.6428,1.699,1.7683,1.8636,1.8817,1.9118,1.9636,1.9708,1.9708,1.9708,1.9708,2.0896,2.3011,2.1844,2.1734,2.3161,2.3599,2.3599,2.3599,2.3599,2.3599,2.358,2.3599,2.367,2.3849,2.3928,2.4298,2.5338,2.6596,2.7495,2.7525,2.7585,2.7585,2.7585,2.7585,2.7585,2.7615,2.7735,2.7872,2.7884,2.7944,2.8201,2.8697,2.9026,2.9461,3.0165,3.0,3.0163,3.0546,2.9721,2.8725,2.7937,2.6731,2.6205,2.6044,2.6155,2.6424,2.6399,2.6499,2.6499,1.1486,1.099,1.0534,1.0085,0.9668,1.0107,1.0303,1.0303,1.0303,1.0303,1.0303,1.0303,1.0303,1.0303,1.0303,1.0303,1.0303,1.0303,1.0303,1.0303,1.0303,1.0303,1.0303,1.0303,1.0303,1.0303,1.0303,1.0534,1.0962,1.1019,1.1038,1.1047,1.1075,1.082,1.0602,1.1375,1.179,1.1941,1.2623,1.312,1.3155,1.3138,1.2946,1.2602,1.2986,1.3517,1.4035,1.4573,1.511,1.5643,1.5678,1.5894,1.6335,1.6385,1.6436,1.6554,1.6995,1.7537,1.8112,1.8607,1.909,1.9608,1.9759,1.9738,1.9708,1.9848,2.0986,2.334,2.331,2.331,2.352,2.3599,2.3599,2.3599,2.3599,2.3599,2.3599,2.367,2.3928,2.4365,2.4575,2.5094,2.6303,2.7123,2.7525,2.7585,2.7585,2.7585,2.7615,2.7615,2.7675,2.7824,2.8141,2.8547,2.859,2.856,2.8859,2.9325,2.9834,3.0299,3.0524,3.0749,3.1182,3.1116,2.9905,2.8652,2.7371,2.6799,2.6813,2.6688,2.6399,2.6474,2.6499,2.6499,2.6499,1.0726,1.0544,1.039,1.0215,1.0078,1.0234,1.0303,1.0303,1.0303,1.0303,1.0303,1.0303,1.0303,1.0303,1.0303,1.0303,1.0303,1.0303,1.0303,1.0303,1.0303,1.0303,1.0303,1.0303,1.0303,1.0303,1.0303,1.037,1.0515,1.0554,1.0554,1.0621,1.0858,1.0896,1.0943,1.1754,1.2258,1.2321,1.2887,1.3207,1.3307,1.3892,1.4028,1.3566,1.3708,1.4071,1.466,1.5152,1.5653,1.6174,1.621,1.6285,1.6486,1.65,1.65,1.6522,1.6678,1.7167,1.7963,1.8297,1.8779,1.9629,2.0109,2.0139,1.9968,2.0507,2.1734,2.3161,2.3599,2.3599,2.3599,2.3599,2.3599,2.3599,2.3599,2.361,2.3689,2.3958,2.4335,2.4664,2.5274,2.6123,2.6554,2.7195,2.7585,2.7585,2.7585,2.7615,2.7675,2.7931,2.8291,2.8483,2.8889,2.9385,2.9804,2.9458,2.9428,2.9924,3.0402,3.0717,3.0972,3.1122,3.1451,3.1248,3.0102,2.8508,2.7229,2.6662,2.6799,2.6731,2.6499,2.6499,2.6499,2.66,2.6549,1.0196,1.0059,1.003,0.9932,0.9795,0.9971,0.9942,0.9853,1.0147,1.0196,1.0088,1.0215,1.0303,1.0303,1.0303,1.0303,1.0303,1.0303,1.0303,1.0303,1.0303,1.0303,1.0342,1.0469,1.0537,1.0498,1.0508,1.0449,1.0332,1.042,1.043,1.0342,1.0906,1.1147,1.1202,1.2169,1.2746,1.2827,1.3071,1.3367,1.3772,1.4484,1.4847,1.4646,1.4612,1.4783,1.5212,1.5714,1.6109,1.6461,1.65,1.65,1.65,1.65,1.65,1.6536,1.6672,1.7104,1.7851,1.819,1.8769,1.9629,2.0279,2.0518,2.0408,2.1196,2.2263,2.3251,2.3599,2.3599,2.3599,2.3599,2.3599,2.3599,2.3599,2.3699,2.3898,2.4306,2.4724,2.5244,2.6195,2.6794,2.6986,2.7345,2.7555,2.7585,2.7794,2.7944,2.7764,2.8487,2.9175,2.9309,2.9638,2.9983,3.0342,3.0223,3.0253,3.0687,3.0777,3.1106,3.1241,3.1421,3.1408,3.1175,3.0102,2.8443,2.7347,2.6696,2.6499,2.6499,2.6499,2.6499,2.66,2.6768,2.6843,0.9981,0.9577,0.9489,0.9268,0.899,0.9408,0.9248,0.9141,0.9912,1.0097,0.9869,1.0127,1.0381,1.0371,1.041,1.0361,1.042,1.0361,1.0303,1.0303,1.0303,1.0342,1.0381,1.078,1.0986,1.0908,1.0918,1.0723,1.044,1.0752,1.0742,1.0577,1.1275,1.1553,1.111,1.2577,1.3321,1.3381,1.3378,1.3806,1.4759,1.4955,1.5232,1.5564,1.5614,1.5658,1.5713,1.6199,1.6461,1.65,1.65,1.65,1.65,1.65,1.65,1.6568,1.696,1.735,1.7676,1.8356,1.8997,1.9778,2.0378,2.1027,2.1465,2.1754,2.2383,2.334,2.3599,2.3599,2.3599,2.3599,2.3599,2.361,2.367,2.3958,2.4395,2.4623,2.5053,2.6117,2.7016,2.7525,2.7555,2.7555,2.7615,2.7854,2.8261,2.8543,2.8154,2.9072,2.9986,3.0225,3.0388,3.0598,3.0807,3.1017,3.1226,3.1421,3.1361,3.1421,3.1391,3.1511,3.1511,3.119,2.9426,2.7835,2.7044,2.6499,2.6499,2.6499,2.6499,2.6575,2.6776,2.6977,2.7253,0.9656,0.9468,0.9108,0.907,0.9231,0.9438,0.9587,0.9814,1.0186,1.0331,1.0472,1.0632,1.0889,1.1056,1.0859,1.0879,1.1136,1.0626,1.0322,1.0342,1.0322,1.0459,1.0703,1.0888,1.1103,1.136,1.138,1.1321,1.1223,1.131,1.1301,1.1348,1.1818,1.2265,1.2499,1.3347,1.3958,1.4359,1.4381,1.456,1.497,1.5633,1.5917,1.5734,1.6042,1.626,1.626,1.64,1.65,1.65,1.65,1.65,1.65,1.65,1.65,1.65,1.6626,1.7157,1.7851,1.8218,1.8979,2.0142,2.1006,2.1575,2.2124,2.2662,2.3101,2.358,2.3599,2.3599,2.3599,2.3599,2.3629,2.3599,2.4018,2.4406,2.4938,2.5525,2.6273,2.7016,2.7435,2.7585,2.7585,2.7615,2.7884,2.8376,2.868,2.8697,2.9069,2.9641,3.0494,3.0928,3.1062,3.1092,3.1196,3.1286,3.1421,3.16,3.16,3.1248,3.1278,3.1482,3.1482,3.0419,2.8684,2.7587,2.6816,2.6549,2.66,2.6575,2.66,2.6776,2.6984,2.7311,2.7663,0.925,0.8889,0.8765,0.8775,0.896,0.9298,0.9658,0.9979,1.0359,1.066,1.0843,1.1078,1.131,1.1497,1.1291,1.133,1.1517,1.0997,1.0792,1.0743,1.0576,1.0772,1.1152,1.1348,1.1513,1.1769,1.1828,1.1741,1.1615,1.1752,1.1741,1.1724,1.2443,1.2956,1.3328,1.4166,1.4858,1.5171,1.5377,1.5502,1.5618,1.616,1.6325,1.6095,1.6335,1.65,1.65,1.65,1.65,1.65,1.65,1.65,1.65,1.65,1.65,1.65,1.6565,1.6921,1.7763,1.8023,1.8899,2.0478,2.1365,2.1844,2.2363,2.3101,2.358,2.3599,2.3599,2.401,2.4848,2.4567,2.4197,2.365,2.4197,2.4885,2.5518,2.6417,2.7033,2.7465,2.7585,2.7585,2.7585,2.7914,2.8261,2.8963,2.9249,2.9205,2.9758,3.0209,3.0883,3.1331,3.1361,3.1391,3.1451,3.154,3.16,3.169,3.172,3.1146,3.0778,3.1219,3.1395,2.927,2.743,2.7162,2.6499,2.6776,2.6901,2.6851,2.6901,2.7286,2.7645,2.7896,2.8197,0.8866,0.8064,0.849,0.8459,0.8229,0.9051,0.9405,0.9504,1.0417,1.0841,1.0953,1.1396,1.1663,1.1682,1.1682,1.1693,1.1665,1.1536,1.1567,1.1517,1.13,1.125,1.1612,1.1981,1.2184,1.2242,1.2242,1.2059,1.185,1.2101,1.2074,1.2052,1.3138,1.3748,1.3809,1.4973,1.563,1.5763,1.6185,1.6375,1.6385,1.6475,1.6486,1.645,1.6475,1.65,1.65,1.65,1.65,1.65,1.65,1.65,1.65,1.65,1.65,1.6522,1.6554,1.7099,1.7642,1.8228,1.9215,2.103,2.1615,2.1934,2.2513,2.3191,2.3599,2.3599,2.3599,2.4627,2.6417,2.6405,2.5255,2.4178,2.4706,2.5555,2.6494,2.7195,2.7465,2.7585,2.7615,2.7615,2.7705,2.8171,2.8949,2.9638,3.0103,3.0013,3.0223,3.0717,3.1301,3.1511,3.1511,3.169,3.175,3.1869,3.193,3.1854,3.181,3.1287,3.0256,3.0443,3.0461,2.8348,2.7224,2.6856,2.6776,2.7135,2.7336,2.7361,2.7587,2.7996,2.8254,2.8455,2.8699,0.8754,0.8521,0.8653,0.8622,0.8543,0.9042,0.9187,0.9299,1.0258,1.0889,1.1182,1.1757,1.2207,1.2516,1.2187,1.2227,1.2308,1.1889,1.2007,1.2426,1.2078,1.1942,1.2117,1.25,1.2707,1.2707,1.2656,1.268,1.2551,1.2657,1.2859,1.3248,1.3614,1.4272,1.4958,1.541,1.5876,1.6221,1.64,1.65,1.65,1.65,1.65,1.65,1.65,1.65,1.65,1.65,1.65,1.65,1.65,1.65,1.65,1.65,1.6532,1.6703,1.7266,1.795,1.8621,1.9107,2.029,2.1973,2.2273,2.2662,2.3191,2.346,2.3599,2.3599,2.364,2.4758,2.6896,2.7255,2.6596,2.6105,2.6273,2.6854,2.7195,2.7478,2.7585,2.7645,2.8021,2.8081,2.8171,2.868,2.9714,3.0538,3.0658,3.0508,3.0763,3.1212,3.1839,3.16,3.16,3.1869,3.2049,3.2198,3.2228,3.2084,3.1906,3.1616,3.0243,2.9149,2.8755,2.7622,2.7928,2.7756,2.7695,2.7846,2.7871,2.7914,2.8115,2.8398,2.8605,2.8831,2.9107,0.8916,0.871,0.8822,0.8867,0.8906,0.9158,0.952,1.0023,1.0559,1.1269,1.1883,1.2311,1.2637,1.2844,1.2617,1.2637,1.2798,1.2379,1.2445,1.2739,1.2598,1.2488,1.2566,1.2805,1.2915,1.2915,1.2915,1.2895,1.2936,1.315,1.3469,1.3808,1.4296,1.4926,1.5473,1.5886,1.6129,1.6432,1.65,1.65,1.65,1.65,1.65,1.65,1.65,1.65,1.65,1.65,1.65,1.65,1.65,1.65,1.65,1.65,1.6689,1.7131,1.7797,1.8481,1.9256,1.9741,2.0769,2.2218,2.2703,2.3022,2.343,2.3599,2.3599,2.3599,2.4519,2.5967,2.7106,2.7585,2.7393,2.7123,2.7675,2.7974,2.7687,2.7842,2.7842,2.7914,2.838,2.9175,2.9129,2.9714,3.0372,3.1076,3.1076,3.1122,3.1361,3.1869,3.2243,3.2138,3.2243,3.2616,3.2494,3.2462,3.2369,3.2213,3.1567,3.1388,3.0391,2.8793,2.8561,2.8403,2.8643,2.8699,2.8473,2.8348,2.8448,2.8499,2.8624,2.8875,2.9157,2.9459,2.971,0.9148,0.873,0.8989,0.9104,0.9164,0.9467,1.0077,1.096,1.1172,1.1754,1.2464,1.281,1.2876,1.2915,1.2844,1.2895,1.2915,1.2798,1.2837,1.2895,1.2844,1.2844,1.2825,1.2864,1.2915,1.2915,1.2915,1.2915,1.2992,1.3418,1.3766,1.4085,1.4937,1.5498,1.582,1.6227,1.6468,1.6489,1.65,1.65,1.65,1.65,1.65,1.65,1.65,1.65,1.65,1.65,1.65,1.65,1.65,1.65,1.65,1.65,1.7177,1.8184,1.8666,1.9253,1.9939,2.0372,2.0994,2.2526,2.2932,2.3112,2.364,2.3719,2.3699,2.4029,2.6135,2.7165,2.7495,2.7585,2.7675,2.7722,2.841,2.8393,2.8154,2.8351,2.8487,2.8051,2.9009,3.0163,3.0897,3.1076,3.0837,3.1271,3.1361,3.154,3.1899,3.2512,3.2841,3.2991,3.3229,3.3583,3.3182,3.2703,3.2516,3.2264,3.1281,3.0776,3.0441,2.946,2.9286,2.9221,2.9227,2.9051,2.875,2.875,2.8957,2.9233,2.9478,2.9729,3.0005,3.0281,3.0557,0.8795,0.871,0.8973,0.9158,0.9333,0.9819,1.0243,1.0678,1.1367,1.1699,1.1981,1.2578,1.2891,1.2915,1.2915,1.2915,1.2915,1.2915,1.2915,1.2915,1.2915,1.2915,1.2915,1.2915,1.2915,1.2915,1.2915,1.2915,1.298,1.319,1.3588,1.448,1.4892,1.5388,1.6216,1.6392,1.65,1.65,1.65,1.65,1.65,1.65,1.65,1.65,1.65,1.65,1.65,1.65,1.65,1.65,1.65,1.65,1.65,1.65,1.749,1.9239,2.045,2.1069,2.1432,2.1779,2.2435,2.3236,2.3778,2.4246,2.4287,2.3928,2.4197,2.5076,2.6644,2.7555,2.7764,2.7645,2.7914,2.8321,2.865,2.8919,2.9099,2.9279,2.9398,2.9624,2.9953,3.0612,3.1361,3.1391,3.1331,3.1481,3.163,3.1839,3.2437,3.311,3.3256,3.3401,3.3293,3.3472,3.3576,3.2951,3.2381,3.2093,3.1185,3.04,3.005,2.9858,2.9593,2.9578,2.9679,2.9478,2.9327,2.9478,2.9754,3.0036,3.0287,3.0482,3.0708,3.1035,3.111,0.8967,0.9343,0.9376,0.9704,1.0132,1.0068,1.0397,1.0984,1.12,1.1671,1.2172,1.2725,1.2903,1.2915,1.2915,1.2915,1.2915,1.2915,1.2915,1.2915,1.2915,1.2915,1.2915,1.2915,1.2915,1.2915,1.2915,1.2915,1.3005,1.3466,1.413,1.4721,1.5186,1.5888,1.6403,1.65,1.65,1.65,1.65,1.65,1.65,1.65,1.65,1.65,1.65,1.65,1.65,1.65,1.65,1.65,1.65,1.65,1.65,1.6557,1.7726,1.9816,2.1757,2.2355,2.2466,2.2562,2.3076,2.3988,2.4425,2.4724,2.4933,2.4706,2.4825,2.5663,2.6764,2.7807,2.8436,2.8304,2.856,2.8979,2.9325,2.9654,2.9937,3.0027,3.0043,3.0285,3.0628,3.1032,3.1391,3.1511,3.2093,3.2333,3.166,3.1869,3.2886,3.3452,3.3429,3.3453,3.3145,3.3214,3.3616,3.322,3.2268,3.178,3.1137,3.0432,2.9942,2.9821,2.9767,2.993,3.0131,3.0306,3.0211,3.0407,3.0482,3.0758,3.0984,3.1155,3.1356,3.1562,3.1486,0.934,1.018,0.981,1.0203,1.0882,1.0172,1.0556,1.1586,1.1216,1.1758,1.2713,1.2915,1.2915,1.2915,1.2915,1.2915,1.2915,1.2915,1.2915,1.2915,1.2915,1.2915,1.2915,1.2915,1.2915,1.2915,1.2915,1.2939,1.3334,1.4001,1.4456,1.4949,1.5743,1.6216,1.6425,1.65,1.65,1.65,1.65,1.65,1.65,1.65,1.65,1.65,1.65,1.65,1.6561,1.6611,1.6676,1.6636,1.6561,1.65,1.65,1.6626,1.7755,2.0174,2.2352,2.3078,2.2967,2.3047,2.3567,2.4571,2.4903,2.5184,2.5603,2.5854,2.5974,2.6255,2.7076,2.8124,2.9338,2.9578,2.9518,2.9758,3.0223,3.0492,3.0642,3.0642,3.0584,3.0584,3.0972,3.1331,3.154,3.172,3.2482,3.2961,3.2258,3.2108,3.3185,3.382,3.3849,3.3607,3.3338,3.2779,3.3073,3.3529,3.2573,3.1837,3.1224,3.0815,3.0382,3.0809,3.0934,3.0507,3.0608,3.0809,3.0914,3.0934,3.1085,3.1386,3.1587,3.1687,3.1863,3.2064,3.1964,0.9783,1.061,0.9806,0.9875,1.0419,1.0027,1.0623,1.1653,1.1678,1.2092,1.2822,1.2915,1.2915,1.2915,1.2915,1.2915,1.2915,1.2915,1.2915,1.2915,1.2915,1.2915,1.2915,1.2915,1.2927,1.2915,1.2956,1.3178,1.3517,1.3886,1.4663,1.5309,1.5721,1.6053,1.6425,1.65,1.65,1.65,1.65,1.65,1.65,1.65,1.65,1.6525,1.655,1.6586,1.6687,1.6999,1.7236,1.7222,1.6773,1.6611,1.6676,1.6676,1.8349,2.0946,2.2735,2.3479,2.3517,2.3944,2.4288,2.4835,2.5513,2.6153,2.6494,2.6854,2.6986,2.7136,2.7405,2.8154,2.9458,3.0299,3.0658,3.0598,3.0552,3.0807,3.1212,3.1391,3.1391,3.1421,3.154,3.163,3.1839,3.2198,3.2961,3.3425,3.311,3.314,3.3948,3.4351,3.4449,3.4049,3.3579,3.2897,3.2393,3.2982,3.2895,3.2208,3.1706,3.167,3.1537,3.2215,3.2286,3.1633,3.1306,3.1336,3.1436,3.1461,3.1687,3.2014,3.2139,3.2215,3.239,3.2587,3.2713,0.9246,1.0504,1.0099,1.0619,1.147,1.1085,1.1391,1.2234,1.2005,1.2221,1.2737,1.2915,1.2915,1.2915,1.2915,1.2915,1.2915,1.2915,1.2915,1.2915,1.2915,1.2915,1.2915,1.2915,1.3138,1.3286,1.3406,1.3493,1.3851,1.4492,1.4994,1.5476,1.5875,1.6227,1.6436,1.65,1.6525,1.6525,1.6525,1.6525,1.6525,1.6525,1.6525,1.6575,1.6812,1.6948,1.7085,1.7512,1.7789,1.7752,1.754,1.7414,1.7515,1.822,1.9529,2.2147,2.3301,2.3808,2.4066,2.4517,2.4844,2.5639,2.6303,2.6734,2.7076,2.7375,2.7615,2.7675,2.7705,2.844,3.0388,3.1122,3.1271,3.1182,3.1256,3.1615,3.1959,3.2303,3.2392,3.2362,3.2288,3.2288,3.2348,3.2826,3.3499,3.3738,3.3784,3.4173,3.4695,3.4279,3.4116,3.3529,3.2989,3.3028,3.2509,3.2913,3.3239,3.2613,3.2166,3.2126,3.2311,3.2763,3.2813,3.2487,3.2261,3.1989,3.1964,3.2039,3.2315,3.2566,3.2638,3.2738,3.2939,3.309,3.3115,0.9101,1.0662,1.0529,1.1325,1.2435,1.1894,1.1968,1.2473,1.2055,1.2203,1.2835,1.2915,1.2915,1.2915,1.2915,1.2915,1.2915,1.2915,1.2915,1.2915,1.2915,1.2915,1.2915,1.2944,1.3101,1.3382,1.3921,1.405,1.4423,1.5039,1.5531,1.5897,1.6324,1.65,1.65,1.65,1.6525,1.6687,1.6687,1.6712,1.6812,1.6751,1.6776,1.6862,1.73,1.7562,1.7613,1.8067,1.8318,1.8393,1.8443,1.8505,1.8741,1.9805,2.1614,2.3529,2.3978,2.4264,2.4481,2.5057,2.5598,2.6333,2.6674,2.7153,2.7525,2.7764,2.7824,2.8184,2.856,2.9235,3.0987,3.1451,3.16,3.178,3.2123,3.2572,3.2751,3.3006,3.3275,3.3215,3.302,3.305,3.317,3.3409,3.4083,3.4546,3.4622,3.4651,3.4874,3.3351,3.2848,3.2395,3.222,3.2771,3.287,3.3118,3.3291,3.305,3.2714,3.2558,3.2763,3.304,3.2964,3.2864,3.2889,3.2663,3.2638,3.2587,3.2738,3.2889,3.304,3.3115,3.3115,3.3115,3.3115,1.0686,1.1582,1.0998,1.1219,1.1827,1.1316,1.1354,1.1956,1.1931,1.2203,1.2915,1.2915,1.2915,1.2915,1.2915,1.2915,1.2915,1.2915,1.2915,1.2915,1.2915,1.2915,1.2915,1.2915,1.3017,1.3346,1.4106,1.4869,1.5174,1.5487,1.5897,1.627,1.6453,1.6525,1.6636,1.6726,1.6787,1.7222,1.7286,1.7476,1.7802,1.759,1.7665,1.7852,1.8053,1.8103,1.8179,1.8607,1.8882,1.8933,1.9346,1.956,1.9977,2.1934,2.3663,2.4898,2.5318,2.515,2.5015,2.5569,2.6258,2.6757,2.7106,2.7752,2.8171,2.8214,2.865,3.0943,3.0883,3.0823,3.1331,3.154,3.1809,3.2183,3.2512,3.2946,3.3275,3.3784,3.4053,3.4143,3.4007,3.4023,3.4083,3.4338,3.4637,3.507,3.5383,3.5413,3.503,3.3666,3.2683,3.2475,3.2391,3.2895,3.2863,3.3183,3.3285,3.3254,3.3094,3.2914,3.3014,3.3115,3.309,3.304,3.3115,3.3115,3.2939,3.2914,3.3065,3.3115,3.3115,3.3115,3.3115,3.3115,3.3115,1.1432,1.1777,1.1491,1.1783,1.2344,1.2086,1.2135,1.2369,1.2449,1.2596,1.2878,1.2915,1.2915,1.2915,1.2915,1.2915,1.2915,1.2915,1.2915,1.2915,1.2915,1.2915,1.2915,1.2951,1.3017,1.3442,1.3989,1.4686,1.5354,1.5954,1.6281,1.6485,1.6837,1.7049,1.7038,1.7314,1.7576,1.7727,1.7665,1.7763,1.8078,1.8192,1.8217,1.8217,1.8518,1.8644,1.8794,1.9171,1.9447,1.9472,1.9736,1.9786,1.9952,2.1013,2.2459,2.535,2.6323,2.6369,2.5974,2.6349,2.6696,2.7116,2.7525,2.8034,2.877,2.9039,2.9398,3.1241,3.1481,3.1511,3.172,3.2228,3.2153,3.2392,3.2976,3.3484,3.3963,3.4472,3.4831,3.4921,3.4981,3.4981,3.4921,3.4921,3.5086,3.537,3.5603,3.5614,3.5289,3.4501,3.3721,3.3244,3.321,3.3297,3.3033,3.2992,3.3176,3.3178,3.3182,3.3014,3.3065,3.3115,3.3115,3.3115,3.3115,3.3115,3.3115,3.3115,3.3115,3.3115,3.3115,3.3115,3.3115,3.3115,3.3115,1.1758,1.2055,1.1876,1.2215,1.2891,1.2915,1.2891,1.2903,1.2891,1.2903,1.2915,1.2915,1.2915,1.2915,1.2915,1.2915,1.2915,1.2915,1.2915,1.2915,1.2915,1.2915,1.2915,1.2944,1.3126,1.3644,1.4252,1.4805,1.5601,1.6397,1.6932,1.6787,1.735,1.7562,1.7702,1.7891,1.8154,1.838,1.8355,1.8467,1.8681,1.887,1.8794,1.8819,1.8933,1.9208,1.9271,1.9736,2.0012,2.0012,1.9836,1.9811,1.9914,2.0882,2.2896,2.548,2.7004,2.7228,2.6871,2.6919,2.7123,2.7495,2.8064,2.8663,2.9338,2.9788,3.0313,3.1451,3.1481,3.1511,3.1839,3.2931,3.3335,3.3365,3.3544,3.4083,3.4592,3.5011,3.528,3.531,3.5459,3.5789,3.5699,3.5549,3.5579,3.5759,3.5796,3.5829,3.5647,3.5337,3.5027,3.4544,3.3581,3.3651,3.3596,3.3339,3.3314,3.3115,3.3115,3.3115,3.3115,3.3115,3.3115,3.3115,3.3115,3.3115,3.3115,3.3115,3.3115,3.3115,3.3115,3.3115,3.3115,3.3115,3.3115,1.1633,1.2761,1.2092,1.2258,1.2915,1.2915,1.2915,1.2915,1.2915,1.2915,1.2915,1.2915,1.2915,1.2915,1.2915,1.2915,1.2915,1.2915,1.2915,1.2915,1.2915,1.2915,1.2939,1.3008,1.3132,1.3452,1.4488,1.531,1.5912,1.718,1.749,1.7512,1.7928,1.8103,1.8204,1.8355,1.8644,1.8945,1.9146,1.9384,1.9522,1.9585,1.9585,1.9597,1.9673,1.9748,1.9786,2.0326,2.0616,2.0616,2.0263,2.0049,2.0338,2.2086,2.4546,2.6435,2.7318,2.7555,2.7525,2.7525,2.7585,2.7944,2.8633,2.9338,2.9578,3.0747,3.1361,3.1586,3.1929,3.2049,3.2617,3.3439,3.4322,3.4352,3.4352,3.4801,3.522,3.5443,3.5653,3.5669,3.5938,3.6327,3.6537,3.6357,3.6267,3.6417,3.6815,3.6858,3.6805,3.657,3.6476,3.5839,3.4246,3.3923,3.4261,3.3995,3.3326,3.3115,3.3115,3.3115,3.3115,3.3115,3.3115,3.3115,3.3115,3.3115,3.3115,3.3115,3.3115,3.3115,3.3115,3.3115,3.3115,3.3115,3.3115,1.24,1.2847,1.2584,1.2632,1.2915,1.2915,1.2915,1.2915,1.2915,1.2915,1.2915,1.2915,1.2915,1.2915,1.2915,1.2915,1.2915,1.2915,1.2915,1.2915,1.2915,1.2915,1.3052,1.3581,1.3986,1.4253,1.537,1.6291,1.6786,1.78,1.8216,1.8385,1.8594,1.8632,1.8732,1.8957,1.9258,1.9422,1.9673,1.9811,1.9824,1.9824,1.9824,1.9811,2.0251,2.0326,2.0465,2.0904,2.1119,2.1144,2.0954,2.0865,2.1388,2.3945,2.603,2.7425,2.7619,2.7884,2.8141,2.8244,2.838,2.8919,2.9608,3.0013,2.9847,3.0807,3.1361,3.1899,3.302,3.3559,3.4217,3.4861,3.525,3.51,3.519,3.5549,3.5848,3.6058,3.6281,3.6387,3.6686,3.7045,3.7165,3.7208,3.7135,3.7135,3.7545,3.7842,3.7743,3.7252,3.6905,3.6377,3.4815,3.3721,3.3953,3.3577,3.3111,3.3115,3.3115,3.3115,3.3115,3.3115,3.3115,3.3115,3.3115,3.3115,3.3115,3.3115,3.3115,3.3115,3.3115,3.3115,3.3115,3.3165,3.314,1.2652,1.2903,1.2915,1.2915,1.2915,1.2915,1.2915,1.2915,1.2915,1.2915,1.2915,1.2915,1.2915,1.2915,1.2915,1.2915,1.2915,1.2915,1.3013,1.3059,1.3118,1.3273,1.3775,1.4287,1.4846,1.5316,1.627,1.7171,1.748,1.8258,1.8782,1.9108,1.9246,1.9233,1.9321,1.9585,1.9886,2.0012,1.9861,2.0087,2.0213,2.0376,2.0363,2.0427,2.0753,2.0893,2.1069,2.1432,2.1694,2.1794,2.1845,2.1985,2.3247,2.5032,2.7162,2.7705,2.8004,2.8351,2.859,2.8889,2.9189,2.9758,3.0117,3.0326,3.0492,3.1062,3.166,3.308,3.4532,3.5489,3.5489,3.5489,3.5489,3.531,3.5699,3.6058,3.6357,3.6626,3.6926,3.7148,3.7447,3.7734,3.7866,3.7985,3.8135,3.8135,3.8387,3.8561,3.8498,3.7776,3.6624,3.6001,3.4993,3.4095,3.3386,3.324,3.3115,3.3115,3.3115,3.3115,3.3115,3.3115,3.3115,3.3115,3.3115,3.3115,3.3115,3.314,3.3115,3.3115,3.314,3.3165,3.3442,3.347,3.3266,1.211,1.2878,1.2915,1.2915,1.2915,1.2915,1.2915,1.2915,1.2915,1.2915,1.2915,1.2915,1.2915,1.2915,1.2915,1.2915,1.2935,1.2942,1.3105,1.334,1.3667,1.418,1.4787,1.5305,1.5927,1.6529,1.7454,1.8119,1.8195,1.9016,1.9571,1.9797,1.9886,1.9848,1.9811,1.9824,2.0138,2.0515,2.015,2.0564,2.1041,2.1331,2.1443,2.1231,2.1382,2.1482,2.1608,2.1995,2.2257,2.2332,2.2619,2.2744,2.3214,2.5368,2.7019,2.759,2.8889,2.9292,2.9052,2.9368,2.9924,3.0462,3.0791,3.0897,3.1271,3.175,3.2632,3.4187,3.528,3.5489,3.5489,3.5609,3.5699,3.5786,3.6174,3.6596,3.6926,3.7464,3.7823,3.8015,3.8182,3.8392,3.8601,3.8793,3.9092,3.9212,3.9331,3.9247,3.8962,3.8163,3.6847,3.5682,3.4877,3.4137,3.3407,3.3219,3.3115,3.3115,3.3115,3.3115,3.3115,3.3115,3.3115,3.3115,3.314,3.319,3.3165,3.3165,3.3391,3.3617,3.3316,3.3341,3.3621,3.3822,3.3646,1.2596,1.2915,1.2915,1.2915,1.2915,1.2915,1.2915,1.2915,1.2915,1.2915,1.2915,1.2915,1.2915,1.2915,1.2915,1.2915,1.2974,1.3242,1.3444,1.3599,1.4261,1.4746,1.5455,1.6474,1.7175,1.7746,1.859,1.9153,1.928,1.9746,2.0074,2.0339,2.0665,2.069,2.0603,2.0653,2.108,2.1181,2.108,2.1155,2.1557,2.2096,2.2221,2.1633,2.187,2.2006,2.2056,2.2558,2.2794,2.2844,2.3155,2.317,2.312,2.4797,2.566,2.7429,2.9331,3.0538,3.0313,3.0478,3.0927,3.1226,3.1495,3.1615,3.16,3.2422,3.3768,3.4951,3.5459,3.5489,3.5489,3.637,3.6623,3.6479,3.6747,3.7221,3.7674,3.8422,3.8883,3.8913,3.9032,3.8973,3.9092,3.9062,3.9302,3.9421,3.9421,3.8925,3.8564,3.8032,3.7002,3.5621,3.4609,3.3953,3.3454,3.3219,3.3115,3.3115,3.3115,3.3115,3.3115,3.3115,3.3115,3.3115,3.319,3.3266,3.3571,3.3872,3.4098,3.4173,3.3947,3.3897,3.4251,3.4324,3.4148,1.2915,1.2915,1.2915,1.2915,1.2915,1.2915,1.2915,1.2915,1.2915,1.2915,1.2915,1.2915,1.2915,1.2915,1.2915,1.302,1.3143,1.3666,1.4244,1.4395,1.5347,1.6094,1.6886,1.755,1.8179,1.8761,1.9267,1.9773,1.9734,2.0012,2.044,2.0993,2.1507,2.1518,2.1407,2.1457,2.1543,2.1594,2.1568,2.1644,2.2132,2.2558,2.2719,2.2383,2.2383,2.2569,2.2719,2.302,2.3396,2.3446,2.3521,2.3461,2.3296,2.345,2.4531,2.7051,2.929,3.0558,3.0837,3.1423,3.184,3.2243,3.2482,3.2392,3.2273,3.2961,3.4007,3.4981,3.5429,3.5699,3.5998,3.6969,3.6965,3.676,3.7344,3.7806,3.8182,3.8871,3.9272,3.9361,3.9391,3.9391,3.9421,3.9391,3.9391,3.9421,3.9373,3.8797,3.8125,3.7415,3.6788,3.5581,3.4387,3.3662,3.3304,3.3176,3.3115,3.3115,3.314,3.319,3.3115,3.3115,3.3115,3.3241,3.3621,3.4022,3.4377,3.4653,3.4703,3.4753,3.4728,3.4778,3.4931,3.4853,3.4723,1.2915,1.2915,1.2915,1.2915,1.2915,1.2915,1.2915,1.2915,1.2915,1.2915,1.2915,1.2915,1.2915,1.2915,1.2935,1.3212,1.3698,1.4333,1.5082,1.5857,1.6616,1.7485,1.806,1.8513,1.8977,1.9491,1.9911,2.0087,1.9962,2.0603,2.1144,2.1532,2.2031,2.2196,2.2121,2.1995,2.2031,2.2132,2.2096,2.2272,2.2719,2.317,2.3256,2.312,2.318,2.3296,2.3446,2.3738,2.3938,2.4139,2.439,2.3988,2.3597,2.3195,2.4613,2.6638,2.9121,3.0275,3.1433,3.2273,3.2796,3.3155,3.2961,3.3066,3.3275,3.3634,3.4681,3.531,3.5759,3.6101,3.652,3.664,3.6789,3.7233,3.7874,3.8237,3.8512,3.8931,3.9272,3.9391,3.9391,3.9421,3.9421,3.9421,3.9337,3.9108,3.8998,3.8638,3.7833,3.6515,3.5922,3.5359,3.4241,3.339,3.3115,3.3115,3.3115,3.3115,3.3266,3.3316,3.3215,3.3291,3.3567,3.3894,3.4374,3.4728,3.4929,3.5054,3.5155,3.5205,3.5355,3.5431,3.5579,3.5504,3.5452,1.2915,1.2915,1.2915,1.2915,1.2915,1.2915,1.2915,1.2915,1.2915,1.2915,1.2915,1.2915,1.2915,1.2935,1.3196,1.3674,1.4376,1.5155,1.5924,1.678,1.7656,1.8273,1.8747,1.9122,1.9526,1.9894,2.0225,2.0501,2.0678,2.1295,2.1794,2.2132,2.2543,2.2744,2.2784,2.2694,2.2784,2.2759,2.2623,2.2849,2.3311,2.3838,2.3882,2.386,2.4032,2.4098,2.4264,2.4415,2.4566,2.4641,2.4716,2.449,2.444,2.4453,2.5612,2.924,3.06,3.129,3.2547,3.3048,3.3514,3.4069,3.3993,3.3709,3.3889,3.4412,3.537,3.5938,3.6281,3.6669,3.7233,3.7473,3.7558,3.797,3.8525,3.8775,3.9002,3.9092,3.9421,3.9421,3.9421,3.9421,3.9421,3.9421,3.9301,3.8962,3.8583,3.8182,3.7377,3.5961,3.5298,3.4794,3.4095,3.3219,3.3115,3.3115,3.3115,3.314,3.3341,3.3517,3.3467,3.3617,3.407,3.4648,3.5228,3.5353,3.533,3.5456,3.5655,3.5906,3.608,3.613,3.613,3.6004,3.5929,1.2915,1.2915,1.2915,1.2915,1.2915,1.2915,1.2915,1.2915,1.2915,1.2915,1.2915,1.2915,1.2993,1.3176,1.3424,1.3904,1.4729,1.5806,1.6656,1.7328,1.8495,1.8984,1.9371,1.9577,1.9896,2.0275,2.0715,2.1066,2.1281,2.1769,2.2332,2.2619,2.302,2.3045,2.312,2.3261,2.3436,2.3361,2.3286,2.3432,2.3884,2.4422,2.4411,2.448,2.4711,2.48,2.4892,2.4967,2.5134,2.5209,2.5259,2.546,2.5868,2.6535,2.6949,3.0015,3.0996,3.161,3.2561,3.35,3.4137,3.4757,3.5086,3.4937,3.4771,3.507,3.6041,3.6819,3.7071,3.7383,3.8053,3.8615,3.8692,3.8847,3.9086,3.9343,3.9391,3.9391,3.9421,3.9421,3.9421,3.9421,3.9421,3.9403,3.9137,3.8546,3.7881,3.7223,3.6298,3.4999,3.4671,3.4532,3.3848,3.3115,3.3115,3.3215,3.3316,3.3416,3.3596,3.3721,3.3693,3.407,3.4625,3.5401,3.6204,3.608,3.5805,3.6055,3.6256,3.6431,3.6607,3.6708,3.6607,3.6381,3.6331,1.2915,1.2915,1.2915,1.2915,1.2915,1.2915,1.2915,1.2915,1.2915,1.2915,1.2915,1.2915,1.3111,1.3379,1.3594,1.4175,1.517,1.6348,1.7252,1.7734,1.8971,1.9592,1.9669,1.9911,2.0238,2.0753,2.1306,2.183,2.182,2.2207,2.2719,2.3095,2.3095,2.317,2.3361,2.3678,2.3929,2.4189,2.3904,2.3809,2.4498,2.4822,2.4894,2.4913,2.4987,2.5059,2.5159,2.5376,2.5711,2.5946,2.6172,2.6474,2.7156,2.8782,2.9282,3.0054,3.1422,3.2186,3.3025,3.4021,3.4868,3.5519,3.6088,3.5998,3.5848,3.5848,3.6746,3.7746,3.8088,3.8207,3.8728,3.8238,3.8053,3.8576,3.9012,3.8778,3.8331,3.8583,3.9035,3.9137,3.9421,3.9373,3.9301,3.9265,3.898,3.8238,3.7107,3.6287,3.5729,3.4449,3.4068,3.4194,3.3641,3.3165,3.3341,3.3467,3.3596,3.3746,3.3997,3.4173,3.4324,3.4726,3.5203,3.5854,3.6405,3.6405,3.6306,3.6505,3.6632,3.6708,3.6909,3.7185,3.7135,3.6959,3.6934,1.2915,1.2915,1.2915,1.2915,1.2915,1.2915,1.2915,1.2915,1.2915,1.2903,1.2915,1.2942,1.3137,1.3522,1.3874,1.4532,1.5723,1.6765,1.7734,1.8414,1.941,1.9848,1.9962,2.0325,2.0626,2.113,2.1794,2.2569,2.2608,2.2769,2.292,2.3095,2.317,2.3346,2.3763,2.4104,2.4406,2.4908,2.4757,2.4506,2.4906,2.5619,2.5978,2.5742,2.5652,2.5912,2.6047,2.6147,2.6671,2.7083,2.7051,2.6903,2.6661,2.9281,3.1612,3.3075,3.2337,3.285,3.3719,3.4604,3.5475,3.6022,3.65,3.6699,3.6806,3.6896,3.7434,3.8464,3.9062,3.9122,3.8893,3.8057,3.7587,3.8275,3.876,3.8013,3.731,3.7994,3.862,3.898,3.9319,3.9319,3.9247,3.898,3.8723,3.7672,3.6088,3.5244,3.5514,3.4765,3.3777,3.3692,3.3483,3.3215,3.3517,3.3796,3.3997,3.4377,3.4703,3.4853,3.4951,3.5378,3.5828,3.608,3.6405,3.6581,3.6733,3.6859,3.6959,3.706,3.7386,3.7763,3.7989,3.7864,3.7789,1.2915,1.2915,1.2915,1.2915,1.2915,1.2915,1.2915,1.2915,1.2915,1.3001,1.3157,1.3196,1.3398,1.3796,1.4238,1.5021,1.6167,1.7148,1.7929,1.8701,1.9458,1.9934,2.0313,2.0726,2.1153,2.1644,2.2433,2.3045,2.3095,2.312,2.3105,2.3396,2.3521,2.3788,2.4315,2.4582,2.4933,2.5552,2.546,2.5519,2.5511,2.6088,2.6397,2.6202,2.6278,2.6499,2.66,2.6675,2.7069,2.7472,2.7521,2.7573,2.8007,3.0076,3.1676,3.2447,3.2598,3.3078,3.4041,3.5024,3.5756,3.6045,3.7143,3.7446,3.7404,3.7524,3.8285,3.9212,3.9242,3.9284,3.8734,3.7984,3.804,3.8583,3.7984,3.7175,3.7548,3.8397,3.887,3.921,3.9421,3.9373,3.9156,3.8546,3.805,3.666,3.5128,3.4511,3.4718,3.515,3.4135,3.3592,3.3592,3.3746,3.4123,3.4349,3.4525,3.4904,3.538,3.5481,3.5604,3.6029,3.6405,3.6581,3.6758,3.7034,3.7185,3.7311,3.7437,3.7563,3.7965,3.8416,3.8542,3.8693,3.8693,1.2915,1.2915,1.2915,1.2915,1.2915,1.2915,1.2915,1.2903,1.2949,1.3184,1.3496,1.3613,1.3874,1.4225,1.4617,1.5549,1.6427,1.723,1.7988,1.8776,1.9586,2.0122,2.0603,2.1041,2.163,2.2192,2.2844,2.3045,2.3095,2.3246,2.3562,2.3954,2.418,2.4381,2.4892,2.5268,2.5636,2.5879,2.6055,2.644,2.6532,2.6549,2.6482,2.6482,2.6575,2.66,2.6776,2.7052,2.7336,2.7885,2.829,2.8417,2.8798,3.0281,3.041,3.1175,3.2154,3.2491,3.3198,3.4724,3.5071,3.5647,3.7197,3.7807,3.76,3.7937,3.8707,3.9325,3.9355,3.9035,3.8461,3.7852,3.8021,3.8088,3.7175,3.6565,3.7463,3.8435,3.887,3.921,3.9301,3.9301,3.8998,3.8397,3.7162,3.573,3.4827,3.4288,3.4087,3.4641,3.4527,3.4346,3.4447,3.4625,3.4778,3.4879,3.4979,3.5403,3.583,3.6006,3.6205,3.6331,3.6581,3.6934,3.716,3.7462,3.7688,3.7813,3.7939,3.8115,3.8567,3.8969,3.9019,3.9195,3.9446,1.2915,1.2915,1.2915,1.2915,1.2915,1.2915,1.2915,1.2974,1.3242,1.3444,1.3685,1.4271,1.4623,1.4662,1.474,1.5535,1.6827,1.7454,1.8029,1.8738,1.9897,2.0435,2.0954,2.1669,2.2318,2.2744,2.302,2.307,2.3311,2.3612,2.3904,2.4104,2.4566,2.4908,2.536,2.5686,2.5879,2.6147,2.6407,2.6673,2.7087,2.6972,2.6549,2.665,2.6927,2.706,2.7286,2.7688,2.8313,2.8977,2.9487,2.9536,2.9732,3.0055,3.0063,3.0445,3.1427,3.2357,3.3251,3.4362,3.478,3.4921,3.6119,3.6599,3.6552,3.6788,3.7748,3.9144,3.9108,3.8657,3.8003,3.678,3.6546,3.6613,3.6093,3.6172,3.6682,3.7606,3.8312,3.8657,3.8943,3.9119,3.9283,3.8347,3.7107,3.5878,3.5109,3.4622,3.4837,3.4881,3.4849,3.5075,3.52,3.523,3.5307,3.538,3.5506,3.5931,3.623,3.6356,3.6406,3.638,3.6658,3.7512,3.7739,3.7939,3.814,3.8341,3.8567,3.8793,3.9195,3.9546,3.9546,3.9597,3.9772]},{"header":{"parameterUnit":"m.s-1","parameterCategory":1,"la1":31.0,"la2":29.5877,"lo1":-88.7671,"lo2":-86.6584,"dy":0.0162,"dx":0.0185,"nx":115,"ny":88,"refTime":"2026-03-18T12:00:00:Z","depth":0,"parameterNumber":3,"parameterNumberName":"V-component_of_WINDS"},"data":[0.0,0.0,0.0,0.0,0.0,0.0,0.0,0.0,0.0,0.0,0.0,0.0,0.0,0.0,0.0,0.0,0.0,0.0,0.0,0.0,0.0,0.0,0.0,0.0,0.0,0.0,0.0,0.0,0.0,0.0,0.0,0.0,0.0,0.0,0.0,0.0,0.0,0.0,0.0,0.0,0.0,0.0,0.0,0.0,0.0,0.0,0.0,0.0,0.0,0.0,0.0,0.0,0.0,0.0,0.0,0.0,0.0,0.0,0.0,0.0,0.0,0.0,0.0,0.0,0.0,0.0,0.0,0.0,0.0,0.0,0.0,0.0,0.0,0.0,0.0,0.0,0.0,0.0,0.0,0.0,0.0,0.0,0.0,0.0,0.0,0.0,0.0,0.0,0.0,0.0,0.0,0.0,0.0,0.0,0.0,0.0,0.0,0.0,0.0,0.0,0.0,0.0,0.0,0.0,0.0,0.0,0.0,0.0,0.0,0.0,0.0,0.0,0.0,0.0,0.0,0.0,0.0,0.0,0.0,0.0,0.0,0.0,0.0,0.0,0.0,0.0,0.0,0.0,0.0,0.0,0.0,0.0,0.0,0.0,0.0,0.0,0.0,0.0,0.0,0.0,0.0,0.0,0.0,0.0,0.0,0.0,0.0,0.0,0.0,0.0,0.0,0.0,0.0,0.0,0.0,0.0,0.0,0.0,0.0,0.0,0.0,0.0,0.0,0.0,0.0,0.0,0.0,0.0,0.0,0.0,0.0,0.0,0.0,0.0,0.0,0.0,0.0,0.0,0.0,0.0,0.0,0.0,0.0,0.0,0.0,0.0,0.0,0.0,0.0,0.0,0.0,0.0,0.0,0.0,0.0,0.0,0.0,0.0,0.0,0.0,0.0,0.0,0.0,0.0,0.0,0.0,0.0,0.0,0.0,0.0,0.0,0.0,0.0,0.0,0.0,0.0,0.0,0.0,0.0,0.0,0.0,0.0,0.0,0.0,0.0,0.0,0.0,0.0,0.0,0.0,0.0,0.0,0.0,0.0,0.0,0.0,0.0,0.0,0.0,0.0,0.0,0.0,0.0,0.0,0.0,0.0,0.0,0.0,0.0,0.0,0.0,0.0,0.0,0.0,0.0,0.0,0.0,0.0,0.0,0.0,0.0,0.0,0.0,0.0,0.0,0.0,0.0,0.0,0.0,0.0,0.0,0.0,0.0,0.0,0.0,0.0,0.0,0.0,0.0,0.0,0.0,0.0,0.0,0.0,0.0,0.0,0.0,0.0,0.0,0.0,0.0,0.0,0.0,0.0,0.0,0.0,0.0,0.0,0.0,0.0,0.0,0.0,0.0,0.0,0.0,0.0,0.0,0.0,0.0,0.0,0.0,0.0,0.0,0.0,0.0,0.0,0.0,0.0,0.0,0.0,0.0,0.0,0.0,0.0,0.0,0.0,0.0,0.0,0.0,0.0,0.0,0.0,0.0,0.0,0.0,0.0,0.0,0.0,0.0,0.0,0.0,0.0,0.0,0.0,0.0,0.0,0.0,0.0,0.0,0.0,0.0,0.0,0.0,0.0,0.0,0.0,0.0,0.0,0.0,0.0,0.0,0.0,0.0,0.0,0.0,0.0,0.0,0.0,0.0,0.0,0.0,0.0,0.0,0.0,0.0,0.0,0.0,0.0,0.0,0.0,0.0,0.0,0.0,0.0,0.0,0.0,0.0,0.0,0.0,0.0,0.0,0.0,0.0,0.0,0.0,0.0,0.0,0.0,0.0,0.0,0.0,0.0,0.0,0.0,0.0,0.0,0.0,0.0,0.0,0.0,0.0,0.0,0.0,0.0,0.0,0.0,0.0,0.0,0.0,0.0,0.0,0.0,0.0,0.0,0.0,0.0,0.0,0.0,0.0,0.0,0.0,0.0,0.0,0.0,0.0,0.0,0.0,0.0,0.0,0.0,0.0,0.0,0.0,0.0,0.0,0.0,0.0,0.0,0.0,0.0,0.0,0.0,0.0,0.0,0.0,0.0,0.0,0.0,0.0,0.0,0.0,0.0,0.0,0.0,0.0,0.0,0.0,0.0,0.0,0.0,0.0,0.0,0.0,0.0,0.0,0.0,0.0,0.0,0.0,0.0,0.0,0.0,0.0,0.0,0.0,0.0,0.0,0.0,0.0,0.0,0.0,0.0,0.0,0.0,0.0,0.0,0.0,0.0,0.0,0.0,0.0,0.0,0.0,0.0,0.0,0.0,0.0,0.0,0.0,0.0,0.0,0.0,0.0,0.0,0.0,0.0,0.0,0.0,0.0,0.0,0.0,0.0,0.0,0.0,0.0,0.0,0.0,0.0,0.0,0.0,0.0,0.0,0.0,0.0,0.0,0.0,0.0,0.0,0.0,0.0,0.0,0.0,0.0,0.0,0.0,0.0,0.0,0.0,0.0,0.0,0.0,0.0,0.0,0.0,0.0,0.0,0.0,0.0,0.0,0.0,0.0,0.0,0.0,0.0,0.0,0.0,0.0,0.0,0.0,0.0,0.0,0.0,0.0,0.0,0.0,0.0,0.0,0.0,0.0,0.0,0.0,0.0,0.0,0.0,0.0,0.0,0.0,0.0,0.0,0.0,0.0,0.0,0.0,0.0,0.0,0.0,0.0,0.0,0.0,0.0,0.0,0.0,0.0,0.0,0.0,0.0,0.0,0.0,0.0,0.0,0.0,0.0,0.0,0.0,0.0,0.0,0.0,0.0,0.0,0.0,0.0,0.0,0.0,0.0,0.0,0.0,0.0,0.0,0.0,0.0,0.0,0.0,0.0,0.0,0.0,0.0,0.0,0.0,0.0,0.0,0.0,0.0,0.0,0.0,0.0,0.0,0.0,0.0,0.0,0.0,0.0,0.0,0.0,0.0,0.0,0.0,0.0,0.0,0.0,0.0,0.0,0.0,0.0,0.0,0.0,0.0,0.0,0.0,0.0,0.0,0.0,0.0,0.0,0.0,0.0,0.0,0.0,0.0,0.0,0.0,0.0,0.0,0.0,0.0,0.0,0.0,0.0,0.0,0.0,0.0,0.0,0.0,0.0,0.0,0.0,0.0,0.0,0.0,0.0,0.0,0.0,0.0,0.0,0.0,0.0,0.0,0.0,0.0,0.0,0.0,0.0,0.0,0.0,0.0,0.0,0.0,0.0,0.0,0.0,0.0,0.0,0.0,0.0,0.0,0.0,0.0,0.0,0.0,0.0,0.0,0.0,0.0,0.0,0.0,0.0,0.0,0.0,0.0,0.0,0.0,0.0,0.0,0.0,0.0,0.0,0.0,0.0,0.0,0.0,0.0,0.0,0.0,0.0,0.0,0.0,0.0,0.0,0.0,0.0,0.0,0.0,0.0,0.0,0.0,0.0,0.0,0.0,0.0,0.0,0.0,0.0,0.0,0.0,0.0,0.0,0.0,0.0,0.0,0.0,0.0,0.0,0.0,0.0,0.0,0.0,0.0,0.0,0.0,0.0,0.0,0.0,0.0,0.0,0.0,0.0,0.0,0.0,0.0,0.0,0.0,0.0,0.0,0.0,0.0,0.0,0.0,0.0,0.0,0.0,0.0,0.0,0.0,0.0,0.0,0.0,0.0,0.0,0.0,0.0,0.0,0.0,0.0,0.0,0.0,0.0,0.0,0.0,0.0,0.0,0.0,0.0,0.0,0.0,0.0,0.0,0.0,0.0,0.0,0.0,0.0,0.0,0.0,0.0,0.0,0.0,0.0,0.0,0.0,0.0,0.0,0.0,0.0,0.0,0.0,0.0,0.0,0.0,0.0,0.0,0.0,0.0,0.0,0.0,0.0,0.0,0.0,0.0,0.0,0.0,0.0,0.0,0.0,0.0,0.0,0.0,0.0,0.0,0.0,0.0,0.0,0.0,0.0,0.0,0.0,0.0,0.0,0.0,0.0,0.0,0.0,0.0,0.0,0.0,0.0,0.0,0.0,0.0,0.0,0.0,0.0,0.0,0.0,0.0,0.0,0.0,0.0,0.0,0.0,0.0,0.0,0.0,0.0,0.0,0.0,0.0,0.0,0.0,0.0,0.0,0.0,0.0,0.0,0.0,0.0,0.0,0.0,0.0,0.0,0.0,0.0,0.0,0.0,0.0,0.0,0.0,0.0,0.0,0.0,0.0,0.0,0.0,0.0,0.0,0.0,0.0,0.0,0.0,0.0,0.0,0.0,0.0,0.0,0.0,0.0,0.0,0.0,0.0,0.0,0.0,0.0,0.0,0.0,0.0,0.0,0.0,0.0,0.4993,0.0,0.0,0.0,0.0,0.0,0.0,0.0,0.0,0.0,0.0,0.0,0.0,0.0,0.0,0.0,0.0,0.0,0.0,0.0,0.0,0.0,0.0,0.0,0.0,0.0,0.0,0.0,0.0,0.0,0.0,0.0,0.0,0.0,0.0,0.0,0.0,0.0,0.0,0.0,0.0,0.0,0.0,0.0,0.0,0.0,0.0,0.0,0.0,0.0,0.0,0.0,0.0,0.0,0.0,0.0,0.0,0.0,0.0,0.0,0.0,0.0,0.0,0.0,0.0,0.0,0.0,0.0,0.0,0.0,0.0,0.0,0.0,0.0,0.0,0.0,0.0,0.0,0.0,0.0,0.0,0.0,0.0,0.0,0.0,0.0,0.0,0.0,0.0,0.0,0.0,0.0,0.0,0.0,0.0,0.0,0.0,0.0,0.0,0.0,0.0,0.0,0.0,0.0,0.0,0.0,0.0,0.0,0.0,0.0,0.0,0.5066,0.5039,0.5032,0.5053,0.5069,0.0,0.0,0.0,0.0,0.0,0.0,0.0,0.0,0.0,0.0,0.0,0.0,0.0,0.0,0.0,0.0,0.0,0.0,0.0,0.0,0.0,0.0,0.0,0.0,0.0,0.0,0.0,0.0,0.0,0.0,0.0,0.0,0.0,0.0,0.0,0.0,0.0,0.0,0.0,0.0,0.0,0.0,0.0,0.0,0.0,0.0,0.0,0.0,0.0,0.0,0.0,0.0,0.0,0.0,0.0,0.0,0.0,0.0,0.0,0.0,0.0,0.0,0.0,0.0,0.0,0.0,0.0,0.0,0.0,0.0,0.0,0.0,0.0,0.0,0.0,0.0,0.0,0.0,0.0,0.0,0.0,0.0,0.0,0.0,0.0,0.0,0.0,0.0,0.0,0.0,0.0,0.0,0.0,0.0,0.0,0.0,0.0,0.0,0.0,0.0,0.0,0.0,0.0,0.0,0.0,0.0,0.0,0.0,0.0,0.0,0.0,0.0,0.5271,0.5391,0.5385,0.0,0.0,0.0,0.0,0.0,0.0,0.0,0.0,0.0,0.0,0.0,0.0,0.0,0.0,0.0,0.0,0.0,0.0,0.0,0.0,0.0,0.0,0.0,0.0,0.0,0.0,0.0,0.0,0.0,0.0,0.0,0.0,0.0,0.0,0.0,0.0,0.0,0.0,0.0,0.0,0.0,0.0,0.0,0.0,0.0,0.0,0.0,0.0,0.0,0.0,0.0,0.0,0.0,0.0,0.0,0.0,0.0,0.0,0.0,0.0,0.0,0.0,0.0,0.0,0.0,0.0,0.0,0.0,0.0,0.0,0.0,0.0,0.0,0.0,0.0,0.0,0.0,0.0,0.0,0.0,0.0,0.0,0.0,0.0,0.0,0.0,0.0,0.0,0.0,0.0,0.0,0.0,0.0,0.0,0.0,0.0,0.0,0.0,0.0,0.0,0.0,0.0,0.0,0.0,0.0,0.0,0.0,0.0,0.0,0.0,0.501,0.4997,0.584,0.0,0.6209,0.0,0.0,0.0,0.0,0.0,0.0,0.0,0.0,0.0,0.0,0.0,0.0,0.0,0.0,0.0,0.0,0.0,0.0,0.0,0.0,0.0,0.0,0.0,0.0,0.0,0.0,0.0,0.0,0.0,0.0,0.0,0.0,0.0,0.0,0.0,0.0,0.0,0.0,0.0,0.0,0.0,0.0,0.0,0.0,0.0,0.0,0.0,0.0,0.0,0.0,0.0,0.0,0.0,0.0,0.0,0.0,0.0,0.0,0.0,0.0,0.0,0.0,0.0,0.0,0.0,0.0,0.0,0.0,0.0,0.0,0.0,0.0,0.0,0.0,0.0,0.0,0.0,0.0,0.0,0.0,0.0,0.0,0.0,0.0,0.0,0.0,0.0,0.0,0.0,0.0,0.0,0.0,0.0,0.0,0.0,0.0,0.0,0.0,0.0,0.0,0.0,0.0,0.0,0.0,0.0,0.0,0.0,0.0,0.0,0.0,0.0,0.5658,0.612,0.6382,0.0,0.0,0.0,0.0,0.0,0.0,0.0,0.0,0.0,0.0,0.0,0.0,0.0,0.0,0.0,0.0,0.0,0.0,0.0,0.0,0.0,0.0,0.0,0.0,0.0,0.0,0.0,0.0,0.0,0.0,0.0,0.0,0.0,0.0,0.0,0.0,0.0,0.0,0.0,0.0,0.0,0.0,0.0,0.0,0.0,0.0,0.0,0.0,0.0,0.0,0.0,0.0,0.0,0.0,0.0,0.0,0.0,0.0,0.0,0.0,0.0,0.0,0.0,0.0,0.0,0.0,0.0,0.0,0.0,0.0,0.0,0.0,0.0,0.0,0.0,0.0,0.0,0.0,0.0,0.0,0.0,0.0,0.0,0.0,0.0,0.0,0.0,0.0,0.0,0.0,0.0,0.0,0.0,0.0,0.0,0.0,0.0,0.0,0.0,0.0,0.0,0.0,0.0,0.0,0.0,0.0,0.0,0.0,0.0,0.0,0.5632,0.0,0.6449,0.6625,0.6626,0.6395,0.0,0.0,0.0,0.0,0.0,0.0,0.0,0.0,0.0,0.0,0.0,0.0,0.0,0.0,0.0,0.0,0.0,0.0,0.0,0.0,0.0,0.0,0.0,0.0,0.0,0.0,0.0,0.0,0.0,0.0,0.0,0.0,0.0,0.0,0.0,0.0,0.0,0.0,0.0,0.0,0.0,0.0,0.0,0.0,0.0,0.0,0.0,0.0,0.0,0.0,0.0,0.0,0.0,0.0,0.0,0.0,0.0,0.0,0.0,0.0,0.0,0.0,0.0,0.0,0.0,0.0,0.0,0.0,0.0,0.0,0.0,0.0,0.0,0.0,0.0,0.0,0.0,0.0,0.0,0.0,0.0,0.0,0.0,0.0,0.0,0.0,0.0,0.0,0.0,0.0,0.0,0.0,0.0,0.0,0.0,0.0,0.0,0.0,0.0,0.0,0.0,0.0,0.0,0.0,0.0,0.0,0.0,0.0,0.0,0.5814,0.6393,0.7399,0.7519,0.7165,0.0,0.0,0.0,0.0,0.0,0.0,0.0,0.0,0.0,0.0,0.0,0.0,0.0,0.0,0.0,0.0,0.0,0.0,0.0,0.0,0.0,0.0,0.0,0.0,0.0,0.0,0.0,0.0,0.0,0.0,0.0,0.0,0.0,0.0,0.0,0.0,0.0,0.0,0.0,0.0,0.0,0.0,0.0,0.0,0.0,0.0,0.0,0.0,0.0,0.0,0.0,0.0,0.0,0.0,0.0,0.0,0.0,0.0,0.0,0.0,0.0,0.0,0.0,0.0,0.0,0.0,0.0,0.0,0.0,0.0,0.0,0.0,0.0,0.0,0.0,0.0,0.0,0.0,0.0,0.0,0.0,0.0,0.0,0.0,0.0,0.0,0.0,0.0,0.0,0.0,0.0,0.0,0.0,0.0,0.0,0.0,0.0,0.0,0.0,0.0,0.0,0.0,0.0,0.0,0.0,0.0,0.0,0.0,0.0,0.4488,0.5453,0.6672,0.8047,0.7263,0.6856,0.0,0.0,0.0,0.0,0.0,0.0,0.0,0.0,0.0,0.0,0.0,0.0,0.0,0.0,0.0,0.0,0.0,0.0,0.0,0.0,0.0,0.0,0.0,0.0,0.0,0.0,0.0,0.0,0.0,0.0,0.0,0.0,0.0,0.0,0.0,0.0,0.0,0.0,0.0,0.0,0.0,0.0,0.0,0.0,0.0,0.0,0.0,0.0,0.0,0.0,0.0,0.0,0.0,0.0,0.0,0.0,0.0,0.0,0.0,0.0,0.0,0.0,0.0,0.0,0.0,0.0,0.0,0.0,0.0,0.0,0.0,0.0,0.0,0.0,0.0,0.0,0.0,0.0,0.0,0.0,0.0,0.0,0.0,0.0,0.0,0.0,0.0,0.0,0.0,0.0,0.0,0.0,0.0,0.0,0.0,0.0,0.0,0.0,0.0,0.0,0.0,0.0,0.0,0.0,0.0,0.0,0.0,0.0,0.0,0.464,0.0,0.6964,0.0,0.7091,0.6637,0.0,0.0,0.0,0.0,0.0,0.0,0.0,0.0,0.0,0.0,0.0,0.0,0.0,0.0,0.0,0.0,0.0,0.0,0.0,0.0,0.0,0.0,0.0,0.0,0.0,0.0,0.0,0.0,0.0,0.0,0.0,0.0,0.0,0.0,0.0,0.0,0.0,0.0,0.0,0.0,0.0,0.0,0.0,0.0,0.0,0.0,0.0,0.0,0.0,0.0,0.0,0.0,0.0,0.0,0.0,0.0,0.0,0.0,0.0,0.0,0.0,0.0,0.0,0.0,0.0,0.0,0.0,0.0,0.0,0.0,0.0,0.0,0.0,0.0,0.0,0.0,0.0,0.0,0.0,0.0,0.0,0.0,0.0,0.0,0.0,0.0,0.0,0.0,0.0,0.0,0.0,0.0,0.0,0.0,0.0,0.0,0.0,0.0,0.0,0.0,0.0,0.0,0.0,0.0,0.0,0.0,0.0,0.0,0.391,0.6292,0.6989,0.7253,0.711,0.7143,0.6503,0.0,0.0,0.0,0.0,0.0,0.0,0.0,0.0,0.0,0.0,0.0,0.0,0.0,0.0,0.0,0.0,0.0,0.0,0.0,0.0,0.0,0.0,0.0,0.0,0.0,0.0,0.0,0.0,0.0,0.0,0.0,0.0,0.0,0.0,0.0,0.0,0.0,0.0,0.0,0.0,0.0,0.0,0.0,0.0,0.0,0.0,0.0,0.0,0.0,0.0,0.0,0.0,0.0,0.0,0.0,0.0,0.0,0.0,0.0,0.0,0.0,0.0,0.0,0.0,0.0,0.0,0.0,0.0,0.0,0.0,0.0,0.0,0.0,0.0,0.0,0.0,0.0,0.0,0.0,0.0,0.0,0.0,0.0,0.0,0.0,0.0,0.0,0.0,0.0,0.0,0.0,0.0,0.0,0.0,0.0,0.0,0.0,0.0,0.0,0.0,0.0,0.0,0.0,0.0,0.0,0.0,0.0,0.0,0.0,0.4562,0.6022,0.7033,0.746,0.6764,0.6456,0.0,0.0,0.0,0.0,0.0,0.0,0.0,0.0,0.0,0.0,0.0,0.0,0.0,0.0,0.0,0.0,0.0,0.0,0.0,0.0,0.0,0.0,0.0,0.0,0.0,0.0,0.0,0.0,0.0,0.0,0.0,0.0,0.0,0.0,0.0,0.0,0.0,0.0,0.0,0.0,0.0,0.0,0.0,0.0,0.0,0.0,0.0,0.0,0.0,0.0,0.0,0.0,0.0,0.0,0.0,0.0,0.0,0.0,0.0,0.0,0.0,0.0,0.0,0.0,0.0,0.0,0.0,0.0,0.0,0.0,0.0,0.0,0.0,0.0,0.0,0.0,0.0,0.0,0.0,0.0,0.0,0.0,0.0,0.0,0.0,0.0,0.0,0.0,0.0,0.0,0.0,0.0,0.0,0.0,0.0,0.0,0.0,0.0,0.0,0.0,0.0,0.0,0.0,0.0,0.0,0.0,0.0,0.0,0.0,0.4326,0.6224,0.744,0.7772,0.7125,0.6812,0.6841,0.0,0.0,0.0,0.0,0.0,0.0,0.0,0.0,0.0,0.0,0.0,0.0,0.0,0.0,0.0,0.0,0.0,0.0,0.0,0.0,0.0,0.0,0.0,0.0,0.0,0.0,0.0,0.0,0.0,0.0,0.0,0.0,0.0,0.0,0.0,0.0,0.0,0.0,0.0,0.0,0.0,0.0,0.0,0.0,0.0,0.0,0.0,0.0,0.0,0.0,0.0,0.0,0.0,0.0,0.0,0.0,0.0,0.0,0.0,0.0,0.0,0.0,0.0,0.0,0.0,0.0,0.0,0.0,0.0,0.0,0.0,0.0,0.0,0.0,0.0,0.0,0.0,0.0,0.0,0.0,0.0,0.0,0.0,0.0,0.0,0.0,0.0,0.0,0.0,0.0,0.0,0.0,0.0,0.0,0.0,0.0,0.0,0.0,0.0,0.0,0.0,0.0,0.0,0.0,0.0,0.0,0.0,0.0,0.5175,0.7438,0.8386,0.8031,0.8034,0.7485,0.0,0.0,0.0,0.0,0.0,0.0,0.0,0.0,0.0,0.0,0.0,0.0,0.0,0.0,0.0,0.0,0.0,0.0,0.0,0.0,0.0,0.0,0.0,0.0,0.0,0.0,0.0,0.0,0.0,0.0,0.0,0.0,0.0,0.0,0.0,0.0,0.0,0.0,0.0,0.0,0.0,0.0,0.0,0.0,0.0,0.0,0.0,0.0,0.0,0.0,0.0,0.0,0.0,0.0,0.0,0.0,0.0,0.0,0.0,0.0,0.0,0.0,0.0,0.0,0.0,0.0,0.0,0.0,0.0,0.0,0.0,0.0,0.0,0.0,0.0,0.0,0.0,0.0,0.0,0.0,0.0,0.0,0.0,0.0,0.0,0.0,0.0,0.0,0.0,0.0,0.0,0.0,0.0,0.0,0.0,0.0,0.0,0.0,0.0,0.0,0.0,0.0,0.0,0.0,0.0,0.0,0.0,0.0,0.0,0.4876,0.7311,0.8696,0.8912,0.8413,0.8011,0.0,0.0,0.0,0.0,0.0,0.0,0.0,0.0,0.0,0.0,0.0,0.0,0.0,0.0,0.0,0.0,0.0,0.0,0.0,0.0,0.0,0.0,0.0,0.0,0.0,0.0,0.0,0.0,0.0,0.0,0.0,0.0,0.0,0.0,0.0,0.0,0.0,0.0,0.0,0.0,0.0,0.0,0.0,0.0,0.0,0.0,0.0,0.0,0.0,0.0,0.0,0.0,0.0,0.0,0.0,0.0,0.0,0.0,0.0,0.0,0.0,0.0,0.0,0.0,0.0,0.0,0.0,0.0,0.0,0.0,0.0,0.0,0.0,0.0,0.0,0.0,0.0,0.0,0.0,0.0,0.0,0.0,0.0,0.0,0.0,0.0,0.0,0.0,0.0,0.0,0.0,0.0,0.0,0.0,0.0,0.0,0.0,0.0,0.0,0.0,0.0,0.0,0.0,0.0,0.0,0.0,0.0,0.0,0.433,0.5453,0.7764,0.9399,1.0292,0.9145,0.8434,0.0,0.0,0.0,0.0,0.0,0.0,0.0,0.0,0.0,0.0,0.0,0.0,0.0,0.0,0.0,0.0,0.0,0.0,0.0,0.0,0.0,0.0,0.0,0.0,0.0,0.0,0.0,0.0,0.0,0.0,0.0,0.0,0.0,0.0,0.0,0.0,0.0,0.0,0.0,0.0,0.0,0.0,0.0,0.0,0.0,0.0,0.0,0.0,0.0,0.0,0.0,0.0,0.0,0.0,0.0,0.0,0.0,0.0,0.0,0.0,0.0,0.0,0.0,0.0,0.0,0.0,0.0,0.0,0.0,0.0,0.0,0.0,0.0,0.0,0.0,0.0,0.0,0.0,0.0,0.0,0.0,0.0,0.0,0.0,0.0,0.0,0.0,0.0,0.0,0.0,0.0,0.0,0.0,0.0,0.0,0.0,0.0,0.0,0.0,0.0,0.0,0.0,0.0,0.0,0.0,0.0,0.0,0.0,0.5282,0.6344,0.8557,1.0393,1.1747,1.0138,0.889,0.0,0.0,0.0,0.0,0.0,0.0,0.0,0.0,0.0,0.0,0.0,0.0,0.0,0.0,0.0,0.0,0.0,0.0,0.0,0.0,0.0,0.0,0.0,0.0,0.0,0.0,0.0,0.0,0.0,0.0,0.0,0.0,0.0,0.0,0.0,0.0,0.0,0.0,0.0,0.0,0.0,0.0,0.0,0.0,0.0,0.0,0.0,0.0,0.0,0.0,0.0,0.0,0.0,0.0,0.0,0.0,0.0,0.0,0.0,0.0,0.0,0.0,0.0,0.0,0.0,0.0,0.0,0.0,0.0,0.0,0.0,0.0,0.0,0.0,0.0,0.0,0.0,0.0,0.0,0.0,0.0,0.0,0.0,0.0,0.0,0.0,0.0,0.0,0.0,0.0,0.0,0.0,0.0,0.0,0.0,0.0,0.0,0.0,0.0,0.0,0.0,0.0,0.0,0.0,0.0,0.0,0.0,0.0,0.5836,0.5549,0.9102,1.1642,1.3004,1.1044,1.0012,0.0,0.0,0.0,0.0,0.0,0.0,0.0,0.0,0.0,0.0,0.0,0.0,0.0,0.0,0.0,0.0,0.0,0.0,0.0,0.0,0.0,0.0,0.0,0.0,0.0,0.0,0.0,0.0,0.0,0.0,0.0,0.0,0.0,0.0,0.0,0.0,0.0,0.0,0.0,0.0,0.0,0.0,0.0,0.0,0.0,0.0,0.0,0.0,0.5866,0.0,0.0,0.0,0.0,0.0,0.0,0.0,0.0,0.0,0.0,0.0,0.0,0.0,0.0,0.0,0.0,0.0,0.0,0.0,0.0,0.0,0.0,0.0,0.0,0.0,0.0,0.0,0.0,0.0,0.0,0.0,0.0,0.0,0.0,0.0,0.0,0.0,0.0,0.0,0.0,0.0,0.0,0.0,0.0,0.0,0.0,0.0,0.0,0.0,0.0,0.0,0.0,0.0,0.0,0.0,0.0,0.0,0.0,0.0,0.5993,0.7117,0.9922,1.2081,1.3267,1.1936,1.0924,0.0,0.0,0.0,0.0,0.0,0.0,0.0,0.0,0.0,0.0,0.0,0.0,0.0,0.0,0.0,0.0,0.0,0.0,0.0,0.0,0.0,0.0,0.0,0.0,0.0,0.0,0.0,0.0,0.0,0.0,0.0,0.0,0.0,0.0,0.0,0.0,0.0,0.0,0.0,0.0,0.0,0.0,0.0,0.0,0.0,0.0,0.0,0.0,0.0,0.0,0.0,0.0,0.0,0.0,0.0,0.0,0.0,0.0,0.0,0.0,0.0,0.0,0.0,0.0,0.0,0.0,0.0,0.0,0.0,0.0,0.0,0.0,0.0,0.0,0.0,0.0,0.0,0.0,0.0,0.0,0.0,0.0,0.0,0.0,0.0,0.0,0.0,0.0,0.0,0.0,0.0,0.0,0.0,0.0,0.0,0.0,0.0,0.0,0.0,0.0,0.0,0.0,0.0,0.0,0.0,0.0,0.0,0.4427,0.6274,0.9323,1.0904,1.2243,1.3339,1.2701,1.1641,1.0244,0.0,0.0,0.0,0.0,0.0,0.0,0.0,0.0,0.0,0.0,0.0,0.0,0.0,0.0,0.0,0.0,0.0,0.0,0.0,0.0,0.0,0.0,0.0,0.0,0.0,0.0,0.0,0.0,0.0,0.0,0.0,0.0,0.0,0.0,0.0,0.0,0.0,0.0,0.5753,0.6972,0.0,0.0,0.0,0.0,0.0,0.0,0.0,0.0,0.7032,0.0,0.0,0.0,0.0,0.0,0.0,0.0,0.0,0.0,0.0,0.0,0.0,0.0,0.0,0.0,0.0,0.0,0.0,0.0,0.0,0.0,0.0,0.0,0.0,0.0,0.0,0.0,0.0,0.0,0.0,0.0,0.0,0.0,0.0,0.0,0.0,0.0,0.0,0.0,0.0,0.0,0.0,0.0,0.0,0.0,0.0,0.0,0.0,0.0,0.0,0.0,0.0,0.0,0.0,0.0,0.0,0.3938,0.5564,0.7679,1.0319,1.1888,1.2915,1.3366,1.2706,1.1874,1.0913,0.0,0.0,0.0,0.0,0.0,0.0,0.0,0.0,0.0,0.0,0.0,0.0,0.0,0.0,0.0,0.0,0.0,0.0,0.0,0.0,0.0,0.0,0.0,0.0,0.0,0.0,0.0,0.0,0.0,0.0,0.0,0.0,0.0,0.0,0.0,0.0,0.0,0.0,0.0,0.7985,0.8609,0.0,0.0,0.0,0.0,0.0,0.0,0.0,0.0,0.846,0.0,0.0,0.0,0.0,0.0,0.0,0.0,0.0,0.0,0.0,0.0,0.0,0.0,0.0,0.0,0.0,0.0,0.0,0.0,0.0,0.0,0.0,0.0,0.0,0.0,0.0,0.0,0.0,0.0,0.0,0.0,0.0,0.0,0.0,0.0,0.0,0.0,0.0,0.0,0.0,0.0,0.0,0.0,0.0,0.0,0.0,0.0,0.0,0.0,0.0,0.0,0.0,0.0,0.0,0.0,0.5708,0.5884,0.7437,1.0499,1.2262,1.3221,1.3371,1.2694,1.1904,0.0,0.0,0.0,0.0,0.0,0.0,0.0,0.0,0.0,0.0,0.0,0.0,0.0,0.0,0.0,0.0,0.0,0.0,0.0,0.0,0.0,0.0,0.0,0.0,0.0,0.0,0.0,0.0,0.0,0.0,0.0,0.0,0.0,0.0,0.0,0.0,0.0,0.0,0.0,0.0,0.895,0.9626,0.919,0.0,0.0,0.0,0.0,0.0,0.0,0.8912,0.8758,0.0,0.0,0.0,0.0,0.0,0.0,0.0,0.0,0.0,0.0,0.0,0.0,0.0,0.0,0.0,0.0,0.0,0.0,0.0,0.0,0.0,0.0,0.0,0.0,0.0,0.0,0.0,0.0,0.0,0.0,0.0,0.0,0.0,0.0,0.0,0.0,0.0,0.0,0.0,0.0,0.0,0.0,0.0,0.0,0.0,0.0,0.0,0.0,0.0,0.0,0.0,0.0,0.0,0.0,0.0,0.7343,0.6444,0.7414,1.0567,1.2382,1.335,1.3379,1.2525,1.1742,0.0,0.0,0.0,0.0,0.0,0.0,0.0,0.0,0.0,0.0,0.0,0.0,0.0,0.0,0.0,0.0,0.0,0.0,0.0,0.0,0.0,0.0,0.0,0.0,0.0,0.0,0.0,0.0,0.0,0.0,0.0,0.0,0.0,0.0,0.0,0.0,0.0,0.0,0.0,0.0,0.0,1.0476,0.9936,0.9218,0.0,0.0,0.0,0.0,1.0251,0.9985,0.0,0.0,0.0,0.0,0.0,0.0,0.0,0.0,0.0,0.0,0.0,0.0,0.0,0.0,0.0,0.0,0.0,0.0,0.0,0.0,0.0,0.0,0.0,0.0,0.0,0.0,0.0,0.0,0.0,0.0,0.0,0.0,0.0,0.0,0.0,0.0,0.0,0.0,0.0,0.0,0.0,0.0,0.0,0.0,0.0,0.0,0.0,0.0,0.0,0.0,0.0,0.0,0.0,0.0,0.0,0.0,0.7396,0.8184,0.927,1.074,1.2223,1.3118,1.3367,1.1979,1.1197,0.0,0.0,0.0,0.0,0.0,0.0,0.0,0.0,0.0,0.0,0.0,0.0,0.0,0.0,0.0,0.0,0.0,0.0,0.0,0.0,0.0,0.0,0.0,0.0,0.0,0.0,0.0,0.0,0.0,0.0,0.0,0.0,0.0,0.0,0.0,0.0,0.0,0.0,0.0,0.0,0.0,1.0947,0.839,0.9272,0.9895,0.0,0.0,1.0804,1.2762,1.2985,0.0,0.0,0.0,0.0,0.0,0.0,0.0,0.0,0.0,0.0,0.0,0.0,0.0,0.0,0.0,0.0,0.0,0.0,0.0,0.0,0.0,0.0,0.0,0.0,0.0,0.0,0.0,0.0,0.0,0.0,0.0,0.0,0.0,0.0,0.0,0.0,0.0,0.0,0.0,0.0,0.0,0.0,0.0,0.0,0.0,0.0,0.0,0.0,0.0,0.0,0.0,0.0,0.0,0.0,0.0,0.4402,0.7948,0.8689,0.9822,1.1479,1.2452,1.304,1.3405,1.1915,1.1099,0.0,0.0,0.0,0.0,0.0,0.0,0.0,0.0,0.0,0.0,0.0,0.0,0.0,0.0,0.0,0.0,0.0,0.0,0.0,0.0,0.0,0.0,0.0,0.0,0.0,0.0,0.0,0.0,0.0,0.0,0.0,0.0,0.0,0.0,0.0,0.0,0.0,0.0,0.0,0.0,0.0,0.0,0.9686,1.0727,0.0,0.0,0.0,1.2351,1.3431,0.0,0.0,0.0,0.0,0.0,0.0,0.0,0.0,0.0,0.0,0.0,0.0,0.0,0.0,0.0,0.0,0.0,0.0,0.0,0.0,0.0,0.0,0.0,0.0,0.0,0.0,0.0,0.0,0.0,0.0,0.0,0.0,0.0,0.0,0.0,0.0,0.0,0.0,0.0,0.0,0.0,0.0,0.0,0.0,0.0,0.0,0.0,0.0,0.0,0.0,0.0,0.0,0.0,0.0,0.0,0.0,0.0,0.8242,0.869,0.9941,1.201,1.2598,1.3013,1.3367,1.1919,0.0,0.0,0.0,0.0,0.0,0.0,0.0,0.0,0.0,0.0,0.0,0.0,0.0,0.0,0.0,0.0,0.0,0.0,0.0,0.0,0.0,0.0,0.0,0.0,0.0,0.0,0.0,0.0,0.0,0.0,0.0,0.0,0.0,0.0,0.0,0.0,0.0,0.0,0.0,0.0,0.0,0.0,1.0885,1.1127,1.212,1.2939,0.0,0.0,1.3805,1.4685,1.5138,1.4591,0.0,0.0,0.0,0.0,0.0,0.0,0.0,0.0,0.0,0.0,0.0,0.0,0.0,0.0,0.0,0.0,0.0,0.0,0.0,0.0,0.0,0.0,0.0,0.0,0.0,0.0,0.0,0.0,0.0,0.0,0.0,0.0,0.0,0.0,0.0,0.0,0.0,0.0,0.0,0.0,0.0,0.0,0.0,0.0,0.0,0.0,0.0,0.0,0.0,0.0,0.0,0.0,0.0,0.0,0.0,0.7708,0.8304,0.9697,1.202,1.2459,1.2871,1.3367,1.1915,1.1099,0.0,0.0,0.0,0.0,0.0,0.0,0.0,0.0,0.0,0.0,0.0,0.0,0.0,0.0,0.0,0.0,0.0,0.0,0.0,0.0,0.0,0.0,0.0,0.0,0.0,0.0,0.0,0.0,0.0,0.0,0.0,0.0,0.0,0.0,0.0,0.0,0.0,0.0,0.0,0.0,0.0,1.1824,1.157,1.3048,1.467,0.0,0.0,1.5048,1.7423,1.8225,1.7319,1.367,0.0,0.0,0.0,0.0,0.0,0.0,0.0,0.0,0.0,0.0,0.0,0.0,0.0,0.0,0.0,0.0,0.0,0.0,0.0,0.0,0.0,0.0,0.0,0.0,0.0,0.0,0.0,0.0,0.0,0.0,0.0,0.0,0.0,0.0,0.0,0.0,0.0,0.0,0.0,0.0,0.0,0.0,0.0,0.0,0.0,0.0,0.0,0.0,0.0,0.0,0.0,0.0,0.0,0.4977,0.7754,0.8426,0.9834,1.1984,1.2444,1.2857,1.3405,1.2393,1.1603,0.0,0.0,0.0,0.0,0.0,0.0,0.0,0.0,0.0,0.0,0.0,0.0,0.0,0.0,0.0,0.0,0.0,0.0,0.0,0.0,0.0,0.0,0.0,0.0,0.0,0.0,0.0,0.0,0.4356,0.5436,0.6494,0.0,0.0,0.0,0.0,0.0,0.0,0.0,0.0,0.0,0.0,1.2144,1.253,1.4344,0.0,0.0,1.6611,1.6905,1.7507,1.7424,1.6477,1.4082,1.2547,0.0,0.0,0.0,0.0,0.0,0.0,0.0,0.0,0.0,0.0,0.0,0.0,0.0,0.0,0.0,0.0,0.0,0.0,0.0,0.0,0.0,0.0,0.0,0.0,0.0,0.0,0.0,0.0,0.0,0.0,0.0,0.0,0.0,0.0,0.0,0.0,0.0,0.0,0.0,0.0,0.0,0.0,0.0,0.0,0.0,0.0,0.0,0.0,0.0,0.0,0.0,0.0,0.5313,0.7592,0.8459,0.9923,1.2087,1.2444,1.2825,1.3247,1.2654,1.1942,0.0,0.0,0.0,0.0,0.0,0.0,0.0,0.0,0.0,0.0,0.0,0.0,0.0,0.0,0.0,0.0,0.0,0.0,0.0,0.0,0.0,0.0,0.0,0.0,0.0,0.0,0.0,0.0,0.5419,0.6241,0.6573,0.0,0.0,0.0,0.0,0.0,0.0,0.0,0.0,0.0,0.0,1.266,1.3172,1.5271,1.6983,1.7422,1.7734,1.7904,1.7763,1.72,1.6195,1.4512,0.0,0.0,0.0,0.0,0.0,0.0,0.0,0.0,0.0,0.0,0.0,0.0,0.0,0.0,0.0,0.0,0.0,0.0,0.0,0.0,0.0,0.0,0.0,0.0,0.0,0.0,0.0,0.0,0.0,0.0,0.3094,0.0,0.0,0.0,0.0,0.0,0.0,0.0,0.0,0.0,0.0,0.0,0.0,0.0,0.0,0.0,0.0,0.0,0.0,0.0,0.0,0.0,0.0,0.0,0.7192,0.8319,0.9986,1.2102,1.2476,1.2741,1.2985,1.2535,1.1908,1.1096,0.0,0.0,0.0,0.0,0.0,0.0,0.0,0.0,0.0,0.0,0.0,0.0,0.0,0.0,0.0,0.0,0.0,0.0,0.0,0.0,0.0,0.0,0.0,0.0,0.0,0.0,0.5617,0.6173,0.6594,0.0,0.0,0.0,0.0,0.0,0.0,0.0,0.0,0.0,0.0,1.3445,1.3557,1.3306,1.5708,1.8035,1.9434,1.843,1.774,1.8615,1.8267,1.7206,0.0,0.0,0.0,0.0,0.0,0.0,0.0,0.0,0.0,0.0,0.0,0.0,0.0,0.0,0.0,0.0,0.0,0.0,0.0,0.0,0.0,0.0,0.0,0.0,0.0,0.0,0.0,0.3632,0.374,0.0,0.0,0.0,0.0,0.0,0.0,0.0,0.0,0.0,0.0,0.0,0.6832,0.6643,0.0,0.0,0.0,0.0,0.0,0.0,0.0,0.0,0.0,0.0,0.0,0.0,0.5019,0.6892,0.836,0.9992,1.1803,1.2169,1.2544,1.2991,1.2849,1.2232,1.1059,0.0,0.0,0.0,0.0,0.0,0.0,0.0,0.0,0.0,0.0,0.0,0.0,0.0,0.0,0.0,0.0,0.0,0.0,0.0,0.0,0.0,0.0,0.0,0.0,0.0,0.6185,0.0,0.0,0.0,0.0,0.0,0.0,0.0,0.0,0.0,0.0,0.0,0.9917,1.382,1.3788,1.4042,1.5852,1.6977,1.8125,0.0,0.0,0.0,0.0,0.0,0.0,0.0,0.0,0.0,0.0,0.0,0.0,0.0,0.0,1.4783,1.1848,1.1495,1.1721,1.189,0.0,0.0,0.0,0.0,0.0,0.0,0.0,0.0,0.0,0.0,0.0,0.0,0.0,0.0,0.0,0.0,0.4398,0.0,0.0,0.0,0.0,0.0,0.0,0.0,0.0,0.6338,0.7046,0.7703,0.7703,0.7914,0.0,0.7365,0.6379,0.0,0.0,0.0,0.0,0.0,0.0,0.0,0.0,0.5442,0.7246,0.8714,1.0212,1.167,1.2133,1.2505,1.2839,1.2809,1.2319,1.1384,1.0066,0.9162,0.0,0.0,0.0,0.0,0.0,0.0,0.0,0.0,0.0,0.0,0.0,0.0,0.0,0.0,0.0,0.0,0.0,0.0,0.0,0.0,0.0,0.0,0.0,0.6282,0.0,0.0,0.0,0.0,0.0,0.0,0.0,0.0,0.0,0.7071,0.8717,1.1253,1.4481,1.4362,1.4673,1.6565,0.0,0.0,0.0,0.0,0.0,0.0,0.0,1.6876,1.6792,1.5839,1.536,1.6186,1.4375,1.4086,1.8042,0.0,0.0,1.443,1.4014,1.4205,1.4422,1.4403,1.4373,1.4509,1.5406,1.5753,0.0,0.0,0.0,0.0,0.0,0.0,0.0,0.0,0.4731,0.4706,0.0,0.5263,0.0,0.0,0.0,0.0,0.0,0.0,0.0,0.0,0.7723,0.8333,0.836,0.8369,0.8358,0.8331,0.8074,0.7905,0.777,0.5341,0.0,0.0,0.0,0.0,0.0,0.0,0.6467,0.8106,0.9379,1.0604,1.176,1.23,1.2585,1.2618,1.2461,1.2247,1.202,1.1319,1.0531,0.9709,0.86,0.0,0.0,0.0,0.0,0.0,0.0,0.0,0.0,0.0,0.0,0.0,0.0,0.0,0.0,0.0,0.0,0.0,0.0,0.0,0.0,0.5776,0.0,0.0,0.0,0.0,0.0,0.0,0.0,0.0,0.0,0.0,1.0191,1.1809,1.3409,1.4739,0.0,0.0,0.0,0.0,1.8549,1.8693,1.8312,1.8221,1.8743,1.8418,1.8095,1.8093,0.0,0.0,1.961,1.887,1.8443,1.9585,1.98,1.9345,1.769,1.6968,1.6852,1.7384,1.7188,1.7246,1.8147,1.8785,1.9426,0.5145,0.0,0.0,0.0,0.0,0.5179,0.5613,0.6087,0.6426,0.6324,0.5955,0.6605,0.0,0.0,0.0,0.0,0.0,0.0,0.7257,0.7834,0.834,0.893,0.9481,0.9332,0.943,0.9784,0.9084,0.8665,0.8429,0.7335,0.6117,0.4838,0.0,0.0,0.0,0.0,0.7244,0.8894,0.9885,1.0812,1.1784,1.2138,1.25,1.2871,1.3004,1.305,1.3013,1.2156,1.1585,1.1318,1.0376,0.0,0.0,0.0,0.0,0.0,0.0,0.0,0.0,0.0,0.0,0.0,0.0,0.0,0.0,0.0,0.0,0.0,0.0,0.0,0.7238,0.7196,0.7214,0.0,0.0,0.0,0.0,0.0,0.0,0.0,0.0,0.0,1.1379,1.2866,1.4244,0.0,0.0,1.6206,1.6172,1.6736,1.7858,1.9982,0.0,0.0,0.0,2.0313,1.9972,2.0065,2.023,1.9975,1.885,1.9032,1.9434,1.9761,2.0558,2.0869,2.0031,1.9684,1.9789,2.0293,2.0366,2.0354,2.0694,2.1243,2.1707,0.6143,0.5873,0.5439,0.5482,0.5887,0.6245,0.6717,0.7257,0.7559,0.7546,0.7308,0.7763,0.8671,0.9811,0.7895,0.0,0.0,0.0,0.8511,0.9047,0.9406,0.9867,1.0347,1.0199,1.0197,1.037,0.986,0.9458,0.9175,0.853,0.7744,0.6753,0.0,0.0,0.6119,0.7149,0.8352,0.9616,1.0427,1.1128,1.179,1.2169,1.2617,1.3138,1.3299,1.3383,1.3383,1.2857,1.2486,1.2389,1.1938,1.1104,0.0,0.0,0.0,0.0,0.0,0.0,0.0,0.0,0.0,0.0,0.0,0.4224,0.0,0.0,0.0,0.0,0.5333,0.6879,0.8759,0.8243,0.0,0.0,0.0,0.0,0.0,0.0,0.0,1.0019,1.2184,1.3023,1.1256,1.3723,1.583,1.6164,1.603,1.612,1.6844,0.0,1.8567,2.08,2.1327,2.1545,2.167,2.1369,2.112,2.1201,2.122,2.089,1.9869,1.9746,1.9949,2.0444,2.1095,2.1684,2.1875,2.19,2.1892,2.2092,2.2309,2.2571,2.2832,2.342,2.3663,0.7121,0.7103,0.6673,0.6724,0.7063,0.7291,0.7611,0.8004,0.8263,0.8346,0.8368,0.874,0.9259,0.983,0.8702,0.0,0.0,0.9405,0.9911,1.0136,1.068,1.0936,1.0966,1.0924,1.0769,1.0464,1.0421,1.0247,0.9951,0.9169,0.8797,0.879,0.8069,0.7696,0.7719,0.8679,0.9565,1.0213,1.0895,1.1439,1.1865,1.2367,1.2866,1.3362,1.3383,1.3383,1.3383,1.3383,1.3265,1.3036,1.3204,1.3125,1.2549,0.0,0.0,0.0,0.0,0.0,0.0,0.0,0.0,0.0,0.0,0.0,0.0,0.0,0.0,0.0,0.6151,0.0,0.9901,0.924,0.0,0.0,0.0,1.023,1.0646,1.1877,1.2183,1.0947,0.0,0.0,1.0715,0.0,1.7866,1.8279,1.6532,1.5789,1.7414,1.892,2.0215,2.1212,2.1791,2.2079,2.1757,2.1807,2.1918,2.188,2.1884,2.1928,2.1749,2.0998,2.0656,2.1985,2.1929,2.2182,2.346,2.3646,2.3601,2.3171,2.348,2.4035,2.4559,2.5064,2.5067,0.7293,0.753,0.7447,0.7424,0.7483,0.7894,0.825,0.8607,0.8993,0.8974,0.8712,0.9353,0.9742,0.9881,0.9845,0.986,0.9958,1.0387,1.076,1.1005,1.1148,1.1353,1.1566,1.1336,1.1164,1.106,1.0616,1.0502,1.0625,0.9963,0.9613,0.9606,0.9662,0.9162,0.8144,0.8978,0.9727,1.0363,1.0708,1.1414,1.2349,1.2527,1.2866,1.3367,1.3383,1.3383,1.3383,1.3383,1.3265,1.3018,1.2866,1.2718,1.2558,0.9626,0.0,0.0,0.0,0.0,0.0,0.0,0.0,0.0,0.0,0.5291,0.4219,0.0,0.612,0.0,0.5695,0.8045,1.0926,1.1718,0.0,0.0,1.1367,1.1946,1.3106,1.4218,1.4544,1.351,1.5507,1.6486,1.5096,1.7113,1.8857,1.9309,1.848,1.7877,1.8125,1.9913,2.1294,2.1509,2.1481,2.1465,2.1795,2.2581,2.315,2.3021,2.3429,2.3681,2.3222,2.2935,2.3444,2.5497,2.5186,2.4597,2.4447,2.4791,2.5262,2.5523,2.5408,2.5195,2.5343,2.5521,2.5435,0.7601,0.7968,0.7961,0.8109,0.8392,0.8497,0.8731,0.9107,0.9609,0.9628,0.9349,1.0027,1.0342,1.0361,1.0658,1.1071,1.1446,1.1364,1.1622,1.2157,1.1728,1.1632,1.1809,1.1615,1.1617,1.1739,1.1394,1.1432,1.1701,1.1354,1.1192,1.1189,1.154,1.1144,1.0073,1.0197,1.0396,1.0575,1.1008,1.1986,1.3451,1.3012,1.294,1.3388,1.3066,1.2732,1.2385,1.2385,1.2221,1.1915,1.2334,1.2515,1.2214,1.0597,0.8907,0.0,0.0,0.0,0.0,0.0,0.0,0.0,0.0,0.0,0.0,0.0,0.7236,0.0,0.8369,0.0,1.2847,1.3618,1.3643,1.2797,1.3054,1.3693,1.4698,1.5563,1.6059,1.6059,1.7439,1.8318,1.8028,1.8757,1.9434,1.9761,1.9434,1.912,1.9057,2.0082,2.0841,2.0841,2.1272,2.1791,2.2361,2.3063,2.351,2.3478,2.3725,2.389,2.3585,2.3501,2.4199,2.6087,2.5932,2.5355,2.5083,2.5252,2.5727,2.6314,2.6555,2.65,2.6494,2.6494,2.6405,0.7983,0.8305,0.8347,0.8738,0.9296,0.9023,0.9145,0.9568,1.0141,1.028,1.0091,1.0896,1.1278,1.1294,1.1537,1.2071,1.2824,1.2336,1.2551,1.3295,1.2449,1.2059,1.2059,1.2065,1.2222,1.2489,1.2446,1.2608,1.2924,1.2842,1.2801,1.2804,1.3135,1.2934,1.2244,1.1809,1.1393,1.0957,1.159,1.2774,1.4499,1.3442,1.2988,1.3198,1.261,1.1885,1.1105,1.111,1.0965,1.0672,1.1729,1.2104,1.1582,1.1396,1.022,0.0,0.8184,0.0,0.0,0.0,0.0,0.0,0.0,0.0,0.0,0.7622,0.8319,1.0159,1.2038,1.3695,1.5005,1.512,1.4884,1.4384,1.4701,1.5202,1.573,1.6204,1.6949,1.8117,1.8543,1.8995,1.961,1.9824,1.9799,1.9786,1.9786,1.971,1.9761,1.9837,1.9952,1.9974,2.1186,2.222,2.2922,2.328,2.3426,2.3495,2.3604,2.3496,2.3363,2.3363,2.3756,2.4819,2.5259,2.537,2.5315,2.5398,2.5768,2.6401,2.7025,2.747,2.7495,2.7452,2.7585,0.8226,0.8333,0.8585,0.8793,0.8942,0.9397,0.9836,1.0216,1.0347,1.0527,1.0842,1.2496,1.3281,1.3256,1.3321,1.3271,1.3243,1.3648,1.3774,1.3708,1.3526,1.3436,1.3423,1.3423,1.3458,1.3485,1.3234,1.3279,1.361,1.3073,1.2788,1.2825,1.314,1.2819,1.1989,0.0,0.0,0.0,1.2295,1.3,1.3733,1.3052,1.2616,1.2493,1.2208,0.0,1.1006,1.129,1.1375,1.1107,1.101,0.0,0.0,0.0,0.0,0.0,0.0,0.0,0.0,0.0,0.0,0.0,0.9722,0.9656,0.9267,0.9308,1.0277,1.2348,1.2824,1.3848,1.597,1.6199,1.5984,1.5492,1.5449,1.568,1.6185,1.6365,1.6973,1.842,1.8782,1.9158,1.9685,1.9824,1.9824,1.9824,1.9824,1.9824,1.9811,1.9849,2.015,2.1007,2.1513,2.1875,2.2402,2.3015,2.3534,2.3961,2.4121,2.3879,2.3294,2.316,2.3171,2.3621,2.4567,2.5217,2.4854,2.5563,2.6243,2.6456,2.7087,2.7585,2.7585,2.7585,2.7585,0.8926,0.0,0.9843,0.9984,0.0,1.0795,1.1304,1.1334,1.1346,1.172,1.2439,1.3814,1.4762,1.5235,1.4594,1.4474,1.4768,1.4438,1.4477,1.4745,1.4115,1.3782,1.3782,1.3782,1.3968,1.4267,1.3987,1.4178,1.4746,1.4436,1.4266,1.43,1.4452,1.4267,1.3831,1.443,1.4378,1.3531,1.3358,1.3982,1.5323,1.4535,1.3952,1.3671,0.0,0.0,0.0,0.0,0.0,0.0,0.0,0.0,0.0,0.0,0.0,1.1043,1.1365,1.1284,1.0804,1.0991,1.1382,1.1925,1.2462,1.1913,0.9911,1.1347,1.3057,1.465,1.4737,1.5175,1.6349,1.65,1.6375,1.6113,1.5806,1.579,1.6266,1.6384,1.6856,1.7949,1.8657,1.9208,1.9736,1.9824,1.9824,1.9836,2.0124,2.0337,2.0337,2.0288,2.0653,2.1694,2.1895,2.2096,2.2598,2.2963,2.3335,2.3629,2.3721,2.3558,2.317,2.3095,2.3095,2.3155,2.3769,2.4267,2.4641,2.5356,2.596,2.6068,2.6837,2.7547,2.7585,2.7585,2.7585,0.9739,0.9766,1.1065,1.1297,1.0919,1.2229,1.2845,1.292,0.0,0.0,0.0,1.4931,1.5995,1.6906,1.5765,1.5647,1.6289,1.5289,1.5247,1.5901,1.4838,1.4308,1.4251,1.4278,1.458,1.5041,1.49,1.5194,1.5862,1.5892,1.5863,1.5806,1.5791,1.5791,1.5806,1.592,1.5829,1.5445,1.4446,1.4904,1.6901,1.6111,1.5506,1.5191,1.4359,1.3402,1.2302,1.2344,1.2349,1.2207,1.1524,1.0965,1.0647,1.179,1.2469,1.2435,1.3082,1.3098,1.2261,1.258,1.3291,1.4324,1.4783,1.3828,1.0973,1.33,1.5361,1.64,1.65,1.6489,1.65,1.65,1.65,1.6489,1.6049,1.5886,1.6255,1.6491,1.6881,1.7621,1.8484,1.9208,1.971,1.9824,1.9824,1.9886,2.0412,2.1,2.1114,2.1178,2.1443,2.2121,2.2332,2.2608,2.297,2.3085,2.314,2.3384,2.3275,2.3185,2.341,2.329,2.311,2.3095,2.3095,2.3607,2.4526,2.5148,2.5412,2.555,2.6667,2.7657,2.7764,2.7794,2.7824,1.0362,1.0639,1.1099,1.1723,1.2489,1.2709,1.3774,1.5249,1.5006,1.4477,1.3923,1.575,1.6959,1.7647,1.7175,1.6853,1.676,1.6841,1.6792,0.0,1.6479,1.6209,1.5975,1.6229,1.6272,1.6126,1.6335,1.6384,1.626,1.6219,1.608,1.5827,1.5791,1.5799,1.5849,1.6376,1.6487,1.6153,1.495,1.4843,1.5896,1.5806,1.5698,1.5505,1.4394,1.3246,1.2179,1.2568,1.2708,1.2715,1.3419,1.3665,1.331,1.4453,1.5321,1.543,1.4977,1.4582,1.445,1.4507,1.4818,1.5402,1.5552,1.5185,1.4321,1.4617,1.5361,1.6385,1.65,1.65,1.65,1.655,1.6575,1.6532,1.6401,1.6312,1.6443,1.6872,1.7387,1.7967,1.8598,1.9208,1.9685,1.9811,1.9861,1.9936,2.0588,2.1201,2.1942,2.2508,2.2569,2.2458,2.2709,2.2995,2.307,2.3095,2.3335,2.4032,2.3499,2.3484,2.4497,2.3813,2.3155,2.3095,2.3095,2.368,2.4937,2.5329,2.5674,2.615,2.7081,2.7812,2.8321,2.85,2.8487,1.1467,1.1959,1.2533,1.2992,1.3396,1.4129,1.5155,1.6318,1.6375,1.6003,1.5561,1.6612,1.7326,1.776,1.7647,1.7496,1.7359,1.7314,1.7218,1.7058,1.6869,1.6734,1.6603,1.6585,1.6585,1.6565,1.6729,1.6626,1.6311,1.6339,1.618,1.582,1.5791,1.5899,1.608,1.6382,1.655,1.6545,1.5999,1.5946,1.6449,1.6713,1.6741,1.6399,1.573,1.4977,1.4139,1.4309,1.442,1.4413,1.4886,1.5058,1.4909,1.5492,1.6453,1.7894,1.6618,1.5759,1.5769,1.5774,1.5869,1.613,1.6134,1.6045,1.5793,1.5779,1.5969,1.645,1.65,1.6498,1.6543,1.7049,1.7355,1.7097,1.6975,1.6967,1.7217,1.7505,1.7912,1.8392,1.9015,1.9509,1.9748,2.0075,2.0326,2.045,2.1114,2.1917,2.2619,2.292,2.302,2.2819,2.2945,2.307,2.3095,2.3095,2.3275,2.3617,2.335,2.341,2.4076,2.3429,2.3185,2.3095,2.312,2.3725,2.5119,2.5384,2.5868,2.6877,2.763,2.8332,2.8949,2.9282,2.9371,1.2882,1.3299,1.3766,1.403,1.425,1.5571,1.6471,1.7045,1.7296,1.726,1.707,1.7296,1.7566,1.7766,1.7777,1.7811,1.7749,1.7515,1.7415,1.7386,1.7138,1.6964,1.6901,1.6767,1.6786,1.692,1.701,1.6829,1.6565,1.6515,1.6291,1.597,1.5998,1.615,1.6423,1.6479,1.6578,1.6701,1.6773,1.6952,1.7251,1.7596,1.7546,1.7068,1.6876,1.6503,1.5856,1.5791,1.5851,1.5994,1.5994,1.5934,1.5829,1.6091,1.7244,1.9236,1.8131,1.7056,1.6721,1.6685,1.6614,1.6511,1.65,1.65,1.65,1.65,1.65,1.65,1.65,1.6523,1.6691,1.7786,1.8431,1.8134,1.7823,1.7824,1.811,1.8342,1.861,1.8984,1.9449,1.9786,1.9886,2.0326,2.0804,2.1253,2.1942,2.2633,2.302,2.3095,2.3095,2.3095,2.3095,2.3095,2.3095,2.3095,2.311,2.3095,2.3261,2.3306,2.3316,2.314,2.3095,2.317,2.3687,2.4477,2.5537,2.584,2.6484,2.7714,2.8481,2.9013,2.9668,3.0149,3.0374,1.4602,1.4506,1.3918,1.4141,1.5196,1.6558,1.7343,1.7664,1.7732,1.7726,1.7675,1.7732,1.7749,1.7777,1.7777,1.7777,1.7777,1.7755,1.7732,1.7726,1.7709,1.756,1.729,1.7503,1.7509,1.7326,1.7538,1.7474,1.7156,1.6863,1.659,1.6335,1.6538,1.6689,1.6799,1.7039,1.6926,1.6376,1.6656,1.7099,1.7675,1.777,1.749,1.6844,1.6812,1.649,1.5886,1.5791,1.6054,1.6555,1.6637,1.6376,1.5994,1.6877,1.8155,1.9549,1.947,1.8807,1.7406,1.7234,1.699,1.6575,1.65,1.65,1.65,1.65,1.65,1.66,1.6575,1.6526,1.6645,1.8363,1.9484,1.9403,1.9065,1.8871,1.8921,1.9333,1.9646,1.9683,1.9746,1.9811,1.9936,2.0477,2.1169,2.2006,2.2558,2.296,2.307,2.3095,2.3095,2.3095,2.3095,2.3095,2.3095,2.3095,2.3145,2.317,2.3562,2.3662,2.3461,2.3271,2.3145,2.3888,2.4966,2.6313,2.6776,2.7103,2.7568,2.8799,2.944,2.9728,3.0313,3.0867,3.1182,1.6107,1.5913,1.5168,1.5228,1.5995,1.7109,1.7675,1.7772,1.7777,1.7777,1.7777,1.7777,1.7777,1.7777,1.7777,1.7777,1.7777,1.7777,1.7777,1.7777,1.7777,1.7709,1.7641,1.7721,1.7715,1.7624,1.7726,1.7641,1.7296,1.6958,1.674,1.6636,1.676,1.6914,1.707,1.7027,1.6857,1.6598,1.674,1.676,1.6664,1.702,1.7283,1.7313,1.6822,1.6583,1.6652,1.6457,1.6645,1.7234,1.7286,1.7182,1.6929,1.7429,1.8296,1.9531,1.9396,1.8674,1.7404,1.7312,1.7063,1.6554,1.65,1.65,1.65,1.65,1.6988,1.8067,1.7289,1.6954,1.8265,1.9282,1.98,1.9787,1.9586,1.9472,1.9472,1.9673,1.9824,1.9824,1.9824,1.9999,2.0512,2.1429,2.2232,2.2734,2.2995,2.3095,2.3095,2.3095,2.3095,2.3095,2.3095,2.3095,2.312,2.3095,2.3246,2.3562,2.3813,2.3904,2.4381,2.4214,2.429,2.4883,2.658,2.7813,2.8212,2.8145,2.8369,2.9662,3.0552,3.0807,3.1032,3.1301,3.1481,1.6989,1.6893,1.6491,1.6357,1.6503,1.7412,1.7777,1.7777,1.7777,1.7777,1.7777,1.7777,1.7777,1.7777,1.7777,1.7777,1.7777,1.7777,1.7777,1.7777,1.7777,1.7777,1.7777,1.7777,1.7777,1.7777,1.7772,1.7635,1.7314,1.707,1.6926,1.6926,1.6926,1.7095,1.735,1.702,1.6773,1.6792,1.6624,1.6282,1.5938,1.6262,1.6782,1.7163,1.6824,1.6771,1.711,1.703,1.7264,1.7938,1.7968,1.8057,1.8245,1.8237,1.8702,1.9513,1.9183,1.8492,1.7588,1.7394,1.7063,1.6586,1.65,1.65,1.65,1.65,1.7515,1.9309,1.8329,1.8217,1.9434,1.9824,1.9824,1.9824,1.9824,1.9824,1.9786,1.9824,1.9861,2.0012,2.01,2.0388,2.1214,2.2268,2.302,2.3045,2.3095,2.3095,2.3095,2.3095,2.3095,2.312,2.3221,2.3361,2.3346,2.3396,2.3637,2.4079,2.4356,2.4748,2.5368,2.5201,2.531,2.5945,2.7867,2.9167,2.9601,2.9493,2.9231,3.0359,3.1136,3.1421,3.1391,3.1511,3.1511,1.6989,1.7314,1.7596,1.7271,1.6745,1.7484,1.7777,1.7777,1.7777,1.7777,1.7777,1.7777,1.7777,1.7777,1.7777,1.7777,1.7777,1.7777,1.7777,1.7777,1.7777,1.7777,1.7777,1.7777,1.7777,1.7777,1.7777,1.7641,1.7332,1.7296,1.7284,1.7278,1.726,1.7421,1.7601,1.7064,1.678,1.6721,1.6212,1.5863,1.5834,1.5849,1.6005,1.613,1.6771,1.705,1.6931,1.7348,1.7968,1.8642,1.8664,1.8942,1.9489,1.9549,1.9609,1.9663,1.923,1.8684,1.8072,1.7619,1.7094,1.6618,1.6561,1.6525,1.65,1.6636,1.759,1.9585,1.956,1.956,1.9736,1.9824,1.9824,1.9824,1.9824,1.9824,1.9824,1.9861,2.01,2.049,2.0666,2.108,2.2071,2.2734,2.3045,2.3095,2.3095,2.3095,2.312,2.312,2.317,2.3296,2.3587,2.3954,2.3963,2.3938,2.4189,2.4607,2.5034,2.5452,2.5669,2.5887,2.6223,2.6782,2.8071,2.9348,3.0599,3.0999,3.0675,3.1042,3.1288,3.1481,3.1511,3.1511,3.1511,1.7525,1.7635,1.7772,1.7648,1.7456,1.7681,1.7777,1.7777,1.7777,1.7777,1.7777,1.7777,1.7777,1.7777,1.7777,1.7777,1.7777,1.7777,1.7777,1.7777,1.7777,1.7777,1.7777,1.7777,1.7777,1.7777,1.7777,1.7738,1.7652,1.7629,1.7629,1.7589,1.7397,1.7374,1.7344,1.6805,1.649,1.6443,1.6003,1.5791,1.5911,1.6593,1.6886,1.666,1.6796,1.7357,1.8286,1.834,1.8634,1.9318,1.9339,1.9429,1.9669,1.9708,1.9708,1.969,1.9506,1.9024,1.822,1.7941,1.7435,1.6654,1.6873,1.6898,1.6737,1.7188,1.8217,1.9434,1.9824,1.9824,1.9824,1.9824,1.9824,1.9824,1.9824,1.9811,1.9899,2.0125,2.0465,2.0742,2.1231,2.192,2.2257,2.2769,2.3095,2.3095,2.3095,2.312,2.317,2.3411,2.3712,2.3847,2.4214,2.4657,2.5008,2.4691,2.4666,2.5109,2.5511,2.5804,2.6047,2.6172,2.6449,2.6688,2.7917,2.9489,3.0777,3.1321,3.1205,3.1263,3.1511,3.1511,3.1511,3.163,3.157,1.7839,1.7916,1.7932,1.7987,1.8017,1.7965,1.7982,1.803,1.7866,1.7839,1.79,1.7828,1.7777,1.7777,1.7777,1.7777,1.7777,1.7777,1.7777,1.7777,1.7777,1.7777,1.7845,1.8132,1.8228,1.816,1.8155,1.8053,1.785,1.8025,1.802,1.78,1.7689,1.7539,1.7271,1.6846,1.6611,1.6548,1.6105,1.5912,1.6286,1.7167,1.7831,1.7846,1.7569,1.7834,1.8996,1.9041,1.922,1.9639,1.9708,1.9708,1.9708,1.9708,1.9708,1.9729,1.9716,1.929,1.8384,1.7993,1.7445,1.6654,1.7035,1.7236,1.7124,1.7765,1.8681,1.951,1.9824,1.9824,1.9824,1.9824,1.9824,1.9824,1.9824,1.9886,2.0075,2.044,2.0792,2.1206,2.1956,2.2458,2.2594,2.2895,2.307,2.3095,2.3271,2.3396,2.3246,2.3904,2.4481,2.4566,2.4842,2.5159,2.546,2.536,2.5385,2.5778,2.5854,2.613,2.6273,2.6424,2.656,2.6833,2.7917,2.9551,3.0673,3.1292,3.1511,3.1511,3.1511,3.1511,3.163,3.1795,3.1885,1.796,1.8178,1.818,1.8338,1.8432,1.8266,1.8348,1.8358,1.7998,1.7984,1.82,1.7968,1.7958,1.7918,1.7986,1.7879,1.798,1.7879,1.7777,1.7777,1.7777,1.7845,1.7958,1.8719,1.9052,1.8916,1.891,1.8572,1.8059,1.86,1.8606,1.8069,1.8288,1.8113,1.7377,1.737,1.7302,1.7107,1.641,1.6308,1.7035,1.7587,1.8375,1.9263,1.892,1.8681,1.8788,1.9348,1.9639,1.9708,1.9708,1.9708,1.9708,1.9708,1.9708,1.9702,1.9727,1.9333,1.8606,1.7824,1.7256,1.678,1.7099,1.7663,1.7991,1.8254,1.8781,1.9585,1.9824,1.9824,1.9824,1.9824,1.9824,1.9811,1.9861,2.0125,2.0515,2.073,2.1069,2.1866,2.2619,2.3045,2.307,2.307,2.312,2.3321,2.3687,2.3898,2.3572,2.4422,2.5217,2.5418,2.5527,2.5703,2.5879,2.6055,2.6231,2.6424,2.6373,2.6424,2.6399,2.6499,2.6499,2.6816,2.8572,3.0178,3.094,3.1511,3.1511,3.1511,3.1511,3.16,3.1839,3.2079,3.2407,1.8137,1.8236,1.8418,1.8393,1.8313,1.8251,1.8173,1.8052,1.7844,1.8121,1.858,1.8579,1.8837,1.9101,1.8809,1.8843,1.9191,1.8312,1.7811,1.7845,1.7811,1.8093,1.8538,1.8883,1.9255,1.9602,1.9636,1.9535,1.9366,1.9541,1.9501,1.9338,1.9192,1.8909,1.8379,1.8162,1.7945,1.7575,1.7253,1.7256,1.7625,1.8548,1.9075,1.9024,1.9225,1.9399,1.9399,1.9588,1.9708,1.9708,1.9708,1.9708,1.9708,1.9708,1.9708,1.9708,1.9704,1.9244,1.8384,1.802,1.7621,1.7317,1.7626,1.8103,1.8543,1.8995,1.9384,1.9786,1.9824,1.9824,1.9824,1.9824,1.9849,1.9824,2.0175,2.0502,2.0902,2.1418,2.2046,2.2619,2.297,2.3095,2.3095,2.312,2.3346,2.3732,2.4039,2.4079,2.4365,2.4899,2.5644,2.6038,2.6122,2.6147,2.6206,2.6281,2.6424,2.6575,2.6575,2.6748,2.6714,2.6533,2.6533,2.7571,2.9317,3.0404,3.119,3.157,3.163,3.16,3.163,3.1839,3.2123,3.2512,3.2931,1.8303,1.8481,1.8584,1.8579,1.8447,1.8323,1.8357,1.8451,1.8285,1.8698,1.9313,1.9359,1.9541,1.9839,1.9507,1.9575,1.9873,1.9,1.8622,1.856,1.8296,1.8634,1.9316,1.9655,1.9965,2.0359,2.046,2.0285,2.0042,2.0278,2.0285,1.9978,1.9769,1.939,1.8946,1.8672,1.8328,1.812,1.8305,1.8454,1.8612,1.928,1.9498,1.9181,1.9489,1.9708,1.9708,1.9708,1.9708,1.9708,1.9708,1.9708,1.9708,1.9708,1.9708,1.9708,1.9654,1.9295,1.8415,1.8161,1.7935,1.7645,1.7928,1.8329,1.8744,1.9384,1.9786,1.9824,1.9824,2.0124,2.0827,2.0614,2.0326,1.9823,2.0326,2.0904,2.1365,2.2117,2.2659,2.2995,2.3095,2.3095,2.3095,2.3371,2.3687,2.4249,2.4515,2.4506,2.4942,2.5376,2.5971,2.6348,2.6373,2.6399,2.6449,2.6524,2.6575,2.665,2.6675,2.6986,2.717,2.6782,2.6636,2.8732,3.0598,3.0837,3.1511,3.1839,3.1989,3.1929,3.1989,3.2482,3.2946,3.3245,3.3604,1.8536,1.8941,1.8711,1.8725,1.887,1.8533,1.8837,1.9486,1.9235,1.9582,2.0278,2.0167,2.0149,2.0183,2.0183,2.0177,2.0103,1.9906,1.9934,1.9873,1.9547,1.9486,2.0088,2.0778,2.1156,2.1258,2.1258,2.0913,2.0447,2.0934,2.0859,2.0283,2.0206,1.9748,1.9227,1.8887,1.8856,1.8848,1.931,1.9558,1.9549,1.9678,1.9669,1.9648,1.9678,1.9708,1.9708,1.9708,1.9708,1.9708,1.9708,1.9708,1.9708,1.9708,1.9708,1.969,1.9663,1.9242,1.8693,1.8288,1.8056,1.7902,1.8117,1.8405,1.887,1.9459,1.9824,1.9824,1.9824,2.0665,2.2117,2.2132,2.1192,2.0288,2.0753,2.1443,2.2207,2.2769,2.2995,2.3095,2.312,2.312,2.3195,2.3612,2.4264,2.4842,2.5259,2.5184,2.536,2.5804,2.6323,2.6499,2.6499,2.665,2.67,2.6801,2.6971,2.772,2.7652,2.7833,2.8153,2.7835,2.8219,3.0234,3.1456,3.1618,3.1839,3.2303,3.2542,3.2572,3.2841,3.3365,3.3709,3.3949,3.4203,1.8588,1.8697,1.8636,1.865,1.8773,1.9144,1.9507,1.98,2.0025,2.0533,2.1086,2.0994,2.1143,2.1596,2.1109,2.1177,2.1265,2.0515,2.0718,2.1468,2.0947,2.071,2.1014,2.1651,2.1982,2.1982,2.1921,2.1907,2.1711,2.1785,2.1667,2.1201,2.1014,2.0669,2.0031,1.9835,1.9715,1.9482,1.9588,1.9708,1.9708,1.9708,1.9708,1.9708,1.9708,1.9708,1.9708,1.9708,1.9708,1.9708,1.9708,1.9708,1.9708,1.9708,1.9681,1.9536,1.8988,1.8669,1.8723,1.8452,1.833,1.8601,1.8669,1.8995,1.9459,1.9685,1.9824,1.9824,1.9836,2.0752,2.2518,2.2819,2.2268,2.1881,2.2046,2.2508,2.2769,2.298,2.3095,2.3145,2.3487,2.3537,2.3612,2.4039,2.4933,2.5653,2.5753,2.5628,2.5871,2.6248,2.6776,2.6575,2.6575,2.6801,2.6952,2.7077,2.7586,2.8699,2.9013,2.9098,2.9525,2.9792,3.087,3.2556,3.2808,3.3005,3.3006,3.3185,3.3215,3.323,3.3469,3.3844,3.4128,3.4398,3.4727,1.8511,1.8652,1.8945,1.9097,1.9208,1.9952,2.0387,2.0579,2.0836,2.1305,2.1773,2.1759,2.1887,2.2219,2.1854,2.1887,2.211,2.136,2.1502,2.2009,2.182,2.1657,2.1793,2.2151,2.2313,2.2313,2.2313,2.2279,2.221,2.213,2.1846,2.1493,2.1219,2.0781,2.0279,2.0106,1.9962,1.9714,1.9708,1.9708,1.9708,1.9708,1.9708,1.9708,1.9708,1.9708,1.9708,1.9708,1.9708,1.9708,1.9708,1.9708,1.9708,1.9708,1.9497,1.9109,1.8815,1.8806,1.8636,1.8693,1.8907,1.8976,1.9008,1.9296,1.966,1.9824,1.9824,1.9824,2.0551,2.1741,2.2694,2.3095,2.296,2.2734,2.317,2.3421,2.3155,2.3336,2.3336,2.3371,2.3788,2.4481,2.4415,2.4933,2.5485,2.6105,2.6105,2.6172,2.6373,2.6801,2.7085,2.7027,2.7206,2.7551,2.7875,2.8033,2.8732,2.9777,3.1021,3.098,3.0926,3.1525,3.2675,3.3737,3.4097,3.4203,3.3933,3.3784,3.3903,3.3963,3.4113,3.4412,3.4787,3.5146,3.5446,1.8398,1.8643,1.947,1.9805,1.9906,2.0713,2.1247,2.1597,2.1664,2.1932,2.2255,2.2328,2.2245,2.2313,2.2219,2.2279,2.2313,2.211,2.2178,2.2279,2.2219,2.2219,2.2185,2.2252,2.2313,2.2313,2.2313,2.2313,2.2223,2.1923,2.166,2.1407,2.0773,2.0358,2.0158,1.9883,1.9735,1.9717,1.9708,1.9708,1.9708,1.9708,1.9708,1.9708,1.9708,1.9708,1.9708,1.9708,1.9708,1.9708,1.9708,1.9708,1.9708,1.9708,1.933,1.8605,1.8788,1.8694,1.8654,1.9164,1.947,1.9217,1.9221,1.9371,1.9836,1.9924,1.9886,2.0162,2.1906,2.2744,2.302,2.3095,2.317,2.3236,2.3813,2.3772,2.3572,2.3763,2.3904,2.3512,2.4315,2.531,2.5954,2.6105,2.5904,2.6298,2.6373,2.6524,2.6826,2.7311,2.7587,2.7713,2.8037,2.8525,2.8813,2.9061,3.0024,3.1089,3.2783,3.3257,3.2609,3.308,3.4063,3.4785,3.4831,3.4622,3.4262,3.4262,3.4548,3.4877,3.513,3.5429,3.5759,3.6088,3.6417,1.8569,1.8652,1.9435,1.978,1.9957,2.1238,2.1903,2.1955,2.231,2.2534,2.2652,2.246,2.2327,2.2313,2.2313,2.2313,2.2313,2.2313,2.2313,2.2313,2.2313,2.2313,2.2313,2.2313,2.2313,2.2313,2.2313,2.2313,2.223,2.2061,2.1772,2.1142,2.0854,2.049,1.9892,1.9797,1.9708,1.9708,1.9708,1.9708,1.9708,1.9708,1.9708,1.9708,1.9708,1.9708,1.9708,1.9708,1.9708,1.9708,1.9708,1.9708,1.9708,1.9708,1.9574,1.9155,1.8033,1.7975,1.9045,1.9184,1.9203,1.9649,1.9974,2.039,2.0402,2.01,2.0326,2.1041,2.2332,2.307,2.3246,2.3145,2.3371,2.3738,2.4014,2.4239,2.439,2.454,2.4641,2.4858,2.5134,2.5686,2.6373,2.6399,2.6348,2.6474,2.66,2.6776,2.7278,2.7814,2.8247,2.8558,2.9101,2.9548,2.9608,3.0128,3.1304,3.2374,3.3996,3.4856,3.4227,3.4084,3.488,3.525,3.537,3.513,3.4951,3.513,3.5459,3.5835,3.6134,3.6327,3.6596,3.6985,3.7075,1.8747,1.8999,1.9936,2.043,2.0831,2.2156,2.265,2.2458,2.2743,2.2813,2.2594,2.2377,2.232,2.2313,2.2313,2.2313,2.2313,2.2313,2.2313,2.2313,2.2313,2.2313,2.2313,2.2313,2.2313,2.2313,2.2313,2.2313,2.2216,2.1893,2.1424,2.0975,2.064,2.0154,1.9788,1.9708,1.9708,1.9708,1.9708,1.9708,1.9708,1.9708,1.9708,1.9708,1.9708,1.9708,1.9708,1.9708,1.9708,1.9708,1.9708,1.9708,1.9708,1.9711,1.973,1.9516,1.8913,1.8326,1.9167,1.9355,1.9535,2.015,2.0541,2.0792,2.0968,2.0753,2.0854,2.1557,2.2433,2.3256,2.3782,2.3697,2.3938,2.429,2.4607,2.4883,2.5093,2.5168,2.5209,2.5468,2.5728,2.6097,2.6399,2.6499,2.6959,2.716,2.6625,2.6801,2.7656,2.8257,2.9123,2.9629,3.0206,3.0535,3.0501,3.1217,3.2586,3.3709,3.5039,3.5396,3.5096,3.5148,3.5397,3.5669,3.5908,3.6118,3.6044,3.6237,3.6327,3.6656,3.6926,3.7088,3.7327,3.7614,3.7524,1.9044,1.9582,2.0682,2.136,2.1855,2.305,2.3264,2.2769,2.2996,2.2768,2.2384,2.2313,2.2313,2.2313,2.2313,2.2313,2.2313,2.2313,2.2313,2.2313,2.2313,2.2313,2.2313,2.2313,2.2313,2.2313,2.2313,2.2299,2.1974,2.1508,2.1158,2.0813,2.0219,1.9892,1.9771,1.9708,1.9708,1.9708,1.9708,1.9708,1.9708,1.9708,1.9708,1.9708,1.9708,1.9708,1.9759,1.9818,1.9917,1.9848,1.9759,1.9708,1.9708,1.9704,1.9914,2.0042,1.9775,1.9472,1.9422,1.9749,2.0284,2.0732,2.0943,2.1155,2.1507,2.1694,2.1794,2.2006,2.2669,2.3547,2.4591,2.4791,2.4741,2.4942,2.536,2.5586,2.5711,2.5711,2.572,2.572,2.6047,2.6348,2.6524,2.6675,2.7286,2.7688,2.7128,2.7002,2.7907,2.8789,2.9652,3.0393,3.0919,3.2072,3.2218,3.2027,3.3437,3.4935,3.6157,3.6199,3.6207,3.6716,3.6866,3.6357,3.6477,3.6716,3.6883,3.6866,3.7045,3.7404,3.7644,3.7764,3.7973,3.8212,3.8093,1.9784,2.0327,2.1674,2.2114,2.2122,2.3199,2.3276,2.2778,2.2765,2.2593,2.2321,2.2313,2.2313,2.2313,2.2313,2.2313,2.2313,2.2313,2.2313,2.2313,2.2313,2.2313,2.2313,2.2313,2.2306,2.2313,2.2244,2.2068,2.1816,2.1536,2.1015,2.0501,2.0236,2.0024,1.9771,1.9708,1.9708,1.9708,1.9708,1.9708,1.9708,1.9708,1.9708,1.9738,1.9768,1.9789,1.9908,2.0258,2.0518,2.0479,1.9989,1.9818,1.9917,1.9917,2.0378,2.0651,2.0225,1.9723,1.9799,2.0564,2.0882,2.1024,2.1432,2.1945,2.2207,2.2508,2.2594,2.2719,2.2945,2.3572,2.4691,2.5452,2.5753,2.5703,2.5636,2.5879,2.6248,2.6399,2.6399,2.6424,2.6524,2.66,2.6776,2.7077,2.7688,2.8047,2.7814,2.7839,2.8517,2.9371,3.0211,3.0894,3.1519,3.2897,3.4098,3.3746,3.4212,3.5968,3.7082,3.7369,3.7584,3.8392,3.8434,3.7656,3.7268,3.7345,3.7464,3.7494,3.7764,3.8153,3.8302,3.8392,3.8601,3.8793,3.8943,2.0555,2.1301,2.197,2.22,2.2301,2.2886,2.291,2.2561,2.2639,2.2567,2.237,2.2313,2.2313,2.2313,2.2313,2.2313,2.2313,2.2313,2.2313,2.2313,2.2313,2.2313,2.2313,2.2313,2.2137,2.2003,2.193,2.1831,2.1559,2.1086,2.0732,2.0375,2.0115,1.9883,1.9762,1.9708,1.9738,1.9738,1.9738,1.9738,1.9738,1.9738,1.9738,1.9798,2.0058,2.0198,2.0339,2.0847,2.1176,2.1156,2.0926,2.0776,2.0896,2.1168,2.1312,2.0811,2.0233,2.0,2.0239,2.0916,2.1195,2.1585,2.2071,2.2408,2.2669,2.292,2.312,2.317,2.3195,2.3838,2.5527,2.6172,2.6298,2.6223,2.6256,2.6557,2.6876,2.7135,2.7211,2.7185,2.7153,2.7153,2.7203,2.7605,2.814,2.8341,2.8348,2.8674,2.9145,3.0228,3.1227,3.2308,3.3025,3.3647,3.49,3.4949,3.518,3.6863,3.787,3.816,3.8464,3.9002,3.9062,3.8673,3.8404,3.8123,3.8093,3.8182,3.8512,3.8811,3.8853,3.8973,3.9212,3.9391,3.9421,2.1344,2.2136,2.22,2.2287,2.2405,2.2697,2.2658,2.2474,2.2612,2.2533,2.2314,2.2313,2.2313,2.2313,2.2313,2.2313,2.2313,2.2313,2.2313,2.2313,2.2313,2.2313,2.2313,2.2251,2.2159,2.1945,2.1514,2.143,2.1133,2.0699,2.0333,2.0098,1.9803,1.9708,1.9708,1.9708,1.9738,1.9908,1.9908,1.9938,2.0058,2.0007,2.0037,2.0118,2.0617,2.0907,2.0967,2.1555,2.1854,2.1944,2.2004,2.2054,2.2162,2.2534,2.1971,2.0566,2.0344,2.061,2.0656,2.1306,2.1815,2.2096,2.2357,2.2759,2.3045,2.3246,2.3296,2.3597,2.3938,2.4531,2.603,2.6449,2.6575,2.6725,2.6984,2.7361,2.7512,2.7695,2.7921,2.7871,2.7738,2.7763,2.7864,2.8065,2.8599,2.902,2.9051,2.9076,2.972,3.1477,3.2669,3.3988,3.4742,3.4761,3.5364,3.5827,3.6411,3.7727,3.843,3.8715,3.9002,3.9331,3.9242,3.9122,3.9152,3.8883,3.8853,3.8793,3.8973,3.9152,3.9331,3.9421,3.9421,3.9421,3.9421,2.2125,2.2639,2.2928,2.2908,2.2689,2.2947,2.2929,2.2665,2.2678,2.2533,2.2313,2.2313,2.2313,2.2313,2.2313,2.2313,2.2313,2.2313,2.2313,2.2313,2.2313,2.2313,2.2313,2.2313,2.2209,2.1967,2.1439,2.087,2.0601,2.0366,2.0098,1.9847,1.9849,1.9738,1.9848,1.9977,2.0028,2.0479,2.0578,2.0827,2.1216,2.0986,2.1076,2.1276,2.1515,2.1575,2.1665,2.2224,2.2553,2.2613,2.3082,2.331,2.3057,2.1204,2.1004,2.1312,2.1961,2.2153,2.1294,2.1789,2.2426,2.2502,2.2694,2.3261,2.3612,2.3622,2.4014,2.6021,2.5971,2.5921,2.6348,2.6524,2.6751,2.7035,2.7311,2.7645,2.7921,2.8348,2.8574,2.8649,2.8567,2.8549,2.8599,2.8781,2.9032,2.9428,2.9723,2.9748,3.0318,3.2053,3.4253,3.5674,3.5856,3.582,3.6378,3.6773,3.7416,3.8636,3.8876,3.9182,3.9302,3.9421,3.9391,3.9331,3.9421,3.9421,3.9212,3.9182,3.9361,3.9421,3.9421,3.9421,3.9421,3.9421,3.9421,2.2496,2.2714,2.286,2.2755,2.25,2.264,2.2614,2.2487,2.2487,2.2405,2.2334,2.2313,2.2313,2.2313,2.2313,2.2313,2.2313,2.2313,2.2313,2.2313,2.2313,2.2313,2.2313,2.2292,2.2209,2.1908,2.1516,2.0999,2.0515,2.0102,1.9839,1.9822,2.0088,2.0318,2.0327,2.0657,2.0946,2.1126,2.1076,2.1146,2.1545,2.1704,2.1734,2.1734,2.2094,2.2243,2.2423,2.2872,2.3201,2.3231,2.352,2.358,2.3439,2.2707,2.2508,2.3562,2.3186,2.2596,2.1916,2.238,2.2574,2.2803,2.3045,2.3471,2.4114,2.434,2.4641,2.6273,2.6474,2.6499,2.6675,2.7102,2.701,2.7211,2.767,2.8097,2.8499,2.8925,2.9227,2.9302,2.9352,2.9352,2.9302,2.9302,2.9408,2.9679,3.0007,3.0116,3.0913,3.242,3.4881,3.7452,3.7168,3.6617,3.7378,3.8037,3.8291,3.9061,3.9109,3.9302,3.9361,3.9421,3.9421,3.9421,3.9421,3.9421,3.9421,3.9421,3.9421,3.9421,3.9421,3.9421,3.9421,3.9421,3.9421,2.2768,2.2612,2.2663,2.2526,2.2327,2.2313,2.2327,2.232,2.2327,2.232,2.2313,2.2313,2.2313,2.2313,2.2313,2.2313,2.2313,2.2313,2.2313,2.2313,2.2313,2.2313,2.2313,2.2251,2.2144,2.1783,2.1764,2.1392,2.0916,2.0499,2.0314,2.0028,2.0677,2.0907,2.1096,2.1345,2.1635,2.1904,2.1874,2.1984,2.2263,2.2513,2.2423,2.2453,2.2613,2.2942,2.2992,2.352,2.3849,2.3849,2.364,2.361,2.3523,2.4288,2.4154,2.4392,2.3475,2.2974,2.2548,2.2613,2.2734,2.302,2.3496,2.3998,2.4591,2.4967,2.5435,2.6449,2.6474,2.6499,2.6776,2.7663,2.7971,2.7996,2.8147,2.8599,2.9026,2.9377,2.9603,2.9628,2.9754,3.003,2.9955,2.9829,2.9854,3.0005,3.0203,3.0466,3.1747,3.3242,3.4799,3.7328,3.804,3.7455,3.7766,3.8563,3.9048,3.9421,3.9421,3.9421,3.9421,3.9421,3.9421,3.9421,3.9421,3.9421,3.9421,3.9421,3.9421,3.9421,3.9421,3.9421,3.9421,3.9421,3.9421,2.2832,2.2356,2.2593,2.2547,2.2313,2.2313,2.2313,2.2313,2.2313,2.2313,2.2313,2.2313,2.2313,2.2313,2.2313,2.2313,2.2313,2.2313,2.2313,2.2313,2.2313,2.2313,2.2299,2.2304,2.2322,2.2222,2.2124,2.1992,2.1851,2.1573,2.117,2.0847,2.1365,2.1575,2.1695,2.1874,2.2243,2.2603,2.2842,2.3101,2.324,2.334,2.334,2.3381,2.3471,2.3561,2.358,2.4197,2.4515,2.4515,2.4148,2.392,2.4238,2.5157,2.5114,2.3881,2.341,2.307,2.3045,2.3045,2.3095,2.3396,2.3973,2.4591,2.4791,2.5829,2.6373,2.6592,2.6851,2.6952,2.7429,2.809,2.88,2.8825,2.8825,2.9202,2.9553,2.9773,2.9949,2.993,3.0156,3.0482,3.0658,3.0507,3.0432,3.0557,3.0994,3.1306,3.303,3.444,3.488,3.647,3.8076,3.8259,3.8009,3.8509,3.9192,3.9421,3.9421,3.9421,3.9421,3.9421,3.9421,3.9421,3.9421,3.9421,3.9421,3.9421,3.9421,3.9421,3.9421,3.9421,3.9421,3.9421,3.9421,2.2514,2.2307,2.2412,2.2385,2.2313,2.2313,2.2313,2.2313,2.2313,2.2313,2.2313,2.2313,2.2313,2.2313,2.2313,2.2313,2.2313,2.2313,2.2313,2.2313,2.2313,2.2313,2.2324,2.2464,2.2491,2.2507,2.2521,2.2397,2.2175,2.2428,2.2394,2.2204,2.2183,2.2254,2.2373,2.2592,2.2951,2.3171,2.3471,2.361,2.3599,2.3599,2.3599,2.361,2.4107,2.4197,2.4335,2.4885,2.5113,2.5143,2.4945,2.4866,2.4523,2.5205,2.438,2.3345,2.3175,2.3346,2.3587,2.3647,2.3788,2.4239,2.4816,2.5184,2.5017,2.5879,2.6373,2.6826,2.7738,2.819,2.8743,2.9252,2.9578,2.9453,2.9528,2.9829,3.008,3.0256,3.0477,3.0532,3.0783,3.1085,3.1185,3.1256,3.116,3.116,3.1644,3.232,3.3798,3.5197,3.5561,3.6101,3.7663,3.8749,3.8546,3.8925,3.9373,3.9421,3.9421,3.9421,3.9421,3.9421,3.9421,3.9421,3.9421,3.9421,3.9421,3.9421,3.9421,3.9421,3.9421,3.9421,3.9421,3.9481,3.9451,2.2419,2.232,2.2313,2.2313,2.2313,2.2313,2.2313,2.2313,2.2313,2.2313,2.2313,2.2313,2.2313,2.2313,2.2313,2.2313,2.2313,2.2313,2.2482,2.2591,2.2692,2.2647,2.2757,2.2809,2.2916,2.284,2.2941,2.2864,2.2678,2.3161,2.3091,2.2975,2.2962,2.2972,2.3052,2.334,2.3699,2.3849,2.367,2.3939,2.4088,2.4257,2.4268,2.4317,2.4706,2.4844,2.5053,2.5513,2.5854,2.5974,2.6033,2.6171,2.5481,2.4518,2.3352,2.3195,2.3446,2.3763,2.3963,2.4214,2.4465,2.4942,2.5243,2.5419,2.5586,2.6122,2.6625,2.7788,2.8976,2.9779,2.9779,2.9779,2.9779,2.9628,2.9955,3.0256,3.0507,3.0733,3.0984,3.1205,3.1457,3.1662,3.1808,3.1909,3.2035,3.2035,3.2282,3.2681,3.3355,3.4692,3.5794,3.6476,3.7444,3.8368,3.909,3.9265,3.9421,3.9421,3.9421,3.9421,3.9421,3.9421,3.9421,3.9421,3.9421,3.9421,3.9421,3.9451,3.9421,3.9421,3.9451,3.9481,3.981,3.9888,3.9601,2.2627,2.2334,2.2313,2.2313,2.2313,2.2313,2.2313,2.2313,2.2313,2.2313,2.2313,2.2313,2.2313,2.2313,2.2313,2.2313,2.2347,2.2388,2.2699,2.3105,2.3231,2.3425,2.3464,2.3456,2.3228,2.3093,2.3189,2.327,2.321,2.3405,2.3505,2.3672,2.3699,2.368,2.361,2.3599,2.3947,2.4395,2.3988,2.4507,2.5076,2.5393,2.5555,2.5274,2.5453,2.5573,2.5722,2.6213,2.6554,2.6644,2.7016,2.7165,2.6971,2.4956,2.3695,2.315,2.4214,2.4525,2.4324,2.4616,2.5109,2.5561,2.5837,2.5954,2.6298,2.67,2.7412,2.8718,2.9603,2.9779,2.9779,2.988,2.9955,3.0094,3.0421,3.0708,3.0984,3.1436,3.1738,3.1934,3.2039,3.2215,3.239,3.2587,3.2839,3.2939,3.304,3.3261,3.3535,3.4324,3.5621,3.6788,3.7606,3.8331,3.9071,3.9283,3.9421,3.9421,3.9421,3.9421,3.9421,3.9421,3.9421,3.9421,3.9451,3.9511,3.9481,3.9481,3.975,4.0019,3.966,3.969,4.0068,4.0307,4.0098,2.2405,2.2313,2.2313,2.2313,2.2313,2.2313,2.2313,2.2313,2.2313,2.2313,2.2313,2.2313,2.2313,2.2313,2.2313,2.2313,2.2415,2.2936,2.3316,2.3407,2.3559,2.3627,2.3685,2.361,2.3396,2.3311,2.3397,2.3495,2.3492,2.3664,2.395,2.4186,2.4627,2.4657,2.4526,2.4586,2.5094,2.5214,2.5094,2.5184,2.5663,2.6333,2.6482,2.5752,2.6063,2.6255,2.6315,2.6914,2.7225,2.7285,2.7687,2.7675,2.7615,2.5903,2.5161,2.4294,2.4721,2.5653,2.5435,2.5603,2.5979,2.6231,2.6457,2.6557,2.6575,2.7236,2.8366,2.9327,2.9754,2.9779,2.9779,3.0552,3.0798,3.0848,3.1075,3.1301,3.1612,3.224,3.2663,3.2688,3.2788,3.2738,3.2839,3.2813,3.3014,3.3115,3.3115,3.3577,3.3932,3.447,3.546,3.6847,3.7852,3.8546,3.9083,3.9283,3.9421,3.9421,3.9421,3.9421,3.9421,3.9421,3.9421,3.9421,3.9511,3.9601,4.0008,4.0367,4.0636,4.0726,4.0457,4.0397,4.0864,4.0905,4.0696,2.2313,2.2313,2.2313,2.2313,2.2313,2.2313,2.2313,2.2313,2.2313,2.2313,2.2313,2.2313,2.2313,2.2313,2.2313,2.2523,2.2678,2.2914,2.3706,2.3752,2.3802,2.3917,2.3893,2.3799,2.3717,2.356,2.3503,2.3591,2.3623,2.3849,2.4306,2.4963,2.5603,2.5644,2.5483,2.5543,2.5674,2.5734,2.5704,2.5794,2.6405,2.6914,2.7136,2.6704,2.6704,2.6956,2.7136,2.7495,2.7944,2.8004,2.8094,2.7991,2.7824,2.7335,2.7006,2.6699,2.6257,2.7065,2.6865,2.6543,2.6836,2.7085,2.7286,2.7211,2.711,2.7688,2.8567,2.9352,2.9729,2.9955,3.0206,3.1055,3.112,3.112,3.1579,3.1758,3.2039,3.2616,3.2989,3.3065,3.309,3.309,3.3115,3.309,3.309,3.3115,3.3111,3.3725,3.4366,3.5081,3.5682,3.6885,3.8107,3.8852,3.921,3.9319,3.9421,3.9421,3.9451,3.9511,3.9421,3.9421,3.9421,3.9571,4.0068,4.0546,4.1014,4.1343,4.1403,4.1463,4.1433,4.1493,4.1722,4.1583,4.1335,2.2313,2.2313,2.2313,2.2313,2.2313,2.2313,2.2313,2.2313,2.2313,2.2313,2.2313,2.2313,2.2313,2.2313,2.2347,2.2683,2.3168,2.2965,2.3646,2.4215,2.4176,2.4233,2.4296,2.4346,2.3937,2.3723,2.3729,2.3939,2.3789,2.4526,2.5143,2.5633,2.6285,2.6452,2.6363,2.6213,2.6285,2.6405,2.6333,2.6542,2.7136,2.7675,2.7807,2.7615,2.7717,2.7824,2.8004,2.8321,2.856,2.88,2.9099,2.862,2.8184,2.7705,2.9268,2.9944,2.8994,2.8418,2.7962,2.7533,2.7641,2.7821,2.7688,2.7745,2.7921,2.8222,2.9101,2.9628,3.0005,3.0326,3.0678,3.0778,3.0904,3.1347,3.1921,3.2156,3.2315,3.2667,3.2989,3.309,3.309,3.3115,3.3115,3.3115,3.3154,3.3364,3.3492,3.3848,3.463,3.5961,3.6554,3.7098,3.8238,3.9137,3.9421,3.9421,3.9421,3.9421,3.9601,3.966,3.9541,3.9631,3.996,4.0348,4.0965,4.1433,4.1673,4.1822,4.1942,4.2002,4.2182,4.2271,4.2402,4.2312,4.2203,2.2313,2.2313,2.2313,2.2313,2.2313,2.2313,2.2313,2.2313,2.2313,2.2313,2.2313,2.2313,2.2313,2.2347,2.2827,2.2955,2.326,2.3646,2.4031,2.4301,2.4302,2.4332,2.4266,2.4121,2.3846,2.3947,2.4129,2.4459,2.4616,2.5322,2.5974,2.6405,2.6926,2.7165,2.7183,2.7106,2.7183,2.7153,2.6961,2.723,2.7812,2.844,2.8556,2.8625,2.8736,2.8783,2.8949,2.9129,2.9309,2.9398,2.9488,2.9219,2.9159,2.9046,2.9855,3.0411,2.955,2.8703,2.8292,2.8008,2.8122,2.8555,2.8524,2.8254,2.8405,2.8875,2.9679,3.0156,3.0477,3.0803,3.1347,3.1548,3.1689,3.2109,3.2542,3.2608,3.2763,3.2839,3.3115,3.3115,3.3115,3.3115,3.3115,3.3115,3.3197,3.3535,3.3911,3.4304,3.5122,3.6515,3.7156,3.7682,3.8368,3.9283,3.9421,3.9421,3.9421,3.9451,3.969,3.99,3.984,4.0019,4.0558,4.1246,4.1983,4.2132,4.2152,4.2301,4.2491,4.2791,4.2951,4.301,4.301,4.2861,4.2771,2.2313,2.2313,2.2313,2.2313,2.2313,2.2313,2.2313,2.2313,2.2313,2.2313,2.2313,2.2313,2.2448,2.2794,2.3192,2.3545,2.4006,2.4109,2.4433,2.4633,2.4213,2.4081,2.3921,2.3855,2.3895,2.4189,2.4687,2.5106,2.5334,2.5944,2.6644,2.7016,2.7495,2.7525,2.7615,2.7752,2.7961,2.7872,2.7782,2.7863,2.8401,2.9072,2.9285,2.9532,2.9645,2.9621,2.9698,2.9788,2.9953,3.0043,3.0103,3.0342,3.0254,3.0191,3.0764,3.1183,3.0096,2.9736,2.9512,2.8802,2.8899,2.9132,2.9408,2.9283,2.9176,2.9428,3.0276,3.0929,3.1175,3.1472,3.2072,3.2617,3.2828,3.3068,3.3089,3.3086,3.309,3.309,3.3115,3.3115,3.3115,3.3115,3.3115,3.3136,3.339,3.3953,3.4635,3.5285,3.618,3.7491,3.7795,3.7975,3.8638,3.9421,3.9421,3.9541,3.966,3.978,4.0038,4.0187,4.0109,4.0558,4.1265,4.2143,4.305,4.2951,4.2671,4.2921,4.316,4.3369,4.3579,4.3698,4.3579,4.3309,4.325,2.2313,2.2313,2.2313,2.2313,2.2313,2.2313,2.2313,2.2313,2.2313,2.2313,2.2313,2.2313,2.2651,2.3173,2.3545,2.4246,2.4514,2.464,2.4639,2.5064,2.4091,2.3741,2.3728,2.3729,2.4118,2.4706,2.5364,2.6045,2.6004,2.6494,2.7136,2.7585,2.7585,2.7675,2.7872,2.8218,2.8517,2.8859,2.8487,2.8312,2.8906,2.9451,2.9899,3.0188,3.0076,2.9864,2.9983,3.0209,3.054,3.0751,3.1122,3.1481,3.1205,3.0898,3.1712,3.174,3.061,3.0377,3.0163,2.9574,2.9486,2.9804,3.0281,3.0206,3.008,3.008,3.0834,3.1708,3.203,3.2131,3.2604,3.3534,3.4038,3.3682,3.3356,3.3747,3.4137,3.3911,3.345,3.339,3.3115,3.3111,3.3197,3.324,3.3513,3.4241,3.5406,3.6247,3.6797,3.805,3.8549,3.8437,3.887,3.9481,3.969,3.984,4.0038,4.0217,4.0516,4.0726,4.0905,4.1384,4.1953,4.2681,4.329,4.329,4.322,4.3409,4.3609,4.3698,4.3938,4.4267,4.4207,4.3997,4.3967,2.2313,2.2313,2.2313,2.2313,2.2313,2.2313,2.2313,2.2313,2.2313,2.232,2.2313,2.2388,2.2726,2.3451,2.406,2.4671,2.4859,2.4972,2.4776,2.452,2.389,2.368,2.3789,2.4249,2.4608,2.5154,2.5974,2.6956,2.6973,2.7195,2.7375,2.7585,2.7675,2.7884,2.8351,2.8727,2.9086,2.9684,2.9505,2.9205,2.9584,3.0464,3.1132,3.1124,3.0946,3.0881,3.0972,3.1092,3.0851,3.0646,3.1708,3.1885,3.1528,3.1126,3.0863,3.0742,3.1125,3.0869,3.0561,3.0213,3.0099,3.036,3.0763,3.0829,3.0884,3.0959,3.1411,3.2311,3.2813,3.2864,3.3255,3.4267,3.4897,3.4199,3.3768,3.4491,3.5136,3.4511,3.3869,3.3513,3.3176,3.3176,3.3261,3.3513,3.381,3.4862,3.6444,3.7261,3.7058,3.7815,3.9114,3.9187,3.916,3.9541,3.99,4.0277,4.0516,4.1014,4.1403,4.1583,4.1654,4.2162,4.2651,4.2951,4.329,4.3499,4.3728,4.3878,4.3997,4.4117,4.4506,4.4954,4.5224,4.5125,4.5035,2.2313,2.2313,2.2313,2.2313,2.2313,2.2313,2.2313,2.2313,2.2313,2.2489,2.276,2.2827,2.3207,2.3925,2.4661,2.5062,2.5225,2.5185,2.4876,2.44,2.4002,2.3914,2.4208,2.4728,2.5237,2.5794,2.6764,2.7525,2.7585,2.7615,2.7627,2.7944,2.8094,2.838,2.9009,2.9295,2.9714,3.0418,3.0342,3.0446,3.0402,3.1091,3.1494,3.1504,3.1492,3.1511,3.163,3.172,3.1693,3.1603,3.2437,3.2751,3.2432,3.2041,3.2128,3.213,3.2034,3.1424,3.1193,3.0919,3.0912,3.1472,3.1514,3.17,3.1386,3.1486,3.216,3.2939,3.2964,3.3036,3.356,3.4464,3.4402,3.3911,3.4464,3.5278,3.4938,3.4121,3.3641,3.3304,3.3115,3.3111,3.3368,3.3953,3.4449,3.5869,3.7424,3.7994,3.7805,3.815,3.9268,3.9989,3.9989,4.0217,4.0666,4.0935,4.1145,4.1643,4.2211,4.2331,4.2432,4.2891,4.329,4.3499,4.3758,4.4087,4.4267,4.4416,4.4616,4.4766,4.5244,4.5732,4.5933,4.6112,4.6112,2.2313,2.2313,2.2313,2.2313,2.2313,2.2313,2.2313,2.232,2.2429,2.2835,2.3376,2.3579,2.406,2.4669,2.5254,2.5656,2.5754,2.5365,2.493,2.4441,2.3999,2.4113,2.4526,2.5076,2.5806,2.6507,2.7285,2.7525,2.7585,2.7764,2.8111,2.8547,2.8816,2.9056,2.9698,3.0147,3.0552,3.0807,3.1017,3.1509,3.1585,3.157,3.1525,3.1525,3.16,3.163,3.1839,3.2168,3.2542,3.2434,3.2652,3.3162,3.3607,3.3446,3.396,3.4058,3.3515,3.3244,3.2982,3.2239,3.2669,3.3024,3.2765,3.2541,3.2362,3.2689,3.3352,3.3108,3.3133,3.345,3.399,3.4609,3.4423,3.4408,3.5278,3.5854,3.4973,3.4079,3.3641,3.3304,3.3197,3.3197,3.3492,3.4121,3.5575,3.6959,3.7758,3.8248,3.874,3.9501,4.0426,4.0887,4.1006,4.1265,4.1493,4.1613,4.1733,4.2192,4.2701,4.291,4.31,4.325,4.3499,4.3967,4.4237,4.4596,4.4865,4.5014,4.5214,4.5424,4.5963,4.6441,4.6501,4.6711,4.701,2.2313,2.2313,2.2313,2.2313,2.2313,2.2313,2.2313,2.2415,2.2936,2.3316,2.3673,2.4687,2.5296,2.5364,2.5499,2.5664,2.5635,2.5307,2.49,2.442,2.4299,2.4462,2.4945,2.5824,2.6656,2.7165,2.7495,2.7555,2.7812,2.8171,2.8487,2.8727,2.9309,2.9684,3.0223,3.0612,3.0807,3.1092,3.1435,3.1823,3.2496,3.2287,3.157,3.169,3.2019,3.2213,3.2482,3.2961,3.2787,3.2359,3.2214,3.3274,3.409,3.4689,3.5044,3.5178,3.4674,3.4775,3.4357,3.3805,3.4216,3.573,3.5417,3.458,3.4573,3.4835,3.4665,3.3322,3.3364,3.3827,3.4444,3.5634,3.5874,3.5862,3.633,3.6251,3.5734,3.4877,3.4157,3.3827,3.3556,3.3411,3.3219,3.4528,3.6585,3.7683,3.8189,3.8578,3.8437,3.9862,4.1485,4.1754,4.1904,4.2032,4.2171,4.2211,4.2361,4.2821,4.313,4.328,4.3339,4.326,4.3638,4.4655,4.4975,4.5214,4.5454,4.5642,4.5912,4.6181,4.6711,4.713,4.713,4.7189,4.7399]}]]